[[{"header":{"parameterUnit":"m.s-1","parameterCategory":1,"la1":30.6,"la2":28.766,"lo1":-90.7593,"lo2":-88.6598,"dy":0.0162,"dx":0.0183,"nx":116,"ny":114,"refTime":"2024-04-25T12:00:00:Z","depth":0,"parameterNumber":2,"parameterNumberName":"U-component_of_WINDS"},"data":[0.0,0.0,0.0,0.0,0.0,0.0,0.0,0.0,0.0,0.0,0.0,0.0,0.0,0.0,0.0,0.0,0.0,0.0,0.0,0.0,0.0,0.0,0.0,0.0,0.0,0.0,0.0,0.0,0.0,0.0,0.0,0.0,0.0,0.0,0.0,0.0,0.0,0.0,0.0,0.0,0.0,0.0,0.0,0.0,0.0,0.0,0.0,0.0,0.0,0.0,0.0,0.0,0.0,0.0,0.0,0.0,0.0,0.0,0.0,0.0,0.0,0.0,0.0,0.0,0.0,0.0,0.0,0.0,0.0,0.0,0.0,0.0,0.0,0.0,0.0,0.0,0.0,0.0,0.0,0.0,0.0,0.0,0.0,0.0,0.0,0.0,0.0,0.0,0.0,0.0,0.0,0.0,0.0,0.0,0.0,0.0,0.0,0.0,0.0,0.0,0.0,0.0,0.0,0.0,0.0,0.0,0.0,0.0,0.0,0.0,0.0,0.0,0.0,0.0,0.0,0.0,0.0,0.0,0.0,0.0,0.0,0.0,0.0,0.0,0.0,0.0,0.0,0.0,0.0,0.0,0.0,0.0,0.0,0.0,0.0,0.0,0.0,0.0,0.0,0.0,0.0,0.0,0.0,0.0,0.0,0.0,0.0,0.0,0.0,0.0,0.0,0.0,0.0,0.0,0.0,0.0,0.0,0.0,0.0,0.0,0.0,0.0,0.0,0.0,0.0,0.0,0.0,0.0,0.0,0.0,0.0,0.0,0.0,0.0,0.0,0.0,0.0,0.0,0.0,0.0,0.0,0.0,0.0,0.0,0.0,0.0,0.0,0.0,0.0,0.0,0.0,0.0,0.0,0.0,0.0,0.0,0.0,0.0,0.0,0.0,0.0,0.0,0.0,0.0,0.0,0.0,0.0,0.0,0.0,0.0,0.0,0.0,0.0,0.0,0.0,0.0,0.0,0.0,0.0,0.0,0.0,0.0,0.0,0.0,0.0,0.0,0.0,0.0,0.0,0.0,0.0,0.0,0.0,0.0,0.0,0.0,0.0,0.0,0.0,0.0,0.0,0.0,0.0,0.0,0.0,0.0,0.0,0.0,0.0,0.0,0.0,0.0,0.0,0.0,0.0,0.0,0.0,0.0,0.0,0.0,0.0,0.0,0.0,0.0,0.0,0.0,0.0,0.0,0.0,0.0,0.0,0.0,0.0,0.0,0.0,0.0,0.0,0.0,0.0,0.0,0.0,0.0,0.0,0.0,0.0,0.0,0.0,0.0,0.0,0.0,0.0,0.0,0.0,0.0,0.0,0.0,0.0,0.0,0.0,0.0,0.0,0.0,0.0,0.0,0.0,0.0,0.0,0.0,0.0,0.0,0.0,0.0,0.0,0.0,0.0,0.0,0.0,0.0,0.0,0.0,0.0,0.0,0.0,0.0,0.0,0.0,0.0,0.0,0.0,0.0,0.0,0.0,0.0,0.0,0.0,0.0,0.0,0.0,0.0,0.0,0.0,0.0,0.0,0.0,0.0,0.0,0.0,0.0,0.0,0.0,0.0,0.0,0.0,0.0,0.0,0.0,0.0,0.0,0.0,0.0,0.0,0.0,0.0,0.0,0.0,0.0,0.0,0.0,0.0,0.0,0.0,0.0,0.0,0.0,0.0,0.0,0.0,0.0,0.0,0.0,0.0,0.0,0.0,0.0,0.0,0.0,0.0,0.0,0.0,0.0,0.0,0.0,0.0,0.0,0.0,0.0,0.0,0.0,0.0,0.0,0.0,0.0,0.0,0.0,0.0,0.0,0.0,0.0,0.0,0.0,0.0,0.0,0.0,0.0,0.0,0.0,0.0,0.0,0.0,0.0,0.0,0.0,0.0,0.0,0.0,0.0,0.0,0.0,0.0,0.0,0.0,0.0,0.0,0.0,0.0,0.0,0.0,0.0,0.0,0.0,0.0,0.0,0.0,0.0,0.0,0.0,0.0,0.0,0.0,0.0,0.0,0.0,0.0,0.0,0.0,0.0,0.0,0.0,0.0,0.0,0.0,0.0,0.0,0.0,0.0,0.0,0.0,0.0,0.0,0.0,0.0,0.0,0.0,0.0,0.0,0.0,0.0,0.0,0.0,0.0,0.0,0.0,0.0,0.0,0.0,0.0,0.0,0.0,0.0,0.0,0.0,0.0,0.0,0.0,0.0,0.0,0.0,0.0,0.0,0.0,0.0,0.0,0.0,0.0,0.0,0.0,0.0,0.0,0.0,0.0,0.0,0.0,0.0,0.0,0.0,0.0,0.0,0.0,0.0,0.0,0.0,0.0,0.0,0.0,0.0,0.0,0.0,0.0,0.0,0.0,0.0,0.0,0.0,0.0,0.0,0.0,0.0,0.0,0.0,0.0,0.0,0.0,0.0,0.0,0.0,0.0,0.0,0.0,0.0,0.0,0.0,0.0,0.0,0.0,0.0,0.0,0.0,0.0,0.0,0.0,0.0,0.0,0.0,0.0,0.0,0.0,0.0,0.0,0.0,0.0,0.0,0.0,0.0,0.0,0.0,0.0,0.0,0.0,0.0,0.0,0.0,0.0,0.0,0.0,0.0,0.0,0.0,0.0,0.0,0.0,0.0,0.0,0.0,0.0,0.0,0.0,0.0,0.0,0.0,0.0,0.0,0.0,0.0,0.0,0.0,0.0,0.0,0.0,0.0,0.0,0.0,0.0,0.0,0.0,0.0,0.0,0.0,0.0,0.0,0.0,0.0,0.0,0.0,0.0,0.0,0.0,0.0,0.0,0.0,0.0,0.0,0.0,0.0,0.0,0.0,0.0,0.0,0.0,0.0,0.0,0.0,0.0,0.0,0.0,0.0,0.0,0.0,0.0,0.0,0.0,0.0,0.0,0.0,0.0,0.0,0.0,0.0,0.0,0.0,0.0,0.0,0.0,0.0,0.0,0.0,0.0,0.0,0.0,0.0,0.0,0.0,0.0,0.0,0.0,0.0,0.0,0.0,0.0,0.0,0.0,0.0,0.0,0.0,0.0,0.0,0.0,0.0,0.0,0.0,0.0,0.0,0.0,0.0,0.0,0.0,0.0,0.0,0.0,0.0,0.0,0.0,0.0,0.0,0.0,0.0,0.0,0.0,0.0,0.0,0.0,0.0,0.0,0.0,0.0,0.0,0.0,0.0,0.0,0.0,0.0,0.0,0.0,0.0,0.0,0.0,0.0,0.0,0.0,0.0,0.0,0.0,0.0,0.0,0.0,0.0,0.0,0.0,0.0,0.0,0.0,0.0,0.0,0.0,0.0,0.0,0.0,0.0,0.0,0.0,0.0,0.0,0.0,0.0,0.0,0.0,0.0,0.0,0.0,0.0,0.0,0.0,0.0,0.0,0.0,0.0,0.0,0.0,0.0,0.0,0.0,0.0,0.0,0.0,0.0,0.0,0.0,0.0,0.0,0.0,0.0,0.0,0.0,0.0,0.0,0.0,0.0,0.0,0.0,0.0,0.0,0.0,0.0,0.0,0.0,0.0,0.0,0.0,0.0,0.0,0.0,0.0,0.0,0.0,0.0,0.0,0.0,0.0,0.0,0.0,0.0,0.0,0.0,0.0,0.0,0.0,0.0,0.0,0.0,0.0,0.0,0.0,0.0,0.0,0.0,0.0,0.0,0.0,0.0,0.0,0.0,0.0,0.0,0.0,0.0,0.0,0.0,0.0,0.0,0.0,0.0,0.0,0.0,0.0,0.0,0.0,0.0,0.0,0.0,0.0,0.0,0.0,0.0,0.0,0.0,0.0,0.0,0.0,0.0,0.0,0.0,0.0,0.0,0.0,0.0,0.0,0.0,0.0,0.0,0.0,0.0,0.0,0.0,0.0,0.0,0.0,0.0,0.0,0.0,0.0,0.0,0.0,0.0,0.0,0.0,0.0,0.0,0.0,0.0,0.0,0.0,0.0,0.0,0.0,0.0,0.0,0.0,0.0,0.0,0.0,0.0,0.0,0.0,0.0,0.0,0.0,0.0,0.0,0.0,0.0,0.0,0.0,0.0,0.0,0.0,0.0,0.0,0.0,0.0,0.0,0.0,0.0,0.0,0.0,0.0,0.0,0.0,0.0,0.0,0.0,0.0,0.0,0.0,0.0,0.0,0.0,0.0,0.0,0.0,0.0,0.0,0.0,0.0,0.0,0.0,0.0,0.0,0.0,0.0,0.0,0.0,0.0,0.0,0.0,0.0,0.0,0.0,0.0,0.0,0.0,0.0,0.0,0.0,0.0,0.0,0.0,0.0,0.0,0.0,0.0,0.0,0.0,0.0,0.0,0.0,0.0,0.0,0.0,0.0,0.0,0.0,0.0,0.0,0.0,0.0,0.0,0.0,0.0,0.0,0.0,0.0,0.0,0.0,0.0,0.0,0.0,0.0,0.0,0.0,0.0,0.0,0.0,0.0,0.0,0.0,0.0,0.0,0.0,0.0,0.0,0.0,0.0,0.0,0.0,0.0,0.0,0.0,0.0,0.0,0.0,0.0,0.0,0.0,0.0,0.0,0.0,0.0,0.0,0.0,0.0,0.0,0.0,0.0,0.0,0.0,0.0,0.0,0.0,0.0,0.0,0.0,0.0,0.0,0.0,0.0,0.0,0.0,0.0,0.0,0.0,0.0,0.0,0.0,0.0,0.0,0.0,0.0,0.0,0.0,0.0,0.0,0.0,0.0,0.0,0.0,0.0,0.0,0.0,0.0,0.0,0.0,0.0,0.0,0.0,0.0,0.0,0.0,0.0,0.0,0.0,0.0,0.0,0.0,0.0,0.0,0.0,0.0,0.0,0.0,0.0,0.0,0.0,0.0,0.0,0.0,0.0,0.0,0.0,0.0,0.0,0.0,0.0,0.0,0.0,0.0,0.0,0.0,0.0,0.0,0.0,0.0,0.0,0.0,0.0,0.0,0.0,0.0,0.0,0.0,0.0,0.0,0.0,0.0,0.0,0.0,0.0,0.0,0.0,0.0,0.0,0.0,0.0,0.0,0.0,0.0,0.0,0.0,0.0,0.0,0.0,0.0,0.0,0.0,0.0,0.0,0.0,0.0,0.0,0.0,0.0,0.0,0.0,0.0,0.0,0.0,0.0,0.0,0.0,0.0,0.0,0.0,0.0,0.0,0.0,0.0,0.0,0.0,0.0,0.0,0.0,0.0,0.0,0.0,0.0,0.0,0.0,0.0,0.0,0.0,0.0,0.0,0.0,0.0,0.0,0.0,0.0,0.0,0.0,0.0,0.0,0.0,0.0,0.0,0.0,0.0,0.0,0.0,0.0,0.0,0.0,0.0,0.0,0.0,0.0,0.0,0.0,0.0,0.0,0.0,0.0,0.0,0.0,0.0,0.0,0.0,0.0,0.0,0.0,0.0,0.0,0.0,0.0,0.0,0.0,0.0,0.0,0.0,0.0,0.0,0.0,0.0,0.0,0.0,0.0,0.0,0.0,0.0,0.0,0.0,0.0,0.0,0.0,0.0,0.0,0.0,0.0,0.0,0.0,0.0,0.0,0.0,0.0,0.0,0.0,0.0,0.0,0.0,0.0,0.0,0.0,0.0,0.0,0.0,0.0,0.0,0.0,0.0,0.0,0.0,0.0,0.0,0.0,0.0,0.0,0.0,0.0,0.0,0.0,0.0,0.0,0.0,0.0,0.0,0.0,0.0,0.0,0.0,0.0,0.0,0.0,0.0,0.0,0.0,0.0,0.0,0.0,0.0,0.0,0.0,0.0,0.0,0.0,0.0,0.0,0.0,0.0,0.0,0.0,0.0,0.0,0.0,0.0,0.0,0.0,0.0,0.0,0.0,0.0,0.0,0.0,0.0,0.0,0.0,0.0,0.0,0.0,0.0,0.0,0.0,0.0,0.0,0.0,0.0,0.0,0.0,0.0,0.0,0.0,0.0,0.0,0.0,0.0,0.0,0.0,0.0,0.0,0.0,0.0,0.0,0.0,0.0,0.0,0.0,0.0,0.0,0.0,0.0,0.0,0.0,0.0,0.0,0.0,0.0,0.0,0.0,0.0,0.0,0.0,0.0,0.0,0.0,0.0,0.0,0.0,0.0,0.0,0.0,0.0,0.0,0.0,0.0,-4.716,-4.724,0.0,0.0,0.0,0.0,0.0,0.0,0.0,0.0,0.0,0.0,0.0,0.0,0.0,0.0,0.0,0.0,0.0,0.0,0.0,0.0,0.0,0.0,0.0,-5.186,-5.2638,-5.345,-5.3518,-5.3518,-5.3518,-5.3518,0.0,0.0,0.0,0.0,-4.8072,-4.6285,-4.5481,-4.5653,-4.4387,-4.3894,-4.4019,-4.3379,-4.3178,-4.3523,0.0,0.0,0.0,0.0,0.0,0.0,0.0,0.0,0.0,0.0,0.0,0.0,0.0,0.0,0.0,0.0,0.0,0.0,0.0,0.0,0.0,0.0,0.0,0.0,0.0,0.0,0.0,0.0,0.0,0.0,0.0,0.0,0.0,0.0,0.0,0.0,0.0,0.0,0.0,0.0,0.0,0.0,0.0,0.0,0.0,0.0,0.0,0.0,0.0,0.0,0.0,0.0,0.0,0.0,0.0,0.0,0.0,0.0,0.0,0.0,0.0,0.0,0.0,0.0,0.0,0.0,0.0,0.0,0.0,0.0,-4.7804,-4.7825,0.0,0.0,0.0,0.0,0.0,0.0,0.0,0.0,0.0,0.0,0.0,0.0,0.0,0.0,0.0,0.0,0.0,0.0,0.0,0.0,0.0,-5.0371,-5.115,-5.186,-5.2672,-5.3619,-5.3585,-5.3551,-5.3687,-5.3585,-5.3041,-5.1957,-5.093,-4.9891,-4.881,-4.6359,-4.5138,-4.5266,-4.3887,-4.3305,-4.3419,-4.2644,-4.2583,-4.3057,-4.2879,0.0,0.0,0.0,0.0,0.0,0.0,0.0,0.0,0.0,0.0,0.0,0.0,0.0,0.0,0.0,0.0,0.0,0.0,0.0,0.0,0.0,0.0,0.0,0.0,0.0,0.0,0.0,0.0,0.0,0.0,0.0,0.0,0.0,0.0,0.0,0.0,0.0,0.0,0.0,0.0,0.0,0.0,0.0,0.0,0.0,0.0,0.0,0.0,0.0,0.0,0.0,0.0,0.0,0.0,0.0,0.0,0.0,0.0,0.0,0.0,0.0,0.0,0.0,-5.1844,-5.1727,-5.0844,-5.1273,-5.1196,-5.0498,-4.9398,-4.9079,-4.9262,-4.8607,0.0,0.0,0.0,0.0,0.0,0.0,0.0,0.0,0.0,0.0,0.0,0.0,0.0,0.0,0.0,0.0,0.0,0.0,0.0,-5.0371,-5.115,-5.186,-5.2875,-5.4329,-5.3856,-5.3788,-5.4397,-5.3856,-5.3041,-5.1957,-5.093,-4.9891,-4.881,-4.5454,-4.4456,-4.5871,-4.4069,-4.2825,-4.2144,-4.157,-4.1298,-4.1479,-4.3144,-4.4653,-4.5843,0.0,0.0,0.0,0.0,0.0,0.0,0.0,0.0,0.0,0.0,0.0,0.0,0.0,0.0,0.0,0.0,0.0,0.0,0.0,0.0,0.0,0.0,0.0,0.0,0.0,0.0,0.0,0.0,0.0,0.0,0.0,0.0,0.0,0.0,0.0,0.0,0.0,0.0,0.0,0.0,0.0,-5.2007,-5.3264,0.0,0.0,0.0,0.0,0.0,0.0,0.0,0.0,0.0,0.0,0.0,0.0,0.0,-5.2075,-5.3162,-5.4862,-5.5347,-5.4726,-5.6683,-5.6242,-5.3757,-5.3926,-5.3372,-5.2279,-5.2696,0.0,-4.9271,-4.883,0.0,0.0,0.0,0.0,0.0,0.0,0.0,0.0,0.0,0.0,0.0,0.0,0.0,0.0,0.0,0.0,0.0,0.0,0.0,0.0,0.0,-5.3619,-5.5446,-5.6934,-5.8355,-5.8355,-5.6562,-5.6528,-5.5473,-5.2935,-5.1776,-5.0779,-4.9734,-4.6491,-4.4593,-4.4049,-4.4519,-4.439,-4.3742,-4.3508,-4.3537,-4.3719,-4.4282,-4.4061,-4.3399,-4.4359,0.0,0.0,0.0,0.0,0.0,0.0,0.0,0.0,0.0,0.0,0.0,0.0,0.0,0.0,0.0,0.0,0.0,0.0,0.0,0.0,0.0,0.0,0.0,0.0,0.0,0.0,0.0,0.0,0.0,0.0,0.0,0.0,0.0,0.0,0.0,0.0,0.0,0.0,0.0,-5.072,-5.2546,-5.2037,-5.2516,-5.1572,0.0,0.0,0.0,0.0,0.0,0.0,0.0,0.0,0.0,-5.4753,-5.4547,-5.5164,-5.6718,-5.6794,-5.6643,-5.6297,-5.7233,-5.6876,-5.5362,-5.5124,-5.4535,-5.3673,-5.3356,-5.2349,-5.0855,-5.0705,-4.9535,-4.7638,0.0,0.0,0.0,0.0,-4.4869,-4.5024,0.0,0.0,0.0,0.0,0.0,0.0,0.0,0.0,0.0,0.0,0.0,0.0,-5.2705,-5.536,-5.7715,-5.9487,-6.1812,-6.2042,-5.9235,-5.866,-5.7205,-5.4465,-5.2753,-5.1414,-5.0397,-4.7881,-4.5605,-4.3692,-4.5759,-4.624,-4.5267,-4.5341,-4.5314,-4.5105,-4.5131,-4.4061,-4.2374,-4.4501,-4.3964,-4.1772,0.0,0.0,0.0,0.0,0.0,0.0,0.0,0.0,0.0,0.0,0.0,0.0,0.0,0.0,0.0,0.0,0.0,0.0,0.0,0.0,0.0,0.0,0.0,0.0,0.0,0.0,0.0,0.0,0.0,0.0,0.0,0.0,0.0,0.0,0.0,0.0,0.0,-5.2278,-5.3305,-5.1628,-5.3539,-5.2891,0.0,0.0,0.0,0.0,0.0,0.0,-5.2769,-5.3823,-5.5494,-5.7744,-5.746,-5.8063,-5.9605,-5.8298,-5.7675,-5.765,-5.7223,-5.6897,-5.662,-5.5917,-5.5214,-5.4511,-5.3708,-5.2955,-5.2304,-5.2297,-5.0871,-4.8677,-4.7864,-4.6821,-4.5707,-4.5912,-4.6027,-4.6191,0.0,0.0,0.0,0.0,0.0,0.0,0.0,0.0,0.0,0.0,0.0,-5.0961,-5.4224,-5.6303,-5.85,-6.1051,-6.197,-6.2381,-6.2178,-5.8863,-5.6833,-5.663,-5.362,-5.1414,-5.0397,-4.9021,-4.7837,-4.696,-4.8204,-4.7686,-4.5377,-4.5823,-4.5021,-4.3335,-4.5157,-4.5867,-4.5613,-4.3455,-4.2475,-4.2472,-4.2411,0.0,0.0,0.0,0.0,0.0,0.0,0.0,0.0,0.0,0.0,0.0,0.0,0.0,0.0,0.0,0.0,0.0,0.0,0.0,0.0,0.0,0.0,0.0,0.0,0.0,0.0,0.0,0.0,0.0,0.0,0.0,0.0,0.0,0.0,0.0,0.0,0.0,0.0,-5.4934,-5.622,0.0,0.0,0.0,0.0,-5.154,-5.3261,-5.4647,-5.536,-5.6615,-5.7933,-5.9363,-5.936,-5.961,-6.0214,-5.9711,-5.9357,-5.9357,-5.7775,-5.7323,-5.7775,-5.6671,-5.5591,-5.4561,-5.4511,-5.3884,-5.2797,-5.2595,-5.1425,-4.9838,-5.0032,-4.931,-4.8082,-4.6882,-4.6833,-4.7175,0.0,0.0,0.0,0.0,0.0,-4.812,-4.8537,-4.8431,-4.8547,-4.9177,-5.0627,-5.2351,-5.4469,-5.921,-6.2793,-6.4174,-6.71,-6.759,-6.4681,-6.1501,-5.9268,-5.8254,-5.5263,-5.3452,-5.3044,-5.2163,-5.1203,-5.0033,-5.1155,-5.0627,-4.8481,-4.8112,-4.6862,-4.5023,-4.5719,-4.5346,-4.4189,-4.4546,-4.3373,-4.1302,-4.1742,-4.1211,0.0,0.0,0.0,0.0,0.0,0.0,0.0,0.0,0.0,0.0,0.0,0.0,0.0,0.0,0.0,0.0,0.0,0.0,0.0,0.0,0.0,0.0,0.0,0.0,0.0,0.0,0.0,0.0,0.0,0.0,0.0,0.0,0.0,0.0,0.0,0.0,0.0,-5.5468,-5.8255,0.0,-5.257,-5.4727,-5.5488,-5.3165,-5.6179,-5.814,-5.8114,-5.921,-6.025,-6.1065,-6.1466,-6.1567,-6.1416,-6.0864,-6.0387,-6.001,-5.9056,-5.873,-5.8855,-5.7047,-5.5993,-5.5541,-5.4135,-5.3281,-5.2879,-5.2768,-5.1787,-5.0181,-4.9951,-4.9101,-4.8032,-4.7581,-4.7554,-4.7605,0.0,0.0,0.0,0.0,0.0,-4.8367,-4.8489,-4.8627,-4.8985,-4.9825,-5.1799,-5.4093,-5.6676,-6.2025,-6.5849,-6.693,-6.9846,-7.0161,-6.6677,-6.2956,-6.0351,-5.9066,-5.5873,-5.4561,-5.5462,-5.4694,-5.4149,-5.3909,-5.4563,-5.3835,-5.2017,-5.1095,-4.9571,-4.7607,-4.6442,-4.5157,-4.3719,-4.4482,-4.3264,-4.0928,-4.1542,-4.1882,-4.1745,0.0,0.0,0.0,0.0,0.0,0.0,0.0,0.0,0.0,0.0,0.0,0.0,0.0,0.0,0.0,0.0,0.0,0.0,0.0,0.0,0.0,0.0,0.0,0.0,0.0,0.0,0.0,0.0,0.0,0.0,0.0,0.0,0.0,0.0,-5.425,-5.6823,-5.5445,-5.9093,-5.951,-5.3886,-5.6899,-5.8165,-5.5811,-5.8692,-6.0456,-6.0365,-6.124,-6.1893,-6.227,-6.2647,-6.2571,-6.2019,-6.1466,-6.0889,-6.0311,-5.9382,-5.8956,-5.888,-5.6846,-5.5842,-5.5566,-5.3909,-5.308,-5.2929,-5.2929,-5.2051,-5.067,-5.0318,-4.9464,-4.8485,-4.8485,-4.836,-4.8083,0.0,0.0,0.0,0.0,0.0,-4.8331,-4.8475,-4.8592,-4.9547,-5.1869,-5.3346,-5.6,-6.0834,-6.4409,-6.7189,-6.902,-6.9824,-6.9485,-6.7963,-6.2956,-5.9708,-5.8964,-5.5429,-5.473,-5.7522,-5.64,-5.6736,-5.8666,-5.8267,-5.7312,-5.5828,-5.4548,-5.2902,-5.0882,-4.7641,-4.5685,-4.481,-4.314,-4.2102,-4.1586,-4.1925,-4.3169,-4.4519,0.0,0.0,0.0,0.0,0.0,0.0,0.0,0.0,0.0,0.0,0.0,0.0,0.0,0.0,0.0,0.0,0.0,0.0,0.0,0.0,0.0,0.0,0.0,0.0,0.0,0.0,0.0,0.0,0.0,0.0,0.0,0.0,0.0,-5.2701,-5.502,-5.6269,-5.5375,-5.8848,-5.9734,-5.5968,-5.8027,-5.9583,-5.9583,-6.0613,-6.1466,-6.1994,-6.2546,-6.2822,-6.2822,-6.2822,-6.2546,-6.1994,-6.1441,-6.0889,-6.0286,-5.8679,-5.7926,-5.7876,-5.6168,-5.5089,-5.4561,-5.3934,-5.3381,-5.2929,-5.2904,-5.2251,-5.1272,-5.1272,-5.0594,-4.959,-4.9565,-4.9213,-4.8485,0.0,0.0,0.0,-4.8306,-4.8306,-4.8321,-4.8347,-4.8573,-4.9315,-5.1049,-5.372,-5.6803,-6.0243,-6.4836,-6.814,-6.9118,-6.931,-6.8741,-6.7218,-6.1704,-5.8186,-5.7442,-5.7171,-5.8647,-6.1958,-6.0397,-6.0517,-6.2525,-6.0734,-5.9593,-5.9183,-5.7577,-5.5934,-5.4278,-5.1834,-5.017,-4.8954,-4.5516,-4.4117,-4.4183,-4.2669,-4.2054,-4.1869,0.0,0.0,0.0,0.0,0.0,0.0,0.0,0.0,0.0,0.0,0.0,0.0,0.0,0.0,0.0,0.0,0.0,0.0,0.0,0.0,0.0,0.0,0.0,0.0,0.0,0.0,0.0,0.0,0.0,0.0,0.0,-4.8821,-5.2002,-5.2781,-5.5918,-5.8425,-5.9439,-6.1176,-6.1793,-6.0337,-6.124,-6.1743,-6.1341,-6.1969,-6.2446,-6.2596,-6.2747,-6.2822,-6.2822,-6.2822,-6.237,-6.1416,-6.1266,-6.0688,-5.9709,-5.888,-5.8504,-5.8428,-5.6344,-5.5315,-5.5089,-5.3733,-5.3055,-5.2904,-5.2503,-5.1925,-5.1272,-5.1272,-5.0594,-4.954,-4.9138,-4.8385,-4.7405,0.0,0.0,0.0,-4.8306,-4.8306,-4.8416,-4.8783,-4.8981,-4.9895,-5.2058,-5.548,-5.8729,-6.1375,-6.548,-6.8123,-6.8178,-6.7564,-6.644,-6.4613,-6.104,-5.8767,-5.8286,-5.9641,-6.1451,-6.3737,-6.3099,-6.3449,-6.4957,-6.3243,-6.2463,-6.2405,-6.0119,-5.8592,-5.7587,-5.4773,-5.2847,-5.1343,-4.8327,-4.6918,-4.6656,-4.5793,-4.457,-4.3297,-4.2018,-4.2654,-4.4147,-4.3028,-4.3849,-4.5208,-4.4361,0.0,0.0,0.0,0.0,0.0,0.0,0.0,0.0,0.0,0.0,0.0,0.0,0.0,0.0,0.0,0.0,0.0,0.0,0.0,0.0,0.0,0.0,0.0,0.0,-5.1046,-5.3984,-5.5465,-5.7801,-5.991,-6.1341,-6.2295,-6.2797,-6.2722,-6.2797,-6.2797,-6.2722,-6.2797,-6.2822,-6.2822,-6.2822,-6.2822,-6.2822,-6.2596,-6.2169,-6.1542,-6.1065,-6.0387,-5.9483,-5.873,-5.8127,-5.76,-5.5842,-5.4913,-5.4612,-5.3432,-5.2804,-5.2553,-5.2226,-5.1498,0.0,0.0,0.0,0.0,0.0,-4.733,-4.6602,0.0,0.0,-4.8306,-4.8306,-4.8306,-4.86,-4.9463,-4.9646,-5.0797,-5.3926,-5.7527,-6.0731,-6.3023,-6.5737,-6.7218,-6.6745,-6.5256,-6.3503,-6.1592,-6.0942,-6.0702,-6.0841,-6.2576,-6.3741,-6.4222,-6.4973,-6.5687,-6.6291,-6.5586,-6.5266,-6.5274,-6.2376,-6.0992,-6.0872,-5.7231,-5.4787,-5.3275,-5.1355,-4.9972,-4.9178,-4.967,-4.8803,-4.6886,-4.3815,-4.4537,-4.6933,-4.4992,-4.4707,-4.5302,-4.5955,0.0,0.0,0.0,0.0,0.0,0.0,0.0,0.0,0.0,0.0,0.0,0.0,0.0,0.0,0.0,0.0,0.0,0.0,0.0,0.0,0.0,0.0,0.0,0.0,-5.3984,-5.6746,-5.9332,-6.0211,-6.0964,-6.1969,-6.2521,-6.3048,-6.3626,-6.3174,-6.3073,-6.3651,-6.3149,-6.2822,-6.2822,-6.2822,0.0,0.0,0.0,-6.2044,-6.1918,-6.0864,-6.001,-5.9382,-5.8252,-5.7173,-5.6168,-5.4988,-5.4185,-5.3658,-5.308,-5.2553,-5.2101,-5.19,-5.082,-4.9314,-4.9389,-4.9063,-4.841,-4.6878,-4.6276,-4.5974,0.0,-4.8306,-4.8306,-4.8306,-4.8306,-4.86,-4.9463,-4.9646,-5.0842,-5.3954,-5.6641,-5.9116,-6.1492,-6.3319,-6.4783,-6.5831,-6.4005,-6.2702,-6.2465,-6.1849,-6.2296,-6.416,-6.579,-6.6874,-6.7324,-6.7015,-6.7164,-6.7701,-6.647,-6.621,-6.6751,-6.4994,-6.4198,-6.4087,-6.0876,-5.9267,-5.8647,-5.4396,-5.2721,-5.274,-5.0283,-4.9073,-4.8664,-4.6798,-4.7727,-4.9693,-4.7121,-4.8992,-5.2297,-5.0688,-5.0017,-4.9565,-4.7983,-4.5723,0.0,0.0,0.0,0.0,0.0,0.0,0.0,0.0,0.0,0.0,0.0,0.0,0.0,0.0,0.0,0.0,0.0,0.0,0.0,-5.2854,-5.6294,-5.9207,-6.0663,-6.1718,-6.2421,-6.2647,-6.2772,-6.3048,-6.3626,-6.3174,-6.3073,-6.3651,-6.3149,-6.2822,-6.2822,-6.2822,-6.2822,-6.2822,-6.2722,-6.2245,-6.1341,-6.0663,-5.9834,-5.8855,0.0,0.0,-5.6168,-5.4587,-5.3808,-5.3658,-5.2678,-5.2201,-5.2,-5.0645,-4.9113,-4.7657,-4.8083,-4.7908,-4.7355,-4.6602,-4.6024,-4.5472,0.0,-4.8306,-4.8306,-4.8306,-4.8306,-4.8746,-4.9994,-5.0227,-5.1397,-5.4564,-5.6616,-5.8409,-5.9991,-6.084,-6.1123,-6.0677,-5.9358,-5.9725,-6.2603,-6.3613,-6.5284,-6.8031,-6.9281,-6.9809,-6.9582,-6.8779,-6.8675,-6.9306,-6.7805,-6.7475,-6.8174,-6.6803,-6.5781,-6.5001,-6.3494,-6.1939,-6.0359,-5.7889,-5.62,-5.5022,-5.3654,-5.2647,-5.1686,-4.9018,-4.8672,-4.9518,-4.919,-5.0599,-5.2612,-5.2485,-5.2126,-5.1498,-5.0368,-4.8485,-4.6276,0.0,0.0,0.0,0.0,0.0,0.0,0.0,0.0,0.0,0.0,0.0,0.0,0.0,0.0,-4.7305,-4.9264,0.0,-5.3728,-5.7512,-5.9084,-6.0677,-6.2764,-6.2915,-6.2822,-6.2822,-6.2822,-6.3048,-6.3626,-6.3174,-6.3073,-6.3651,-6.3149,-6.2822,-6.2822,-6.2822,-6.2822,-6.2822,-6.2295,-6.1592,-6.0763,-5.9935,-5.8956,-5.7876,-5.6746,-5.5917,-5.534,-5.421,-5.3557,-5.3281,-5.2452,-5.195,-5.1548,-4.9565,-4.8259,-4.7481,-4.7205,-4.6778,-4.625,-4.5673,-4.5121,-4.4518,0.0,-4.8306,-4.8306,-4.8306,-4.8453,-4.9077,-5.0582,-5.0949,-5.2081,-5.4991,-5.6547,-5.7575,-5.829,-5.8234,-5.7411,-5.5554,-5.5278,-5.7599,-6.3219,-6.5622,-6.8362,-7.168,-7.2581,-7.2515,-7.141,-7.0611,-7.0279,-7.0505,-6.9377,-6.8991,-6.9353,-6.8191,-6.6958,-6.5888,-6.5328,-6.372,-6.1349,-6.0781,-5.9283,-5.7275,-5.7424,-5.6621,-5.5039,-5.1944,-5.0248,-4.9709,-5.0969,-5.12,-5.1199,-5.3048,-5.2929,-5.1925,-5.18,-5.0745,-4.9063,-4.6376,-4.5698,0.0,0.0,0.0,0.0,0.0,0.0,0.0,0.0,-4.5235,-4.5924,-4.8259,-4.9238,-5.0544,-5.3381,-5.4411,-5.659,-6.1974,-6.1583,-6.1649,-6.4715,-6.3841,-6.2822,-6.2822,-6.2822,-6.3048,-6.3626,-6.3174,-6.3073,-6.3651,-6.3149,-6.2822,-6.2822,-6.2822,-6.2772,-6.2672,-6.1818,-6.0964,-6.0161,-5.9207,-5.8102,-5.6872,-5.6219,-5.5365,-5.4386,-5.3808,-5.3331,-5.2879,-5.2226,-5.1498,-5.0645,-4.8711,-4.7857,-4.7657,-4.6677,-4.5899,-4.5271,-4.4794,-4.4267,-4.3714,0.0,-4.8306,-4.8306,-4.8306,-4.893,-4.9757,-5.0655,-5.1389,-5.2506,-5.429,-5.5245,-5.5805,-5.5959,-5.5304,-5.4769,-5.4551,-5.6326,-5.9902,-6.5627,-6.7538,-7.0237,-7.4299,-7.5275,-7.4905,-7.3266,-7.3096,-7.2228,-7.0585,-7.1028,-7.0883,-7.0074,-6.9334,-6.8894,-6.865,-6.6206,-6.4892,-6.442,-6.1645,-6.0581,-6.0597,-5.9164,-5.8482,-5.8232,-5.7234,-5.5591,-5.3656,-5.1969,-5.1629,-5.2129,-5.3312,-5.2653,-5.1624,-5.3005,-5.298,-5.2,-4.9715,-4.8033,-4.6326,-4.3463,-4.1736,-4.1247,-4.3517,-4.346,-4.4094,0.0,-5.0278,-5.1197,-5.3909,-5.529,-5.6294,-5.7173,-5.8177,-5.9947,-6.3452,-6.279,-6.2691,-6.5345,-6.3991,-6.2822,-6.2822,-6.2822,-6.3048,-6.3626,-6.3174,-6.3073,-6.3651,-6.3149,-6.2822,-6.2822,-6.2822,-6.2596,-6.2119,-6.1969,-6.1165,-5.9608,-5.9006,-5.7901,-5.6294,-5.5239,-5.4411,-5.3783,-5.3256,-5.298,-5.2879,-5.1825,-5.0494,-4.8987,-4.8234,-4.7631,-4.7093,-4.6552,-4.5648,-4.4719,-4.4644,-4.4267,-4.3714,0.0,-4.8306,-4.8306,-4.8306,-4.86,-4.9114,-4.9958,-5.0381,-5.1189,-5.2784,-5.3259,-5.3481,-5.3504,-5.2414,-5.2074,-5.3035,-5.5669,-5.9889,-6.6079,-6.8766,-7.1982,-7.6106,-7.6166,-7.5758,-7.5014,-7.4026,-7.332,-7.2938,-7.208,-7.1684,-7.167,-7.0389,-6.9364,-6.8496,-6.7392,-6.6435,-6.5586,-6.3873,-6.2726,-6.1909,-6.0369,-5.8961,-5.7658,-5.7024,-5.551,-5.3602,-5.2593,-5.1305,0.0,-5.1423,-5.1122,-5.0645,-5.2628,-5.2201,-5.0795,-4.9866,-4.8636,-4.7405,-4.6577,-4.5817,-4.5454,-4.6581,-4.6359,-4.6913,-5.1056,-5.1178,-5.1541,-5.5549,-5.7223,-5.8252,-5.9156,-6.0211,-6.1878,-6.4689,-6.361,-6.3249,-6.5503,-6.4042,-6.2722,-6.2395,-6.2621,-6.2923,-6.3174,-6.2973,-6.2923,-6.3174,-6.2973,-6.2822,-6.2822,-6.2822,-6.2571,-6.2019,-6.1366,-6.0387,-5.9056,-5.7851,-5.6746,-5.5717,-5.4612,-5.3934,-5.3683,-5.3155,-5.2578,-5.195,-5.1473,-5.0519,-4.9188,-4.8284,-4.7782,-4.7506,-4.6652,-4.5824,-4.507,-4.4744,-4.4066,-4.3288,0.0,-4.8306,-4.8306,-4.8306,-4.8306,-4.86,-4.9463,-4.9794,-5.0345,-5.1499,-5.1683,-5.1573,-5.1373,-5.0399,-5.0308,-5.1699,-5.4482,-5.8844,-6.5084,-6.8662,-7.2372,-7.6436,-7.6533,-7.6423,-7.6423,-7.5207,-7.4573,-7.4632,-7.3427,-7.2744,-7.2485,-7.1405,-7.0231,-6.8964,-6.8554,-6.785,-6.6864,-6.5647,-6.4414,-6.3173,-6.1763,-6.0074,-5.8273,-5.7055,-5.5211,-5.3204,-5.2364,-5.0322,-4.8049,-4.8989,-4.8711,-4.8385,-5.0619,-5.0218,-4.8937,-4.9088,-4.8522,-4.777,-4.7856,-4.8159,-4.8421,-4.8595,-4.8918,-4.9768,-5.241,-5.2496,-5.306,-5.6725,-5.8353,-5.9408,-6.0387,-6.1341,-6.2868,-6.5372,-6.4123,-6.3503,-6.5556,-6.3969,-6.2395,-6.1843,-6.1994,-6.2195,-6.2345,-6.2647,-6.2822,-6.2822,-6.2822,-6.2822,-6.2822,-6.2672,-6.2345,-6.1793,-6.0688,-5.9508,-5.8278,-5.6897,-5.5767,-5.4913,-5.4084,-5.3632,-5.3457,-5.2929,-5.2176,-5.1272,-5.1096,-5.0419,-4.9289,-4.8309,-4.7832,-4.7606,-4.6677,-4.5874,-4.5196,-4.4769,-4.4016,-4.3162,0.0,0.0,-4.8306,-4.8306,-4.8306,-4.86,-4.9463,-5.0251,-5.0765,-5.0839,-5.0839,-5.0545,-4.9757,-4.9627,-4.995,-5.0757,-5.3012,-5.6829,-6.2627,-6.668,-7.0707,-7.4815,-7.643,-7.7237,-7.7237,-7.7237,-7.6355,-7.4702,-7.5356,-7.4293,-7.1758,-7.2409,-7.2159,-7.1109,-6.9775,-6.9136,-6.891,-6.6228,-6.5056,-6.4892,-6.3562,-6.2603,-6.1679,-5.9026,-5.6295,-5.3485,-5.1094,-4.8332,-4.5842,-4.6265,-4.5347,-4.4367,-4.6602,-4.7193,-4.7305,-4.7807,-4.7752,-4.7226,-4.5961,-4.6481,-4.7491,-4.818,-5.0032,-5.1965,-5.3016,-5.5554,-5.7851,-5.8529,-5.9508,-6.0462,-6.104,-6.1617,-6.2868,-6.5372,-6.4123,-6.3503,-6.5556,-6.3635,-6.1818,-6.1266,-6.0713,-6.0613,-6.119,-6.2195,-6.2822,-6.2822,-6.2822,-6.2822,-6.2822,-6.232,-6.1768,-6.1215,-6.0111,-5.873,-5.7097,-5.652,-5.539,-5.3758,-5.3708,-5.3432,-5.2929,-5.2377,-5.1825,-5.1247,-5.0695,-4.9816,-4.8761,-4.8159,-4.7606,-4.7043,-4.6527,-4.5623,-4.4644,-4.4644,-4.4267,-4.3614,0.0,0.0,0.0,0.0,0.0,-4.9848,-4.9554,-4.9297,-4.937,-4.9941,-5.0472,0.0,0.0,0.0,0.0,0.0,-5.4264,-5.7461,-6.1014,-6.5542,-6.9161,-7.1615,-7.4808,-7.6276,-7.5696,-7.6723,-7.7003,-7.6423,-7.6019,-7.508,-7.3617,-7.2538,-7.1346,-6.9996,-6.9397,-6.9132,-6.9009,-6.7149,-6.6934,-6.7461,-6.339,-6.1913,-6.1798,-5.8233,-5.4845,-5.1777,0.0,-4.6608,-4.3468,-4.3591,-4.2994,-4.2484,-4.4342,-4.4418,-4.3865,-4.4098,-4.5345,-4.6941,-4.7983,-4.88,-4.9956,-5.2409,-5.2552,-5.288,-5.5729,-5.6361,-5.6846,-5.8349,-5.8704,-5.8654,-5.8453,-5.8905,-5.979,-6.1349,-6.1692,-6.221,-6.3618,-6.3053,-6.222,-6.1291,-6.1341,-6.1215,-6.0663,-6.1291,-6.2044,-6.2772,-6.2822,-6.2822,-6.2822,-6.2295,-6.1567,-6.0638,-5.9558,-5.8177,-5.652,-5.5566,-5.4637,-5.3708,-5.3356,-5.2904,-5.2377,-5.2176,-5.1398,-5.0142,-4.9967,-4.9238,-4.8159,-4.7606,-4.728,-4.6993,-4.6125,-4.5522,-4.5121,-4.4342,-4.374,-4.3162,0.0,0.0,0.0,0.0,0.0,0.0,0.0,0.0,0.0,0.0,0.0,0.0,0.0,0.0,0.0,0.0,0.0,-5.6124,-5.8547,-6.2695,-6.5925,-6.7871,-7.0991,-7.2422,-7.1908,-7.2642,-7.3421,-7.4301,-7.364,-7.3342,-7.3302,-7.2012,-7.0549,-6.8976,-6.8843,-6.871,-6.8553,-6.6609,-6.6535,-6.7203,-6.236,-6.0451,-6.004,-5.6109,-5.2967,0.0,-4.7788,-4.4649,-4.171,-4.1459,-4.0823,-4.0375,-4.163,-4.2137,-4.2288,-4.269,-4.5252,-4.8433,-5.0631,-5.2421,-5.4096,-5.6132,-5.5983,-5.5782,-5.7725,-5.7386,-5.7018,-5.8149,-5.7675,-5.6897,-5.652,-5.6595,-5.7072,-5.8152,-5.9106,-6.0236,-6.1718,-6.1768,-6.1517,-6.1215,-6.1316,-6.119,-6.0688,-6.0964,-6.1567,-6.2471,-6.2722,-6.2747,-6.2546,-6.2019,-6.119,-6.006,-5.878,-5.7399,-5.5942,-5.4813,-5.3984,-5.3406,-5.308,-5.2628,-5.2101,-5.19,-5.0996,-4.959,-4.9389,-4.8661,-4.7606,-4.728,-4.7029,-4.6753,-4.5849,-4.5372,-4.507,-4.4141,-4.3463,-4.2861,0.0,0.0,0.0,0.0,0.0,0.0,0.0,0.0,0.0,0.0,0.0,0.0,0.0,0.0,0.0,0.0,0.0,0.0,-5.5339,-5.8474,-6.1337,-6.3686,-6.5485,-6.6402,-6.6366,-6.5742,-6.6549,-6.8862,-6.8862,-6.9493,-7.077,-7.0742,-6.9772,-6.795,-6.7946,-6.7845,-6.7464,-6.475,-6.399,-6.4362,-6.0624,-5.8387,-5.6867,-5.319,-5.0925,-4.92,-4.5777,-4.295,-4.0746,-4.0087,-3.9143,-3.8316,-3.8919,-4.0654,-4.259,-4.3639,-4.7288,-5.1452,-5.3557,-5.6707,-5.9385,-5.9222,-5.9889,-6.0315,-5.9084,-5.8781,-5.8529,-5.7801,-5.6344,-5.5139,-5.5064,-5.4662,-5.4737,-5.5942,-5.6696,-5.7901,-6.0136,-6.001,-6.006,-6.109,-6.0738,-6.0613,-6.114,-6.1215,-6.1441,-6.1969,-6.2521,-6.2596,-6.2044,-6.1441,-6.0613,-5.9483,-5.7851,-5.647,-5.5365,-5.4235,-5.3406,-5.2929,-5.2904,-5.2603,-5.2051,-5.1498,-5.0594,-4.9464,-4.8962,-4.8109,-4.7043,-4.7043,-4.6778,-4.625,-4.5673,-4.5095,-4.4543,-4.394,-4.3363,-4.2735,0.0,0.0,0.0,0.0,0.0,0.0,0.0,0.0,0.0,0.0,0.0,0.0,0.0,0.0,0.0,0.0,0.0,0.0,-5.3775,-5.6822,-5.8877,-5.9538,-6.3429,-6.5338,-6.4714,-6.6256,-6.7393,-6.8017,-6.8017,-6.7872,-6.7651,-6.7487,-6.654,-6.4924,-6.4769,-6.4673,-6.4494,-6.265,-6.2343,-6.26,-5.8051,-5.6263,-5.6108,-5.32,-5.0808,-4.8924,-4.8532,-4.543,-4.1442,-4.1169,-4.1104,-4.1307,-4.2233,-4.3514,-4.4844,-4.5949,-4.9248,-5.3032,-5.5272,-5.7806,-6.0362,-6.2399,-6.2113,-6.0997,-5.9876,-5.9528,-5.8528,-5.54,-5.3457,-5.195,-5.0695,-5.1021,-5.2251,-5.4612,-5.6846,-5.9207,-6.1818,-6.2069,-6.1943,-6.1818,-6.1667,-6.1466,-6.1215,-6.1542,-6.1843,-6.1994,-6.2521,-6.2596,-6.2044,-6.1065,-6.0035,-5.8956,-5.7298,-5.5892,-5.4787,-5.3683,-5.3055,-5.2929,-5.2503,-5.2026,-5.1473,-5.0896,-4.9791,-4.8335,-4.8184,-4.7506,-4.6527,-4.6527,-4.6426,-4.62,-4.5221,-4.4744,-4.4468,-4.3087,-4.2233,-4.1601,0.0,0.0,0.0,0.0,0.0,0.0,0.0,0.0,0.0,0.0,0.0,0.0,0.0,0.0,0.0,0.0,0.0,0.0,0.0,-5.4913,-5.6198,-5.6895,-5.9245,-6.0456,-6.0346,-6.1337,-6.2365,-6.3429,-6.3429,-6.3759,-6.4347,-6.3875,-6.2955,-6.1752,-6.1623,-6.1557,-6.136,-5.9556,-5.9219,0.0,0.0,-5.3887,-5.3708,-5.1857,-5.0026,-4.8451,-4.8497,-4.6387,-4.3437,-4.3101,-4.2919,-4.3112,-4.4468,-4.5673,-4.6878,-4.8485,-5.1784,-5.5499,-5.8115,-6.0928,-6.3491,-6.508,-6.4501,-6.2962,-6.0591,-5.9355,-5.7571,-5.3618,-5.1205,-4.9364,-4.7958,-4.8586,-5.0142,-5.2703,-5.5239,-5.8127,-6.1617,-6.2094,-6.2345,-6.2998,-6.2898,-6.2621,-6.232,-6.2345,-6.237,-6.237,-6.2647,-6.2471,-6.1692,-6.0814,-5.9608,-5.8027,-5.6595,-5.5214,-5.3858,-5.3231,-5.2929,-5.2929,-5.2603,-5.2051,-5.1272,-5.0946,-4.9866,-4.8259,0.0,-4.7431,-4.6627,-4.615,-4.5949,-4.5849,-4.4694,-4.4267,-4.4091,-4.274,-4.1957,-4.158,0.0,0.0,0.0,0.0,0.0,0.0,0.0,0.0,0.0,0.0,-5.1242,0.0,0.0,0.0,0.0,0.0,0.0,0.0,0.0,0.0,-5.3885,-5.5354,-5.4766,-5.4766,-5.5596,-5.4913,-5.5574,-5.7666,-5.7666,-5.8731,-6.0786,-6.0089,-5.9346,-5.8635,-5.8635,-5.8589,-5.8314,-5.6318,-5.5702,-5.5891,-5.3231,-5.1653,-5.085,0.0,-4.9295,-4.8211,-4.7224,-4.6462,-4.5884,-4.5502,-4.5047,-4.497,-4.6577,-4.7908,-4.9353,-5.1655,-5.5008,-5.8618,-6.1546,-6.474,-6.7284,-6.7421,-6.6888,-6.5208,-6.134,-5.8841,-5.6158,-5.2092,-4.9312,-4.7237,-4.615,-4.6803,-4.836,-5.1046,-5.3231,-5.6168,-6.0763,-6.1341,-6.2044,-6.4128,-6.3902,-6.3601,-6.3676,-6.3174,-6.2822,-6.2822,-6.2772,-6.227,-6.124,-6.0487,-5.9056,-5.6771,-5.5717,-5.4436,-5.2929,-5.2929,-5.2929,-5.2929,-5.2854,-5.2277,-5.1272,-5.1197,-5.0293,-4.8736,-4.8234,-4.7682,-4.7054,-4.61,-4.5623,-4.5372,-4.4317,-4.3865,-4.3664,-4.2539,-4.2112,-4.1936,0.0,0.0,0.0,0.0,0.0,0.0,0.0,0.0,0.0,0.0,-5.3628,-5.3151,0.0,0.0,0.0,0.0,0.0,0.0,0.0,0.0,0.0,-5.4583,-5.4473,-5.4766,-5.5596,-5.5486,-5.5596,-5.6014,-5.6014,-5.6257,-5.6661,-5.6492,-5.6351,-5.62,-5.62,-5.6204,-5.6113,-5.5127,-5.4038,-5.2971,-5.1818,-5.0587,-4.9494,-5.0549,0.0,0.0,-4.7517,-4.6843,-4.6876,-4.7451,-4.8326,-4.949,-5.072,-5.2477,-5.4587,-5.7034,-5.9615,-6.2148,-6.4234,-6.6686,-6.8791,-6.9337,-6.8143,-6.5867,-6.2174,-5.9351,-5.5905,-5.0159,-4.7419,-4.568,-4.4497,-4.4769,-4.6828,-5.1825,-5.3733,-5.6445,-6.1793,-6.2144,-6.2345,-6.3676,-6.3324,-6.3174,-6.3651,-6.3174,-6.2822,-6.2822,-6.2395,-6.1868,-6.1215,-5.9759,-5.7725,-5.5089,-5.4336,-5.3658,-5.2929,-5.2929,-5.2929,-5.2929,-5.2477,-5.19,-5.1272,-5.0795,-4.9916,-4.8761,-4.8661,0.0,-4.7129,-4.6928,-4.6301,-4.5422,-4.4744,-4.4192,-4.3614,-4.2057,-4.148,-4.1329,0.0,0.0,0.0,0.0,0.0,0.0,0.0,-5.3393,-5.5023,-5.829,-5.84,-5.7703,-5.6418,-5.5868,-5.5611,0.0,0.0,0.0,0.0,0.0,0.0,0.0,0.0,0.0,-5.5023,-5.461,-5.4807,-5.5596,0.0,-5.5596,-5.5574,-5.517,-5.473,-5.4363,-5.4363,-5.4363,-5.4261,-5.3171,-5.2319,-5.1609,-5.0921,-5.0172,-4.9729,0.0,0.0,0.0,-4.9237,-4.8507,-4.8352,-4.9013,-5.0555,-5.2391,-5.3173,-5.431,-5.5947,-5.8691,-6.1198,-6.3511,-6.5793,-6.7936,-6.9662,-7.029,-6.8974,-6.6427,-6.2263,-5.8899,-5.5222,-4.9931,-4.7211,-4.5687,-4.5102,-4.5337,-4.6861,-5.0729,-5.2193,-5.4787,-6.0311,-6.0864,-6.1542,-6.3827,-6.3601,-6.34,-6.3676,-6.3174,-6.2722,-6.2421,-6.1893,-6.1341,-6.0763,-5.8328,-5.6219,-5.4612,-5.3733,-5.3181,-5.2929,-5.2929,-5.2929,-5.2929,-5.2377,-5.1825,-5.1272,-5.0695,-4.9967,-4.9163,-4.8586,-4.8033,-4.7481,-4.6627,-4.5773,-4.497,-4.4418,-4.3865,-4.3237,-4.2158,-4.158,-4.1175,0.0,0.0,0.0,0.0,0.0,0.0,-5.4987,-5.5757,-5.7629,-6.1851,-6.2805,-6.2108,-5.9575,-5.785,-5.6859,0.0,0.0,0.0,0.0,0.0,0.0,0.0,0.0,0.0,-5.4245,0.0,0.0,-5.5336,-5.5507,0.0,0.0,0.0,0.0,0.0,-5.3316,-5.3142,-5.2893,-5.1801,-5.1138,0.0,0.0,-5.0379,-5.0236,0.0,0.0,0.0,0.0,-5.0122,-4.9359,-4.9957,-5.1437,-5.3057,-5.3633,-5.4986,-5.7036,-5.9814,-6.2178,-6.4588,-6.7189,-6.9021,-7.029,-7.0769,-6.9303,-6.658,-6.2121,-5.8339,-5.4458,-4.9923,-4.7334,-4.594,-4.6077,-4.5873,-4.6589,-4.9599,-5.0397,-5.2578,-5.8353,-5.9257,-6.0512,-6.3726,-6.3751,-6.355,-6.3676,-6.3174,-6.2596,-6.2044,-6.1165,-6.0412,-5.9834,-5.7223,-5.539,-5.4587,-5.3607,-5.303,-5.2929,-5.2929,-5.2929,-5.2929,-5.2477,-5.1925,-5.1272,-5.082,-5.0243,-4.954,-4.8535,-4.8033,0.0,-4.6401,-4.5347,-4.4593,-4.4141,-4.3564,-4.2911,-4.2414,-4.1806,-4.12,0.0,0.0,0.0,0.0,0.0,0.0,-5.4252,-5.6381,-5.9501,-6.4347,-6.4383,-6.387,-6.3576,-6.2034,-5.9905,0.0,0.0,0.0,0.0,0.0,0.0,0.0,0.0,0.0,0.0,0.0,0.0,-5.458,-5.5268,0.0,0.0,0.0,0.0,0.0,0.0,-5.2893,-5.2183,-5.2065,0.0,0.0,0.0,0.0,0.0,0.0,0.0,0.0,0.0,-5.0531,-4.9013,-4.9911,-5.0124,-5.0194,-5.0974,-5.5184,-6.0246,-6.2292,-6.4316,-6.6458,-6.9015,-7.0251,-7.0829,-7.0889,-6.8974,-6.6041,-6.2032,-5.8065,-5.3929,-4.9233,-4.6792,-4.5608,-4.6007,-4.431,-4.4492,-4.9868,-4.9296,-5.0519,-5.7123,-5.8478,-5.9834,-6.2647,-6.2948,-6.3124,-6.3651,-6.3174,-6.2596,-6.2044,-6.0111,-5.8704,-5.8152,-5.7323,-5.6168,-5.4612,-5.3959,-5.3406,-5.2929,-5.2929,-5.2929,-5.2929,-5.2879,-5.2302,-5.1272,-5.1222,-5.0619,-4.9565,-4.8962,-4.8385,0.0,-4.723,-4.605,-4.4618,-4.4568,-4.3915,-4.2911,-4.2414,-4.1806,-4.12,0.0,0.0,0.0,0.0,0.0,0.0,-5.5537,-5.6675,-5.9391,-6.5264,-6.5742,-6.5925,-6.688,-6.5118,-6.1958,-5.7267,0.0,0.0,0.0,0.0,0.0,0.0,0.0,0.0,0.0,0.0,-5.5023,-5.5949,-5.6669,0.0,0.0,0.0,0.0,0.0,0.0,-5.3111,-5.275,-5.1925,0.0,0.0,0.0,0.0,0.0,0.0,0.0,0.0,0.0,0.0,-5.064,-5.0423,-5.0625,-5.082,-5.0153,-5.3016,-5.7196,-6.0071,-6.2572,-6.5123,-6.85,-7.0141,-7.0799,-7.044,-6.8046,-6.4874,-6.1313,-5.7124,-5.3117,-5.0035,-4.7877,-4.6589,-4.6727,-4.5601,-4.5358,-4.737,-4.682,-4.7718,-5.2287,-5.308,-5.4888,-5.9332,-6.0136,-6.109,-6.2998,-6.2672,-6.1818,-6.0588,-5.9382,-5.8177,-5.6947,-5.6344,-5.5591,-5.4587,-5.4009,-5.3457,-5.2929,-5.2929,-5.2929,-5.2929,-5.2251,-5.1699,-5.1247,-5.0569,-5.0017,-4.954,-4.8636,-4.8134,0.0,-4.6979,-4.5849,-4.4618,-4.4618,-4.394,-4.2961,-4.2791,-4.2082,-4.125,0.0,0.0,0.0,0.0,0.0,-5.3739,-5.6418,-5.7005,-5.9318,-6.5375,-6.6145,-6.6769,-6.8385,-6.6182,-6.2991,-5.9013,-5.6794,0.0,0.0,0.0,0.0,0.0,0.0,0.0,0.0,0.0,-5.5568,-5.6886,-5.7872,-5.8469,0.0,0.0,-5.6965,-5.5939,0.0,0.0,0.0,0.0,0.0,0.0,0.0,0.0,0.0,0.0,0.0,0.0,0.0,0.0,0.0,0.0,0.0,-5.0895,-4.9221,-5.0571,-5.3466,-5.7319,-6.0411,-6.3334,-6.69,-6.8914,-6.9991,-6.9752,-6.7178,-6.3917,-6.0805,-5.6496,-5.2576,-5.0391,-4.8239,-4.6874,-4.7432,-4.6205,-4.5281,-4.5982,-4.5385,-4.5917,-4.914,-4.9891,-5.18,-5.6369,-5.7374,-5.8679,-6.114,-6.1466,-6.0939,-5.9583,-5.8855,-5.7801,-5.6294,-5.5691,-5.5064,-5.4336,-5.3909,-5.3457,-5.2929,-5.2754,-5.2678,-5.2678,-5.1724,-5.1197,-5.0996,-5.0042,-4.9515,-4.9289,-4.8159,-4.7682,0.0,-4.6677,-4.5648,-4.4618,-4.4618,-4.394,-4.2961,-4.2785,-4.2133,-4.125,0.0,0.0,0.0,0.0,0.0,0.0,-5.6308,-5.7483,-5.9758,-6.4677,-6.5301,-6.5925,-6.754,-6.4787,-6.2844,-6.2827,-5.8454,0.0,0.0,0.0,0.0,0.0,0.0,0.0,0.0,0.0,-5.6086,-5.6879,-5.8438,-5.96,-6.0346,-5.9551,-5.8337,-5.6814,0.0,0.0,0.0,0.0,0.0,0.0,0.0,0.0,0.0,0.0,0.0,0.0,0.0,0.0,0.0,0.0,0.0,0.0,0.0,-4.8237,-5.0288,-5.488,-5.856,-6.1676,-6.4307,-6.649,-6.8166,-6.8854,-6.649,-6.3318,-6.0685,-5.6496,-5.2474,-4.9868,-4.7254,-4.6027,-4.7926,-4.5088,-4.3424,-4.6514,-4.5666,-4.5773,-4.9113,-5.0544,-5.2101,-5.4336,-5.5089,-5.6093,-5.7775,-5.9408,-6.0111,-5.9533,-5.8504,-5.7399,-5.6269,-5.5691,-5.4863,-5.3758,-5.3708,-5.3457,-5.2929,-5.2377,-5.2126,-5.2101,-5.1548,-5.0971,-5.0419,-4.9841,-4.9289,-4.8711,-4.7606,-4.7093,0.0,-4.6552,-4.5648,-4.4618,-4.4618,-4.394,-4.2911,-4.2414,-4.1806,-4.12,0.0,0.0,0.0,0.0,0.0,0.0,0.0,-5.4913,-5.6455,-6.1337,-6.1484,-6.2622,-6.6439,-6.4457,-6.2599,-6.2105,-5.8636,0.0,0.0,0.0,0.0,0.0,0.0,0.0,0.0,-5.5367,-5.6915,-5.7657,-5.9203,-6.0648,-6.1915,-6.003,-5.9205,-5.9164,-5.5973,-5.433,0.0,0.0,0.0,0.0,0.0,0.0,-5.3518,0.0,0.0,0.0,0.0,0.0,0.0,0.0,0.0,0.0,0.0,0.0,0.0,-5.0797,-5.4132,-5.7543,-5.9727,-6.1762,-6.3109,-6.2421,-6.1104,-5.9428,-5.7244,-5.4192,-5.1468,-5.0182,-4.7809,-4.627,-4.7352,-4.5753,-4.4759,-4.6409,-4.5933,-4.5808,-4.7151,-4.8636,-5.067,-5.3632,-5.7499,-5.9809,-5.9583,-5.9684,-5.9207,-5.7901,-5.7148,-5.6093,-5.4587,-5.4336,-5.4059,-5.3708,-5.3708,-5.3281,-5.2377,-5.2201,-5.1925,-5.1548,-5.0971,-5.0393,-4.9841,-4.9289,-4.8711,-4.8134,-4.7431,-4.6928,0.0,-4.5974,-4.507,-4.4016,-4.3639,-4.3062,-4.2414,-4.1806,-4.1254,-4.0752,0.0,0.0,0.0,0.0,0.0,0.0,0.0,-5.3959,-5.506,-5.8988,-5.9061,-6.0493,-6.5081,-6.3392,-6.2162,-6.2916,-6.0003,0.0,0.0,0.0,0.0,0.0,0.0,0.0,-5.3484,-5.5449,-5.7221,-5.8868,-6.041,-6.1937,-6.3428,-6.1646,-6.0504,-5.9761,-5.6786,-5.5144,0.0,0.0,0.0,0.0,0.0,0.0,-5.3518,0.0,0.0,0.0,0.0,0.0,0.0,0.0,0.0,0.0,0.0,0.0,0.0,0.0,-4.9633,-5.2009,-5.5938,-5.8291,-5.9518,-5.9189,-5.7827,-5.612,-5.4487,-5.1639,-4.9116,-4.8243,-4.6168,-4.4741,-4.5609,-4.4458,-4.3776,-4.5045,-4.495,-4.5135,-4.6446,-4.7857,-4.9992,-5.3306,-5.7499,-5.9784,-5.8855,-5.8855,-5.8303,-5.6821,-5.6219,-5.5265,-5.3783,-5.3507,-5.3306,-5.3105,-5.3105,-5.2779,-5.2126,-5.1674,-5.1197,-5.0645,-5.0268,-4.9715,-4.8937,-4.8611,-4.8134,-4.7581,-4.6828,-4.6326,0.0,-4.5397,-4.4618,-4.374,-4.3187,-4.269,-4.2112,-4.1304,-4.0802,-4.0475,0.0,0.0,0.0,0.0,0.0,0.0,0.0,-5.4363,-5.517,-5.7519,-5.7813,-5.9318,-6.3246,-6.1704,-6.1525,-6.4426,-6.2002,0.0,0.0,0.0,0.0,0.0,0.0,0.0,-5.3585,-5.504,-5.7223,-6.022,-6.1811,-6.3345,-6.4803,-6.4031,-6.2115,-5.9282,-5.7621,-5.599,-5.4465,0.0,0.0,0.0,-5.3585,-5.3585,0.0,0.0,0.0,0.0,0.0,0.0,0.0,0.0,0.0,0.0,0.0,0.0,0.0,0.0,0.0,0.0,0.0,-5.5364,-5.6721,-5.8022,-5.5995,-5.3405,-5.2243,-4.8969,0.0,-4.4789,-4.303,-4.2065,-4.343,-4.1946,-4.1174,-4.3101,-4.3233,-4.4041,-4.6753,-4.8309,-5.0343,-5.3507,-5.5842,-5.6947,-5.6269,-5.7173,-5.7298,-5.6168,-5.5591,-5.4787,-5.3708,-5.3155,-5.2628,-5.2126,-5.1975,-5.1925,-5.1925,-5.087,-5.0067,-4.9464,-4.9464,-4.8912,-4.7857,-4.7857,-4.7556,0.0,-4.5924,0.0,0.0,-4.4794,-4.4242,-4.3689,-4.3087,-4.2534,-4.2011,-4.0852,-4.045,-4.0375,0.0,0.0,0.0,0.0,0.0,0.0,0.0,0.0,0.0,0.0,-5.6161,-5.7005,-5.9171,-6.0015,-6.0409,0.0,0.0,0.0,0.0,0.0,0.0,0.0,0.0,0.0,-5.4329,-5.5784,-5.7448,-5.9295,-6.1983,-6.381,-6.4771,-6.4488,-6.345,-6.1677,-5.8892,-5.6196,-5.3788,-5.416,0.0,0.0,-5.4329,-5.4329,0.0,0.0,0.0,0.0,-5.3518,-5.2345,0.0,0.0,0.0,0.0,0.0,0.0,0.0,0.0,-4.4715,-4.422,-4.6425,0.0,-4.9871,-5.0607,-5.0268,-4.9461,0.0,-4.7072,-4.5635,-4.533,-4.3625,-4.2868,-4.5111,-4.3074,-4.2138,-4.5218,-4.4868,-4.492,-4.6853,-5.0645,-5.3808,-5.5415,-5.7575,-5.8202,-5.6394,-5.6445,-5.6143,-5.5039,-5.4411,-5.3808,-5.313,-5.2603,-5.2226,-5.2101,-5.087,-5.0193,-5.0193,-4.9916,-4.9289,-4.8309,-4.8309,-4.7958,-4.7305,-4.7305,-4.6778,-4.5849,-4.5598,0.0,-4.4192,-4.4041,-4.3664,-4.3062,-4.2108,-4.1656,-4.1404,-4.03,-3.9898,-3.9873,0.0,0.0,0.0,0.0,0.0,0.0,0.0,0.0,0.0,0.0,-5.5596,-5.6198,-5.7813,-5.9428,0.0,0.0,0.0,0.0,0.0,0.0,0.0,0.0,0.0,-5.3617,-5.3835,-5.5808,-5.7796,-5.9756,-6.2615,-6.4591,-6.5725,-6.5304,-6.3996,-6.1848,-5.8428,-5.5655,-5.3518,-5.3923,-5.4296,-5.4566,-5.4228,0.0,0.0,0.0,0.0,0.0,-5.3518,-5.2451,0.0,-5.0897,-4.9577,-4.7964,0.0,0.0,0.0,0.0,-4.3218,-4.194,-4.29,-4.4782,-4.6565,-4.7203,-4.6923,-4.6245,-4.5684,-4.4334,-4.3136,-4.287,-4.195,-4.1671,-4.3227,-4.2315,-4.2099,-4.4493,-4.4726,-4.5648,-4.8611,-5.2226,-5.5064,-5.642,-5.7876,-5.8102,-5.6369,-5.5993,-5.5365,-5.426,-5.3658,-5.3105,-5.2578,-5.2026,-5.1599,-5.1348,-4.9967,-4.9339,-4.959,-4.9088,-4.8385,-4.7556,-4.7782,-4.7506,-4.6753,-4.7029,-4.6527,-4.5472,-4.5196,0.0,-4.3765,-4.3263,-4.2861,-4.2539,-4.1404,-4.0899,-4.0799,-3.9998,-3.9697,-3.9697,0.0,0.0,0.0,0.0,0.0,0.0,0.0,0.0,0.0,0.0,0.0,0.0,0.0,0.0,0.0,0.0,0.0,0.0,0.0,0.0,0.0,0.0,-5.3956,-5.3402,-5.3395,-5.5329,-5.7635,-6.0307,-6.3115,-6.5159,-6.6474,-6.6406,-6.4613,-6.1298,-5.778,-5.5277,-5.3687,-5.3687,-5.4025,-5.4532,-5.3923,0.0,0.0,0.0,0.0,0.0,0.0,0.0,0.0,-5.1603,-5.0287,-4.8728,-4.8473,0.0,0.0,0.0,0.0,0.0,-4.1147,-4.3175,-4.5103,-4.5719,-4.4891,-4.3755,-4.3252,-4.1698,-4.0249,-3.9798,-3.9697,-3.9948,-4.0752,-4.1204,-4.1907,-4.3263,-4.4543,-4.6828,-5.0946,-5.3356,-5.5214,-5.662,-5.7298,-5.7173,-5.5942,-5.5415,-5.4712,-5.3658,-5.3105,-5.2603,-5.2126,-5.1498,-5.0896,-5.0318,-4.9213,-4.8837,-4.9213,-4.8259,-4.7531,-4.7004,-4.7456,-4.7179,-4.6326,-4.6702,-4.6326,-4.5321,0.0,0.0,-4.3589,-4.264,-4.2213,-4.2112,-4.0953,-4.0526,-4.045,-3.9898,-3.9697,-3.9697,0.0,0.0,0.0,0.0,0.0,0.0,0.0,0.0,0.0,0.0,0.0,0.0,0.0,0.0,0.0,0.0,0.0,0.0,0.0,0.0,0.0,-5.6494,-5.4298,-5.3882,-5.5561,-5.4612,-5.5588,-5.8667,-6.2335,-6.4352,-6.5019,-6.8064,-6.688,-6.211,-5.9607,-5.7002,-5.4431,-5.4431,-5.4499,-5.4566,-5.4465,0.0,0.0,0.0,0.0,0.0,0.0,0.0,0.0,-5.1871,-5.0461,-4.88,-4.8759,0.0,0.0,0.0,0.0,0.0,-4.0618,-4.1989,-4.3482,-4.383,-4.3278,-4.2517,-4.1987,-4.0798,-3.9798,-3.9722,-3.9697,-4.03,-4.2233,-4.2283,-4.2861,-4.5397,-4.7506,-4.9741,-5.2302,-5.416,-5.5365,-5.5616,-5.6143,-5.5842,-5.4235,-5.4009,-5.3708,-5.308,-5.2553,-5.2201,-5.2101,-5.1122,-5.0293,-4.9741,-4.8636,-4.7883,-4.7506,-4.733,-4.6979,-4.6426,-4.6527,-4.6476,-4.6301,-4.5924,-4.5372,-4.4719,0.0,-4.3614,-4.3062,-4.2464,-4.2213,-4.2112,-4.0953,-4.0526,-4.045,-3.9898,-3.9697,-3.9697,0.0,0.0,0.0,0.0,0.0,0.0,0.0,0.0,0.0,0.0,0.0,0.0,0.0,0.0,0.0,0.0,0.0,0.0,0.0,0.0,-5.8255,-5.8667,-5.5591,-5.4283,-5.5142,-5.5525,-5.6698,-5.8714,-6.3362,-6.5712,-6.589,-6.6785,-6.5256,-6.167,-5.8998,-5.663,-5.4566,-5.416,-5.4228,-5.4566,0.0,0.0,0.0,0.0,0.0,0.0,0.0,0.0,0.0,0.0,-4.9988,-4.8907,-4.7938,0.0,0.0,0.0,0.0,0.0,-3.9728,-4.04,-4.1398,-4.2111,-4.2969,-4.339,-4.2571,-4.1684,-4.1028,-4.1028,-4.0777,-4.1153,-4.3087,-4.3714,-4.507,-4.8435,-5.0092,-5.1523,-5.313,-5.4009,-5.4712,-5.5315,-5.534,-5.5013,-5.4235,-5.3884,-5.3482,-5.298,-5.2427,-5.1975,-5.1674,-5.087,-5.0017,-4.9163,-4.8335,-4.7657,-4.7093,-4.6828,-4.6552,-4.6301,-4.6301,-4.615,-4.5849,-4.5598,-4.502,-4.4166,0.0,-4.3313,-4.2539,-4.1932,-4.153,-4.1178,-4.0375,-4.0074,-4.0049,-3.9798,-3.9697,-3.9697,0.0,0.0,0.0,0.0,0.0,0.0,0.0,0.0,0.0,0.0,0.0,0.0,0.0,0.0,0.0,0.0,0.0,0.0,0.0,-5.9077,-5.9181,-5.9977,-5.6684,-5.5091,-5.5602,-5.6347,-5.759,-5.9253,-6.3869,-6.6659,-6.7688,-6.6115,-6.4208,-6.1941,-5.893,-5.6562,-5.4803,-5.4262,-5.4126,-5.4296,0.0,0.0,0.0,0.0,0.0,0.0,0.0,0.0,0.0,0.0,0.0,0.0,0.0,0.0,0.0,-4.2874,-4.136,-4.0103,-3.9466,-3.9702,-4.0249,-4.0924,-4.2409,-4.3614,-4.3413,-4.2836,-4.2539,-4.3067,-4.2685,-4.2735,-4.4141,-4.5422,-4.7355,-5.0745,-5.195,-5.2854,-5.3959,-5.411,-5.4411,-5.529,-5.4787,-5.4361,-5.4361,-5.3858,-5.3306,-5.2779,-5.2226,-5.1674,-5.1096,-5.0419,-4.959,-4.8611,-4.8033,-4.7481,-4.6954,-4.6527,-4.6301,-4.6301,-4.6301,-4.6024,-4.5472,-4.5347,-4.4744,-4.379,-4.3539,-4.2936,-4.2162,-4.143,-4.0902,-4.045,-3.9898,-3.9697,-3.9697,-3.9697,-3.9697,-3.9697,0.0,0.0,0.0,0.0,0.0,0.0,0.0,0.0,0.0,0.0,0.0,0.0,0.0,0.0,0.0,0.0,0.0,0.0,0.0,-5.8835,-5.8351,-5.918,-5.6843,-5.6678,-5.9161,-5.6111,-5.6191,-5.9765,-6.2167,-6.5638,-6.9926,-6.8361,-6.6474,-6.4241,-6.1197,-5.8287,-5.5649,-5.5546,-5.4803,-5.3619,-5.4262,0.0,0.0,0.0,0.0,0.0,0.0,0.0,0.0,0.0,0.0,0.0,0.0,0.0,-4.6234,-4.4662,-4.297,-4.1406,-4.0685,-4.085,-4.1075,-4.0676,-4.0701,-4.1455,-4.394,-4.3689,-4.3514,-4.5573,-4.5573,-4.5372,-4.6024,-4.7456,-4.9138,-5.0971,-5.2578,-5.3984,-5.5114,-5.5265,-5.529,-5.539,-5.4436,-5.3758,-5.3758,-5.3281,-5.2754,-5.2201,-5.1649,-5.1096,-5.0519,-4.9464,-4.8611,-4.7983,-4.7456,-4.6928,-4.6376,-4.6326,-4.6301,-4.6301,-4.6301,-4.6024,-4.5472,-4.4945,-4.4367,-4.374,-4.2766,-4.2288,-4.2112,-4.1003,-4.0551,-4.045,-3.9898,-3.9697,-3.9697,-3.9697,-3.9697,-3.9697,0.0,0.0,0.0,0.0,0.0,0.0,0.0,0.0,0.0,0.0,0.0,0.0,0.0,0.0,0.0,0.0,0.0,0.0,0.0,-5.8616,-5.8566,-5.9794,-5.7293,-5.6686,-5.8371,-5.7266,-5.8144,-6.125,-6.3725,-6.5964,-6.775,-6.608,-6.3895,-6.135,-5.9544,-5.7611,-5.5681,-5.5681,-5.5108,-5.4194,-5.4465,-5.416,0.0,0.0,0.0,0.0,0.0,0.0,0.0,0.0,-4.9691,-4.8882,-4.8031,-4.7007,-4.5646,-4.3316,-4.1664,-4.0446,-3.9714,-3.9949,-4.035,-4.0475,-4.0777,-4.1756,-4.4518,-4.5095,-4.5472,-4.6979,-4.7431,-4.7581,-4.7807,-4.9213,-5.0645,-5.1624,-5.2854,-5.3984,-5.4762,-5.4888,-5.4888,-5.4888,-5.4185,-5.3708,-5.3708,-5.2929,-5.2327,-5.2126,-5.1272,-5.0494,-4.9941,-4.9188,-4.836,-4.7456,-4.6903,-4.6527,-4.6301,-4.5623,-4.5447,-4.5799,-4.5799,-4.5497,-4.4945,-4.4367,-4.3815,-4.3237,-4.2539,-4.1957,-4.158,-4.0827,-4.03,-3.9973,-3.9772,-3.9697,-3.9697,-3.9697,-3.9697,-3.9697,0.0,0.0,0.0,0.0,0.0,0.0,0.0,0.0,0.0,0.0,0.0,0.0,0.0,0.0,0.0,0.0,0.0,0.0,-5.8848,-5.8168,-5.8159,-5.9186,-5.7027,-5.6255,-5.7285,-5.7746,-5.9024,-6.1164,-6.4273,-6.562,-6.5269,-6.3832,-6.2058,-6.0175,-5.8703,-5.7551,-5.6731,-5.6494,-5.5716,-5.46,-5.46,-5.416,0.0,0.0,0.0,0.0,0.0,0.0,0.0,0.0,-4.9082,-4.8564,-4.7617,-4.6752,-4.5725,-4.3519,-4.1737,-4.0343,-3.9634,-3.9443,-3.9572,-4.0124,-4.0927,-4.2384,-4.5321,-4.6175,-4.6878,-4.8837,-4.8987,-4.8812,-4.9012,-4.9841,-5.0795,-5.1699,-5.2879,-5.3909,-5.4486,-5.4411,-5.4285,-5.4285,-5.3808,-5.3381,-5.3206,-5.2528,-5.195,-5.1599,-5.0845,-5.0092,-4.9364,-4.8661,-4.7832,-4.6903,-4.615,-4.5773,-4.5773,-4.502,-4.4819,-4.5221,-4.5045,-4.4744,-4.4342,-4.379,-4.3237,-4.274,-4.2011,-4.143,-4.0974,-4.0475,-4.0023,-3.9697,-3.9697,-3.9697,-3.9697,-3.9697,-3.9697,-3.9697,0.0,0.0,0.0,0.0,0.0,0.0,0.0,0.0,-5.5996,-5.6761,0.0,0.0,0.0,0.0,0.0,0.0,0.0,0.0,-5.8073,-5.7318,-5.6892,-5.6886,-5.5655,-5.5425,-5.6344,-5.723,-5.8136,-5.9129,-6.3108,-6.4398,-6.3025,-6.2228,-6.1827,-6.1636,-5.9334,-5.8534,-5.8893,-5.8186,-5.6596,-5.46,-5.46,-5.416,-5.3416,0.0,0.0,0.0,0.0,0.0,0.0,0.0,-4.9593,-4.9066,-4.949,-4.8524,-4.7007,-4.597,-4.3772,-4.1542,-4.0862,-3.9823,-3.9045,-3.9546,-4.0927,-4.3092,-4.6376,-4.6728,-4.7431,-5.1322,-5.0343,-4.8962,-4.9515,-4.9163,-4.9339,-5.1021,-5.2628,-5.3884,-5.4461,-5.4059,-5.3683,-5.3683,-5.3231,-5.2703,-5.2151,-5.2101,-5.1624,-5.0494,-5.0393,-4.9916,-4.8812,-4.7732,-4.6878,-4.6301,-4.5196,-4.4618,-4.4618,-4.4618,-4.4618,-4.4618,-4.4041,-4.379,-4.379,-4.3212,-4.2715,-4.2162,-4.0978,-4.0526,-4.0475,-3.9923,-3.9697,-3.9697,-3.9697,-3.9697,-3.9697,-3.9697,-3.9697,-3.9697,0.0,0.0,0.0,0.0,0.0,0.0,0.0,0.0,-5.5381,-5.6643,-5.6878,0.0,0.0,0.0,0.0,0.0,0.0,0.0,-5.6545,-5.5205,-5.471,-5.5258,-5.4432,-5.3849,-5.3652,-5.4699,-5.6766,-5.9787,-6.1459,-6.1104,-5.8858,-5.8999,-5.7997,-5.6233,-5.6776,-5.6081,-5.4476,-5.5501,-5.4974,-5.3551,-5.429,-5.416,-5.3416,0.0,0.0,0.0,0.0,0.0,0.0,0.0,0.0,0.0,-4.743,-4.6831,-4.5936,-4.3968,-4.2017,-4.036,-3.9637,-3.8853,-3.8492,-3.9446,-4.1229,-4.3514,-4.6451,-4.7606,-4.8912,-5.2051,-5.1548,-5.0594,-5.0745,-5.0645,-5.0695,-5.1197,-5.2,-5.2779,-5.3331,-5.3256,-5.3155,-5.3155,-5.2678,-5.2277,-5.2126,-5.1373,-5.0619,-4.9891,-4.949,-4.8611,-4.7129,-4.6728,-4.6125,-4.5146,-4.4418,-4.4242,-4.4618,-4.384,-4.3664,-4.4041,-4.3087,-4.3062,-4.3765,-4.2836,-4.2363,-4.2162,-4.0978,-4.0526,-4.0475,-3.9923,-3.9697,-3.9697,-3.9697,-3.9697,-3.9697,-3.9697,-3.9697,-3.9697,0.0,0.0,0.0,0.0,0.0,0.0,0.0,0.0,-5.5378,-5.6258,-5.6133,-5.619,0.0,0.0,0.0,0.0,0.0,0.0,-5.5414,-5.4429,-5.3822,-5.3685,-5.3274,-5.3083,-5.3204,-5.4283,-5.5832,-5.7752,-5.9219,-5.871,-5.6346,-5.7142,-5.6813,-5.555,-5.7151,-5.6652,-5.464,-5.5377,-5.4659,-5.3016,-5.3394,-5.3548,-5.3416,0.0,0.0,0.0,0.0,0.0,0.0,0.0,0.0,0.0,-4.7177,-4.6309,-4.5444,-4.4229,-4.2296,-4.0546,-4.0387,-3.9861,-3.9598,-4.0482,-4.2333,-4.4769,-4.7757,-4.9289,-5.0645,-5.2528,-5.1875,-5.1071,-5.1523,-5.1046,-5.082,-5.1498,-5.1699,-5.2051,-5.2829,-5.2729,-5.2603,-5.2603,-5.2302,-5.1925,-5.1473,-5.082,-5.0092,-4.9314,-4.8962,-4.8058,-4.6401,-4.61,-4.5472,-4.4342,-4.3765,-4.3639,-4.3966,-4.3087,-4.2811,-4.3137,-4.2258,-4.2183,-4.2785,-4.1907,-4.1505,-4.1455,-4.0576,-4.0199,-4.0174,-3.9823,-3.9697,-3.9697,-3.9697,-3.9697,-3.9697,-3.9697,-3.9697,-3.9697,0.0,0.0,-5.2672,-5.345,0.0,0.0,0.0,0.0,0.0,0.0,-5.5074,-5.5145,0.0,0.0,0.0,0.0,0.0,0.0,0.0,-5.454,-5.383,-5.2365,-5.2369,-5.3039,-5.4188,-5.5215,-5.5075,-5.3862,-5.6496,-5.6825,-5.5029,-5.6316,-5.7243,-5.7793,-5.885,-5.8573,-5.7153,-5.628,-5.463,-5.2589,-5.197,-5.235,-5.3146,-5.237,0.0,0.0,0.0,0.0,0.0,0.0,0.0,0.0,-4.8014,-4.6583,-4.528,-4.5582,-4.3639,-4.1454,-4.2001,-4.1645,-4.1352,-4.2059,-4.3991,-4.6602,-4.9496,-5.0955,-5.1904,-5.2454,-5.138,-5.0655,-5.163,-5.0713,-5.0318,-5.18,-5.1599,-5.1624,-5.2628,-5.2352,-5.2026,-5.2026,-5.1975,-5.1523,-5.0444,-5.0293,-4.9816,-4.8711,-4.8586,-4.7857,-4.625,-4.5623,-4.4819,-4.3689,-4.3162,-4.2886,-4.2836,-4.2389,-4.2137,-4.2137,-4.153,-4.12,-4.12,-4.0752,-4.0501,-4.04,-3.9898,-3.9697,-3.9697,-3.9697,-3.9697,-3.9697,-3.9697,-3.9697,-3.9697,-3.9697,-3.9697,-3.9697,0.0,0.0,-5.3484,-5.4228,0.0,0.0,0.0,0.0,0.0,0.0,0.0,0.0,0.0,0.0,0.0,0.0,0.0,0.0,0.0,-5.4016,-5.3241,-5.2332,-5.3163,-5.3656,-5.3674,-5.4116,-5.3254,-5.1033,-5.3743,-5.4551,-5.3653,-5.497,-5.539,-5.5058,-5.5329,-5.4389,-5.2535,-5.1649,-5.0632,-4.9764,-5.0461,-5.0978,-5.128,-5.0551,-5.0293,0.0,0.0,0.0,0.0,0.0,0.0,0.0,-4.7065,-4.6027,-4.4785,-4.3137,-4.1821,-4.0719,-3.9766,-3.9491,-3.9864,-4.1755,-4.5204,-4.8144,-4.8258,-4.8811,-4.9438,-4.9806,-4.9974,-5.0044,-4.9782,-5.0709,-5.1548,-5.1473,-5.1348,-5.1373,-5.1599,-5.1523,-5.1448,-5.1448,-5.1046,-5.0519,-4.9841,-4.9389,-4.8661,-4.7581,-4.7079,-4.6301,-4.5045,-4.4468,-4.3664,-4.259,-4.2439,-4.2133,-4.1706,-4.158,-4.1505,0.0,-4.0953,-4.0701,-4.0701,-4.0576,-4.0275,-3.9873,-3.9747,-3.9697,-3.9697,-3.9697,-3.9697,-3.9697,-3.9697,-3.9697,-3.9697,-3.9697,-3.9697,-3.9697,0.0,0.0,0.0,0.0,0.0,0.0,0.0,0.0,0.0,0.0,0.0,0.0,0.0,0.0,0.0,0.0,-5.5174,0.0,0.0,0.0,-5.3626,-5.2907,-5.4112,-5.426,-5.3021,-5.3492,-5.214,-4.8875,-5.0276,-5.1391,-5.2276,-5.3593,-5.4221,-5.4221,-5.4551,-5.3234,-5.069,-5.0213,-4.9163,-4.7929,-4.8483,-4.9074,-4.9541,-4.8464,-4.8427,-4.8755,-4.7684,0.0,0.0,0.0,0.0,0.0,0.0,0.0,-4.396,-4.3068,-4.2016,-4.1054,-4.0972,-4.1174,-4.1909,-4.3773,-4.5918,-4.747,-4.7047,-4.6643,-4.6173,-4.5836,-4.7632,-4.9199,-4.8843,-5.0185,-5.1297,-5.1272,-5.082,-5.067,-5.1197,-5.1046,-5.087,-5.087,-5.0594,-5.0092,-4.9289,-4.8686,-4.7908,-4.6828,-4.6225,-4.5422,-4.4292,-4.3714,-4.3011,-4.2238,-4.1907,-4.163,-4.1275,-4.1025,-4.0953,-4.0874,-4.0375,-4.0124,-4.0124,-4.0124,-3.9973,-3.9697,-3.9697,-3.9697,-3.9697,-3.9697,-3.9697,-3.9697,-3.9697,-3.9697,-3.9697,-3.9697,-3.9697,-3.9697,0.0,0.0,0.0,0.0,0.0,0.0,0.0,0.0,0.0,0.0,0.0,0.0,0.0,0.0,-5.2318,0.0,0.0,0.0,0.0,0.0,0.0,-5.372,-5.4871,-5.4586,-5.2557,-5.3093,-5.1386,-4.7211,-4.7326,-4.8475,-5.0537,-5.201,-5.306,-5.3664,-5.4242,-5.2845,-5.0016,-4.9657,-4.8399,-4.663,-4.663,-4.7105,-4.7627,-4.6315,-4.6435,-4.7078,-4.5758,-4.6355,-4.7733,-4.7838,0.0,0.0,0.0,0.0,-4.3395,-4.3581,-4.2598,-4.1615,-4.2473,-4.3354,-4.4378,-4.5847,-4.6283,-4.6159,-4.5548,-4.443,-4.3093,-4.167,-4.4568,-4.7468,-4.765,-4.8901,-5.004,-5.077,-5.0067,-4.9816,-5.0845,-5.0419,-5.0017,-5.0117,-5.0042,-4.959,-4.8586,-4.7983,-4.723,-4.625,-4.5573,-4.4744,-4.3714,-4.3137,-4.259,-4.1961,-4.143,-4.11,-4.1,-4.0601,-4.0375,-4.0375,-3.9923,-3.9697,-3.9697,-3.9697,-3.9697,-3.9697,-3.9697,-3.9697,-3.9697,-3.9697,-3.9697,-3.9697,-3.9697,-3.9697,-3.9697,-3.9697,-3.9697,-3.9672,0.0,0.0,0.0,0.0,0.0,0.0,0.0,0.0,0.0,0.0,-5.4735,-5.4465,0.0,0.0,0.0,-5.2389,-5.2601,-5.266,-5.2555,0.0,0.0,-5.4397,-5.4634,-5.4053,-5.2525,-5.2613,-5.063,-4.6501,-4.7124,-4.7441,-4.761,-4.9681,-5.0954,-5.1432,-5.1657,-5.087,-4.9329,-4.7578,-4.6316,-4.5522,-4.5522,-4.5401,-4.5192,-4.434,-4.4756,-4.5659,-4.4834,-4.5557,-4.7056,-4.7699,-4.7496,0.0,0.0,0.0,-4.3966,-4.2655,-4.1954,-4.1443,-4.0303,-4.1659,-4.3567,-4.4679,-4.5715,-4.5763,-4.3008,-4.221,-4.1262,-3.8547,-4.0646,-4.3333,-4.4293,-4.616,-4.7839,-4.8971,-4.8987,-4.9113,-4.9741,-4.8912,-4.8435,-4.8937,-4.8535,-4.8008,-4.7405,-4.6853,-4.6276,-4.5648,-4.4618,-4.3765,-4.3112,-4.2615,-4.1806,-4.0777,-4.0676,-4.04,-3.9923,-3.9848,-3.9798,-3.9798,-3.9722,-3.9697,-3.9697,-3.9697,-3.9697,-3.9697,-3.9697,-3.9697,-3.9697,-3.9697,-3.9697,-3.9697,-3.9697,-3.9697,-3.9697,-3.9697,-3.9697,-3.9622,0.0,0.0,0.0,0.0,0.0,0.0,0.0,0.0,0.0,0.0,0.0,-5.4329,0.0,0.0,0.0,-5.1138,-5.1519,-5.1957,-5.2344,-5.2364,-5.2819,-5.3957,-5.3408,-5.2547,-5.141,-5.085,-4.8806,-4.5273,-4.4549,-4.492,-4.625,-4.6384,-4.8037,-5.0823,-4.9882,-4.9144,-4.864,-4.6591,-4.5364,-4.4676,-4.3958,-4.3786,-4.3814,-4.2386,-4.2709,-4.3765,-4.2714,-4.3681,-4.552,-4.5854,-4.6059,-4.6177,-4.6177,0.0,0.0,0.0,-4.1584,-4.1243,-4.1576,-4.2452,-4.3696,-4.5542,-4.5523,-4.4613,-4.2903,-4.1729,-4.0299,-3.8074,-3.7996,-3.9048,-4.1362,-4.3332,-4.489,-4.5644,-4.6408,-4.7076,-4.7507,-4.7753,-4.8008,-4.8259,-4.8058,-4.7581,-4.6753,-4.6175,-4.5497,-4.4618,-4.3514,-4.2816,-4.259,-4.1706,-4.1028,-4.0526,-4.0224,-3.9948,-3.9697,-3.9697,-3.9697,-3.9697,-3.9371,-3.9396,-3.9697,-3.9371,-3.9396,-3.9697,-3.9697,-3.9697,-3.9697,-3.9697,-3.9521,-3.922,-3.922,-3.922,-3.922,-3.922,-3.9421,-3.9622,0.0,0.0,0.0,0.0,0.0,0.0,0.0,0.0,0.0,0.0,0.0,0.0,0.0,0.0,0.0,0.0,-5.0206,-5.0666,-5.1218,-5.1425,-5.1878,-5.2603,-5.1988,-5.1092,-4.9967,-4.9111,-4.7194,-4.4164,-4.293,-4.3497,-4.5674,-4.4388,-4.6162,-5.0329,-4.8874,-4.8072,-4.7718,-4.6194,-4.5185,-4.4436,-4.298,-4.2462,-4.2393,-4.1145,-4.1286,-4.2081,-4.1248,-4.2199,-4.3802,-4.3999,-4.4522,-4.511,-4.5312,-4.4397,0.0,0.0,0.0,-4.0484,-4.2174,-4.2736,-4.3314,-4.5293,-4.5025,-4.3911,-4.272,-4.1481,-3.9988,-3.7869,-3.6445,-3.6282,-3.8341,-4.027,-4.1882,-4.2704,-4.3729,-4.4654,-4.5521,-4.6339,-4.696,-4.7444,-4.738,-4.6928,-4.5974,-4.5246,-4.4493,-4.3664,-4.2559,-4.1882,-4.181,-4.0953,-4.045,-4.03,-3.9898,-3.9697,-3.9697,-3.9697,-3.9697,-3.9697,-3.9145,-3.917,-3.9672,-3.912,-3.917,-3.9697,-3.9697,-3.9697,-3.9697,-3.9546,-3.9245,-3.8894,-3.8718,-3.8642,-3.8668,-3.8818,-3.912,-3.9421,0.0,0.0,0.0,0.0,0.0,0.0,0.0,0.0,0.0,0.0,0.0,0.0,-5.2403,-5.1691,-5.0642,-4.9187,-4.8474,-4.8098,-4.8132,-4.8775,-4.952,-5.0236,-5.0657,0.0,-4.845,-4.8059,-4.6425,-4.3429,-4.3989,-4.4733,-4.5561,-4.5069,-4.6444,-4.9255,-4.9074,-4.8019,-4.6483,-4.6326,-4.5873,-4.5065,-4.3189,-4.1662,-4.0606,-4.1115,-4.114,-4.0876,-4.143,-4.1828,-4.2206,-4.2944,-4.3294,-4.3548,-4.4238,-4.3943,-4.3139,0.0,0.0,0.0,-4.0187,-4.1017,-4.1655,-4.2378,-4.384,-4.4311,-4.1353,-4.1037,-4.0499,-3.7055,-3.629,-3.6013,-3.5119,-3.6807,-3.9024,-4.1094,-4.146,-4.228,-4.4492,-4.426,-4.4508,-4.6195,-4.5924,-4.5372,-4.4769,-4.374,-4.3087,-4.3037,-4.2007,-4.11,-4.0626,-4.0551,-4.0275,-3.9747,-3.9697,-3.9697,-3.9697,-3.9697,-3.9697,-3.9697,-3.9145,-3.917,-3.9672,-3.912,-3.917,-3.9697,-3.9697,-3.9697,-3.9647,-3.912,-3.8944,-3.8818,-3.8266,-3.804,-3.8115,-3.8668,-3.8944,-3.8969,0.0,0.0,0.0,0.0,0.0,0.0,0.0,0.0,0.0,0.0,0.0,0.0,0.0,-4.9918,-4.936,-4.8828,-4.8673,-4.8612,-4.8612,-4.8849,-4.9323,-5.0067,-4.9444,-4.861,-4.7681,-4.6708,-4.5481,-4.3997,-4.305,-4.3925,-4.6366,-4.3841,-4.4019,-4.6441,-4.6383,-4.6311,-4.6146,-4.4944,-4.4282,-4.39,-4.1921,-4.1324,-4.1542,-4.0044,-3.9896,-4.0485,-4.0304,-4.0628,-4.1227,-4.148,-4.1979,-4.249,-4.278,-4.236,-4.1492,-3.9756,-3.8839,-3.8482,-3.899,-3.9619,-4.0465,-4.1972,-4.286,-4.3174,-4.2442,-4.1693,-4.0627,-3.8966,-3.7492,-3.6166,-3.5088,-3.544,-3.6269,-3.7308,-3.8207,-3.9107,-4.0164,-4.0887,-4.1891,-4.3566,-4.3576,-4.3468,-4.3526,-4.3212,-4.2685,-4.1982,-4.1229,-4.0727,-4.0526,-4.0174,-3.9898,-3.9697,-3.9697,-3.9697,-3.9697,-3.9697,-3.9697,-3.9697,-3.8743,-3.8617,-3.9145,-3.8567,-3.8417,-3.8642,-3.8994,-3.9371,-3.9622,-3.8693,-3.8316,-3.8266,-3.7688,-3.7487,-3.7538,-3.8115,-3.8542,-3.8919,0.0,0.0,0.0,-5.447,0.0,-5.2005,-5.1683,-5.062,-4.9852,-4.9852,0.0,0.0,0.0,0.0,-4.835,-4.8,-4.7861,-4.79,-4.821,-4.8511,-4.8951,-4.9695,-4.9048,-4.8317,-4.7649,-4.6461,-4.5354,-4.4317,-4.3078,-4.3762,-4.6205,-4.3767,-4.3356,-4.4518,-4.3993,-4.4383,-4.5438,-4.4051,-4.3357,-4.2991,-4.0579,-4.0373,-4.1302,-3.9764,-3.9839,-4.0696,-4.0487,-4.0468,-4.0581,-4.0366,-4.0704,-4.1275,-4.1497,-4.1085,-4.0166,-3.8175,-3.7819,-3.8063,-3.8063,-3.8542,-3.9559,-4.1572,-4.201,-4.2212,-4.3113,-4.232,-4.1198,-4.0415,-3.8742,-3.7175,-3.634,-3.5739,-3.5197,-3.4825,-3.5469,-3.6348,-3.738,-3.8354,-3.9736,-4.1745,-4.1983,-4.2166,-4.2699,-4.2534,-4.2057,-4.1075,-4.0551,0.0,-4.0249,-3.9898,-3.9697,-3.9697,-3.9697,-3.9697,-3.9697,-3.9697,-3.9697,-3.9672,-3.8542,-3.8316,-3.8894,-3.809,-3.7839,-3.8015,-3.8216,-3.8617,-3.9044,-3.8115,-3.7739,-3.7688,-3.7136,-3.6958,-3.6985,-3.7538,-3.809,-3.8617,-5.7324,-5.5807,-5.4313,-5.3652,-5.2333,-5.1009,-5.004,-4.9233,-4.8759,-4.8759,0.0,0.0,0.0,0.0,0.0,-4.6619,-4.5861,-4.5846,-4.6768,-4.744,-4.8179,-4.8954,-4.9427,-4.9224,-4.8258,-4.7345,-4.6054,-4.4287,-4.4287,-4.4461,-4.4892,-4.4984,-4.4601,-4.3783,-4.2075,-4.2385,-4.4174,-4.3585,-4.3089,-4.2362,-3.932,-3.868,-3.9671,-4.0418,-4.0949,-4.1406,-4.2073,-4.1474,-4.0307,-3.9679,-3.956,-3.9854,-4.0439,-4.0161,-3.9347,-3.7797,-3.7375,-3.7404,0.0,0.0,0.0,-4.0786,-4.1302,-4.1683,-4.2952,-4.2797,-4.2088,-4.109,-3.9929,-3.8923,-3.853,-3.7471,-3.5969,-3.3808,-3.3442,-3.4147,-3.629,-3.6918,-3.8217,-4.0928,-4.127,-4.1528,-4.2068,-4.1576,-4.1025,-4.0526,-3.9998,-3.9697,-3.9697,-3.9697,-3.9697,-3.9697,-3.9697,-3.9697,-3.9672,-3.9672,-3.9672,-3.9647,-3.8517,-3.8266,-3.8844,-3.7688,-3.7462,-3.7939,-3.7412,-3.7487,-3.7914,-3.7387,-3.7161,-3.7136,-3.6631,-3.6405,-3.648,-3.6985,-3.7513,-3.8065,-5.5334,-5.4016,-5.2643,-5.1971,-5.0781,-4.9809,-4.9502,-4.8447,-4.7722,0.0,0.0,0.0,-4.6509,-4.6416,-4.6559,-4.6863,-4.6775,-4.6818,-4.706,-4.6837,-4.7076,-4.7966,-4.8439,-4.8095,-4.6817,-4.6843,-4.5839,-4.3559,-4.3559,-4.3864,-4.447,-4.356,-4.2857,-4.2263,-4.0872,-3.9871,-3.9212,-3.9902,-4.0368,-4.0442,-3.8683,-3.8643,-3.9535,-3.796,-3.8257,-3.947,-3.9722,-4.0064,-4.0367,-4.0187,-4.0491,-4.071,-3.941,-3.8564,-3.7775,-3.6424,-3.6686,-3.7315,-3.6866,0.0,0.0,0.0,0.0,0.0,-4.0313,-4.0749,-4.1068,-4.1234,-4.065,-3.9628,-3.814,-3.7895,-3.7192,-3.5002,-3.4554,-3.437,-3.3977,-3.4233,-3.5187,-3.7097,-3.803,-3.8862,-3.9753,-4.036,-4.0526,0.0,-3.9772,-3.9697,-3.9697,-3.9697,-3.9697,-3.9697,-3.9697,-3.9496,-3.9145,-3.9094,-3.8894,-3.8467,-3.7764,-3.7487,-3.7638,-3.7337,-3.7061,-3.6883,-3.7086,-3.7036,-3.6857,-3.6707,-3.6883,-3.7136,-3.6631,-3.6405,-3.648,-3.6985,-3.7287,-3.7487,-5.4461,-5.3107,-5.1588,-5.0883,-5.0391,-5.0002,-4.9703,-4.9015,-4.8536,0.0,0.0,0.0,-4.5873,-4.6111,-4.6511,-4.6856,-4.6691,-4.675,-4.7153,-4.6589,-4.6582,-4.7425,-4.8099,-4.7959,-4.686,-4.7,-4.6075,-4.4137,-4.3086,-4.2688,-4.2806,-4.1808,-4.0721,-3.9481,-3.8983,-3.7785,-3.6204,-3.6852,-3.764,-3.8256,-3.7042,-3.7534,-3.8861,-3.728,-3.7717,-3.926,-3.9785,-4.0371,-4.086,-4.0815,-4.1055,-4.0973,-3.8392,-3.8093,-3.8242,-3.6118,-3.6806,-3.8003,-3.6806,-3.7135,-3.7883,-3.8182,0.0,0.0,-3.9559,-3.9727,-3.9964,-4.1171,-4.0726,-3.9901,-3.9299,-3.9239,-3.8481,-3.6105,-3.61,-3.5646,-3.3719,-3.3305,-3.3749,-3.535,-3.6834,-3.803,-3.8847,-4.0065,-4.0526,-3.9747,-3.9697,-3.9697,-3.9697,-3.9697,-3.9697,-3.9697,-3.9471,-3.9195,-3.8919,-3.8617,-3.8341,-3.799,-3.7437,-3.7186,-3.7186,-3.6983,-3.6707,-3.643,-3.6757,-3.6707,-3.6405,-3.6405,-3.6732,-3.7136,-3.6631,-3.6556,-3.6757,-3.6857,-3.6985,-3.7262,0.0,-5.2647,-5.105,-5.0495,-5.0823,-5.1003,-5.0495,-5.0285,-5.0226,0.0,-4.9254,-4.8087,-4.698,-4.7189,-4.7304,-4.6994,-4.6251,-4.6112,-4.6951,-4.6362,-4.6307,-4.6993,-4.7904,-4.8099,-4.7486,-4.7245,-4.6479,-4.5065,-4.269,-4.1295,-4.0787,-4.0069,-3.8526,-3.6442,-3.6902,-3.6145,-3.455,-3.46,-3.5203,-3.6053,-3.5102,-3.6018,-3.7952,-3.735,-3.8111,-3.9648,-4.059,-4.1105,-4.129,-4.1368,-4.1294,-4.0666,-3.7734,-3.8302,-3.9499,-3.6567,-3.7375,-3.8841,-3.7165,-3.7584,-3.8631,-3.917,-3.8452,0.0,-3.9679,-3.926,-3.902,-4.0786,-4.0343,-3.9934,-4.099,-4.0841,-3.9771,-3.7235,-3.7639,-3.7376,-3.4645,-3.3417,-3.3394,-3.4773,-3.6709,-3.8109,-3.8568,-4.0128,-4.0752,-3.9772,-3.9697,-3.9672,-3.9597,-3.9597,-3.9572,-3.9496,-3.9019,-3.8793,-3.8743,-3.8165,-3.7889,-3.7814,-3.7337,-3.7086,-3.7086,-3.6631,-3.6405,-3.6405,-3.6405,-3.6405,-3.6405,-3.6405,-3.6707,-3.7036,-3.6606,-3.6707,-3.7036,-3.6581,-3.6732,-3.7161,-5.2465,-5.1743,-5.1349,-5.1738,-5.1498,-5.1349,-5.1768,-5.0853,-5.0375,-5.0913,-5.0331,-4.9972,-5.0196,-4.8955,-4.8265,-4.8755,-4.7189,-4.6037,-4.5708,-4.5041,-4.4855,-4.526,-4.6022,-4.6103,-4.5401,-4.5915,-4.5357,-4.3678,-4.1854,-4.0903,-4.0787,-3.9255,-3.7548,-3.578,-3.587,-3.4977,-3.342,-3.3872,-3.4173,-3.4399,-3.4625,-3.5768,-3.7166,-3.5333,-3.5608,-3.696,-3.6822,-3.788,-3.9566,-4.0961,-4.0666,-3.9679,-3.905,-3.8452,-3.7853,-3.7225,-3.7404,-3.7823,-3.7973,-3.8601,-3.911,-3.8691,-3.8811,0.0,-3.8153,-3.8631,-3.932,-3.9709,-4.0033,-4.0182,-3.9985,-4.0653,-4.059,-3.8597,-3.8767,-3.7692,-3.3762,-3.3285,-3.3331,-3.3291,-3.5077,-3.6521,-3.7008,-3.8851,-3.9923,-3.9722,-3.9697,-3.9496,-3.9095,-3.9044,-3.8818,-3.8341,-3.8241,-3.7965,-3.7513,-3.7387,-3.7111,-3.6732,-3.6631,-3.6581,-3.6556,-3.6455,-3.6405,-3.6405,-3.6405,-3.6405,-3.6405,-3.6405,-3.648,-3.6556,-3.6455,-3.648,-3.6556,-3.6455,-3.648,-3.6581,-5.1468,-5.1029,-5.0883,-5.1588,-5.0858,-5.0632,-5.1924,-5.0656,-4.9753,-5.0385,-5.0551,-5.053,-5.0315,-4.9643,-4.8985,-4.8356,-4.707,-4.6022,-4.5334,-4.4676,-4.4258,-4.4073,-4.4894,-4.5233,-4.5057,-4.5264,-4.5033,-4.4317,-4.1353,-3.9769,-3.9458,-3.74,-3.5545,-3.3927,-3.4478,-3.3956,-3.2692,-3.3244,-3.3796,-3.4299,-3.4299,-3.4977,-3.5805,-3.4424,-3.4578,-3.5561,-3.5946,-3.7428,-3.9401,-4.0324,-4.049,-4.0119,-3.8583,-3.8356,-3.8275,-3.6416,-3.6568,-3.723,-3.695,-3.7325,-3.7841,-3.8033,-3.8084,0.0,0.0,-3.8153,-3.8601,-3.9254,-3.914,-3.902,-3.945,-4.0002,-4.006,-3.8883,-3.9101,-3.8421,-3.5604,-3.5191,-3.4862,-3.4043,-3.5359,-3.659,-3.7265,-3.8329,-3.9192,-3.9645,-3.9697,-3.9446,-3.8944,-3.8919,-3.8592,-3.8015,-3.7739,-3.7462,-3.7186,-3.691,-3.6681,-3.6405,-3.6405,-3.6405,-3.6405,-3.6405,-3.6405,-3.6405,-3.6405,-3.6405,-3.6405,-3.6405,-3.6405,-3.6405,-3.6405,-3.6581,-3.6782,-3.6505,-3.6405,-3.6455,-5.0568,-5.0288,-5.0196,-5.0853,-5.0007,-4.9758,-5.1408,-5.0009,-4.8945,-4.9499,-5.0206,-5.0342,-4.9522,-4.9673,-4.9337,-4.8149,-4.6957,-4.6202,-4.5903,-4.4885,-4.3958,-4.314,-4.399,-4.4586,-4.4747,-4.4608,-4.4578,-4.4736,-4.0813,-3.856,-3.7951,-3.5522,-3.3671,-3.2416,-3.3219,-3.3194,-3.2566,-3.2918,-3.3646,-3.4525,-3.4073,-3.4349,-3.4951,-3.4198,-3.4248,-3.481,-3.5809,-3.729,-3.8894,-3.9282,-4.0012,-4.0316,-3.8051,-3.8218,-3.8778,-3.6081,-3.6105,-3.6874,-3.627,-3.638,-3.6908,-3.765,-3.7682,-3.7655,0.0,0.0,0.0,-3.905,-3.8452,-3.8093,-3.905,-3.932,-3.9238,-3.8743,-3.9286,-3.9337,-3.8058,-3.7673,-3.6932,-3.54,-3.5924,-3.6809,-3.7996,-3.8287,-3.8766,-3.9671,-3.9597,-3.9295,-3.8793,-3.8718,-3.8391,-3.7713,-3.7262,-3.7036,-3.7036,-3.6631,-3.6405,-3.6405,-3.6405,-3.6405,-3.6405,-3.6405,-3.6405,-3.6405,-3.6405,-3.6405,-3.6405,-3.6405,-3.6405,-3.6405,-3.6405,-3.6681,-3.696,-3.6581,-3.6405,-3.648,-4.9359,-4.9449,-4.9583,-5.0196,-4.9714,-4.947,-5.0277,-4.916,-4.8362,-4.8917,-4.9186,-4.9454,-4.9811,-4.8981,-4.901,-5.0535,-4.7981,-4.677,-4.7878,-4.5663,-4.3748,-4.256,-4.3148,-4.3238,-4.274,-4.3238,-4.3238,-4.274,-3.9731,-3.7965,-3.7234,-3.4536,-3.3169,-3.2968,-3.2566,-3.2893,-3.3671,-3.3244,-3.342,-3.3997,-3.3922,-3.4826,-3.6053,-3.4474,-3.4248,-3.471,-3.4878,-3.5068,-3.5572,-3.7469,-3.8187,-3.8394,-3.9026,-3.8308,-3.7455,-3.8593,-3.762,-3.6631,-3.851,-3.8831,-3.8462,-3.8021,-3.9024,-3.9629,-3.7465,0.0,-3.9768,-3.8721,0.0,-3.905,-3.8601,0.0,0.0,-3.8549,-3.9496,-4.0094,-3.9453,-3.9758,-3.9016,-3.6081,-3.539,-3.5954,-3.7885,-3.8561,-3.9067,-3.9672,-3.9245,-3.8718,-3.814,-3.809,-3.7638,-3.6631,-3.6531,-3.6505,-3.6505,-3.643,-3.6405,-3.6405,-3.6405,-3.6405,-3.6405,-3.6405,-3.6405,-3.6405,-3.6405,-3.6405,-3.6405,-3.6405,-3.6405,-3.6405,-3.6405,-3.6455,-3.648,-3.643,-3.6405,-3.6405,-4.8087,-4.8446,-4.8716,-4.8593,-4.7938,-4.7563,-4.7705,-4.7078,-4.6971,-4.8076,-4.7917,-4.8246,-4.961,-4.8395,-4.783,-4.8509,-4.7434,-4.6616,-4.6501,-4.5836,-4.5065,-4.4107,-4.3958,-4.3958,-4.4047,-4.321,-4.2821,-4.301,-3.9389,-3.7481,-3.7123,-3.438,-3.3111,-3.3111,-3.2817,-3.2968,-3.342,-3.352,-3.3872,-3.4374,-3.4374,-3.4977,-3.5705,-3.4048,-3.3571,-3.3784,-3.3751,-3.4163,-3.4812,-3.5746,-3.6661,-3.7354,-3.686,-3.6654,-3.6609,-3.6705,-3.6243,-3.6035,-3.7358,-3.7116,-3.6656,-3.7364,-3.7786,-3.802,-3.7949,-3.8951,-3.9768,-3.9589,0.0,0.0,0.0,0.0,0.0,0.0,-3.9469,-3.9735,-3.9526,-3.9151,-3.8477,-3.7289,-3.6134,0.0,-3.626,-3.7536,-3.8341,-3.8241,-3.8316,-3.799,-3.7111,-3.7362,-3.7161,-3.643,-3.6405,-3.6405,-3.6405,-3.6405,-3.6405,-3.6405,-3.6405,-3.6405,-3.6405,-3.6405,-3.6405,-3.6405,-3.6405,-3.6405,-3.6405,-3.6405,-3.6405,-3.6405,-3.6405,-3.6405,-3.6405,-3.6405,-3.6405,-3.6405,-4.7309,-4.7698,-4.7793,-4.6964,-4.6185,-4.5497,-4.502,-4.4602,-4.4896,-4.6425,-4.5939,-4.6251,-4.8259,-4.7379,-4.6915,-4.7676,-4.7091,-4.6449,-4.595,-4.5797,-4.5306,-4.427,-4.4452,-4.4556,-4.4496,-4.3269,-4.2701,-4.2851,-3.9036,-3.7191,-3.7083,-3.438,-3.3169,-3.3294,-3.3187,-3.3169,-3.3345,-3.3897,-3.4274,-3.45,-3.463,-3.4776,-3.4705,-3.3696,-3.3119,-3.2867,-3.3061,-3.3496,-3.4079,-3.4392,-3.5349,0.0,-3.5219,-3.5372,-3.5805,-3.5328,-3.5127,-3.5303,-3.6355,-3.5881,-3.5456,-3.6541,-3.6631,-3.6783,-3.8043,-3.8946,-3.9736,-4.0539,-4.0038,0.0,0.0,0.0,-3.905,-3.9379,0.0,-3.9433,-3.9679,-3.8848,-3.8214,-3.8206,-3.728,0.0,0.0,-3.6924,-3.7613,-3.7211,0.0,-3.7211,-3.6455,-3.6782,-3.6832,-3.643,-3.6405,-3.6405,-3.6405,-3.6405,-3.6405,-3.6405,-3.6405,-3.6405,-3.6405,-3.6405,-3.6405,-3.6405,-3.6405,-3.6405,-3.6405,-3.6405,-3.6405,-3.6405,-3.6405,-3.6405,-3.6405,-3.6405,-3.6405,-3.6405,-4.7309,-4.7309,-4.6961,-4.5702,-4.4837,-4.3891,-4.2551,-4.1835,-4.2057,-4.3696,-4.3022,-4.3174,-4.5422,-4.5706,-4.6971,-4.997,-4.7514,-4.6397,-4.7733,-4.5581,-4.3443,-4.1606,-4.3909,-4.4377,-4.253,-4.3,-4.2701,-4.1482,-3.8609,-3.7151,-3.7042,-3.4338,0.0,0.0,-3.3319,-3.337,-3.3897,-3.4449,-3.4399,-3.3972,-3.45,-3.4098,-3.3219,-3.3696,-3.3194,-3.2315,-3.2867,-3.2759,0.0,-3.3539,-3.4293,0.0,0.0,0.0,0.0,-3.6053,-3.5177,-3.4424,0.0,0.0,-3.6229,-3.568,-3.6322,-3.7086,-3.7195,-3.8564,-4.008,-4.1135,-4.1871,-4.1901,-4.0606,-4.0337,-4.0127,-3.9529,-3.9373,0.0,0.0,-3.9792,-3.9136,-3.857,-3.8613,-3.8277,0.0,-3.7211,-3.7211,0.0,-3.6757,0.0,-3.6405,-3.643,-3.643,-3.6405,-3.6405,-3.6405,-3.6405,-3.6405,-3.6405,-3.6405,-3.6405,-3.6405,-3.6405,-3.6405,-3.6405,-3.6405,-3.6405,-3.6405,-3.6405,-3.6405,-3.6405,-3.6405,-3.6405,-3.6405,-3.6405,-3.6405,-3.6405,-3.6405,-4.6211,-4.6032,-4.5644,-4.4349,-4.3954,-4.359,-4.2945,-4.2325,-4.2735,-4.5146,-4.4819,-4.5472,-4.8435,-4.8165,-4.8141,-4.9234,-4.8126,-4.7098,-4.649,-4.5413,-4.4725,-4.4604,-4.4661,-4.4565,-4.4317,-4.3658,-4.2701,-4.1422,-3.8581,-3.7151,-3.7042,-3.4338,0.0,0.0,-3.3495,-3.3395,-3.3947,-3.45,-3.4399,-3.3922,-3.4098,-3.4173,-3.4098,-3.3571,-3.3119,-3.2817,-3.3061,-3.2692,0.0,-3.2667,-3.3169,-3.3596,-3.3395,-3.3928,-3.4801,-3.5177,-3.5127,0.0,0.0,0.0,-3.5855,-3.6031,0.0,0.0,0.0,-3.8124,-3.9281,-4.0039,-4.0712,-4.1115,-4.1091,-4.1055,-4.0816,-4.0187,-4.0068,-3.9679,0.0,-3.7883,-3.7618,-3.792,-3.7083,-3.6248,-3.5596,0.0,0.0,0.0,-3.4851,0.0,0.0,-3.5429,-3.5805,-3.5805,-3.6182,-3.6405,-3.6405,-3.6405,-3.6405,-3.6405,-3.6405,-3.6405,-3.6405,-3.6405,-3.6405,-3.6405,-3.6405,-3.6405,-3.6405,-3.6405,-3.6405,-3.6405,-3.6405,-3.6405,-3.6405,-3.6405,-3.6405,-3.6405,-4.4972,-4.4349,-4.3787,-4.2978,-4.2636,-4.2475,-4.2528,-4.2652,-4.3539,-4.5723,-4.605,-4.7104,-4.9816,-4.9314,-4.8937,-4.9314,-4.8406,-4.7095,-4.5421,-4.5129,-4.4802,-4.4263,-4.4755,-4.4791,-4.4293,-4.4072,-4.3269,-4.1782,-3.915,-3.7786,-3.7703,-3.4727,-3.3847,-3.4675,-3.3771,-3.3445,-3.3646,-3.4399,-3.4299,-3.3596,-3.3596,-3.3822,-3.4048,-3.3119,-3.3018,-3.3319,0.0,-3.239,-3.1913,-3.1913,-3.229,-3.2692,-3.234,-3.3093,-3.4148,-3.4148,-3.4399,-3.4776,-3.5328,-3.5504,0.0,-3.5755,-3.6055,0.0,-3.7033,0.0,-3.8781,0.0,-4.0539,-4.129,-4.143,-4.1811,-4.1773,-4.0905,-4.0756,-4.0038,0.0,-3.7225,-3.7055,-3.7641,-3.6631,-3.5716,-3.5296,-3.4925,0.0,0.0,0.0,0.0,0.0,0.0,-3.5282,-3.5483,-3.6081,-3.6405,-3.6405,-3.6405,-3.6405,-3.6405,-3.6405,-3.6405,-3.6405,-3.6405,-3.6405,-3.6405,-3.6405,-3.6405,-3.6405,-3.6405,-3.6405,-3.6405,-3.6405,-3.6405,-3.6405,-3.6405,-3.6531,-3.6707,-4.3629,-4.2377,-4.1544,-4.1518,-4.0952,-4.0676,-4.12,-4.271,-4.4192,-4.5422,-4.6527,-4.7857,-4.954,-4.9213,-4.9289,-5.0293,-4.8435,-4.6502,-4.4769,-4.4797,-4.3625,-4.0864,-4.4141,-4.4886,-4.2553,-4.431,-4.4366,-4.25,-4.0161,-3.8974,-3.8833,-3.5452,-3.4173,-3.465,-3.4098,-3.3571,-3.3144,-3.4134,-3.3984,-3.3075,-3.305,-3.3075,-3.3093,-3.2466,-3.2918,-3.3796,-3.2616,-3.1863,-3.1386,-3.1386,-3.1763,-3.2215,-3.219,-3.2591,-3.3111,-3.3111,-3.3111,-3.3194,-3.3721,-3.4605,-3.5307,-3.4831,0.0,0.0,0.0,0.0,-3.8541,0.0,0.0,0.0,0.0,-4.2338,-4.2634,-4.1458,-4.1265,-4.0576,-3.8661,-3.7793,-3.7469,-3.767,-3.7147,-3.6605,-3.6234,-3.5244,-3.4148,0.0,0.0,-3.3061,-3.3043,0.0,-3.4906,-3.5433,-3.6056,-3.6405,-3.6405,-3.6405,-3.6405,-3.6405,-3.6405,-3.6405,-3.6405,-3.6405,-3.6405,-3.6405,-3.6405,-3.6405,-3.6405,-3.6405,-3.6405,-3.6405,-3.6405,-3.643,-3.6455,-3.6455,-3.6782,-3.7186,-4.2413,-4.1357,-4.0669,-4.0236,-4.0056,-4.0224,-4.115,-4.2384,-4.4041,-4.6401,-4.7682,-4.9138,-5.1222,-5.0971,-5.0419,-4.9866,-4.8912,-4.7481,-4.5397,-4.4535,-4.3595,-4.2599,-4.3068,-4.3554,-4.3874,-4.437,-4.4363,-4.3808,-4.1098,-3.9474,-3.8876,-3.5496,-3.3972,-3.4098,-3.3545,-3.3219,-3.3075,-3.2841,-3.2602,-3.2312,-3.1858,-3.273,-3.4148,0.0,-3.3169,-3.4299,-3.2767,-3.1863,-3.1386,-3.1386,-3.1763,-3.2139,-3.1738,-3.229,-3.3111,-3.3111,-3.3111,-3.3119,-3.3244,-3.3796,-3.4474,-3.5132,-3.5508,-3.5977,0.0,0.0,0.0,0.0,0.0,0.0,0.0,0.0,-3.9515,-3.9479,-3.9291,-3.899,-3.8452,-3.7434,-3.6966,-3.7613,-3.6067,-3.5029,-3.5103,-3.3751,-3.2566,-3.1888,0.0,0.0,-3.2416,0.0,0.0,-3.4881,-3.5855,-3.6405,-3.6405,-3.6405,-3.6405,-3.6405,-3.6405,-3.6405,-3.6405,-3.6405,-3.6405,-3.6405,-3.6405,-3.6405,-3.6405,-3.6405,-3.6405,-3.6405,-3.6405,-3.6656,-3.696,-3.696,-3.7061,-3.7236,-4.1361,-4.0548,-3.9981,-3.9549,-3.9285,-3.9905,-4.2088,-4.2936,-4.4242,-4.6803,-4.8083,-4.9238,-5.0519,-5.0795,-5.0645,-5.0017,-4.8987,-4.7657,-4.5949,-4.4794,-4.3726,-4.2833,-4.2762,-4.2877,-4.31,-4.3925,-4.4095,-4.3478,-4.1581,-4.0111,-3.8918,-3.5989,-3.4354,-3.3872,-3.3319,-3.3111,-3.305,-3.2115,-3.1862,-3.2029,-3.1437,-3.1982,0.0,-3.2179,-3.2591,-3.347,-3.2265,-3.1813,-3.1712,-3.1461,-3.1763,-3.2215,-3.2139,-3.2566,-3.3111,-3.3111,-3.3111,-3.3111,-3.3111,-3.347,-3.4098,-3.4931,-3.5332,-3.5734,-3.6634,-3.6634,-3.6546,0.0,0.0,0.0,0.0,0.0,-3.86,-3.8753,-3.8148,-3.7836,-3.8322,-3.7524,-3.6996,-3.7275,-3.5993,-3.4905,-3.435,-3.2803,-3.1738,-3.1411,-3.1612,0.0,0.0,0.0,0.0,-3.4374,-3.5655,-3.6405,-3.6405,-3.6656,-3.6656,-3.6405,-3.6405,-3.6405,-3.6405,-3.6405,-3.6405,-3.6405,-3.6405,-3.6405,-3.6405,-3.6405,-3.6405,-3.643,-3.6681,-3.7061,-3.7563,-3.7839,-3.7914,-3.7965,-4.0336,-3.9892,-3.9481,-3.8983,-3.8686,-3.9733,-4.3234,-4.3946,-4.4768,-4.6711,-4.8234,-4.9038,-4.8887,-4.9665,-5.0142,-4.9992,-4.8661,-4.733,-4.6175,-4.5171,-4.389,-4.2288,-4.2679,-4.2524,-4.1547,-4.311,-4.345,-4.2424,-4.1582,-4.0365,-3.8748,-3.6391,-3.4753,-3.3771,-3.3294,-3.2939,-3.2525,-3.1267,-3.1035,-3.1479,-3.1099,-3.0998,-3.1121,-3.138,-3.1788,-3.2139,-3.1587,-3.1738,-3.2139,-3.1662,-3.1863,-3.2416,-3.2817,-3.3061,-3.3111,-3.3111,-3.3111,-3.3111,-3.3111,-3.342,-3.3922,-3.4474,-3.4931,-3.5433,-3.6107,-3.583,-3.5433,-3.5583,-3.6296,-3.6717,0.0,0.0,-3.838,-3.8285,-3.751,-3.7237,-3.8163,-3.7874,-3.7316,-3.6782,-3.6235,0.0,-3.366,-3.2337,-3.1537,-3.1411,-3.1913,0.0,0.0,0.0,0.0,-3.3922,-3.5429,-3.638,-3.6505,0.0,-3.6933,-3.6505,-3.643,-3.6405,-3.6405,-3.6405,-3.6405,-3.6405,-3.6405,-3.6405,-3.6405,-3.6405,-3.6455,-3.6581,-3.7086,-3.7638,-3.8191,-3.8693,-3.8919,-3.8969,-3.9032,-3.934,-3.9515,-3.803,-3.8286,-3.9733,-4.299,-4.4673,-4.5717,-4.6012,-4.8813,-5.0494,-4.9565,-4.9213,-4.8686,-4.7782,-4.7431,-4.6602,-4.502,-4.4744,-4.389,-4.2288,-4.1821,-4.1824,-4.2229,-4.1688,-4.1855,-4.2656,-4.0123,-3.846,-3.7651,0.0,-3.3864,-3.3262,-3.3162,-3.1977,-2.9966,-2.8773,-2.8279,-2.8484,-2.9349,-3.0074,-3.0644,-3.1653,-3.2139,-3.2139,-3.1587,-3.1738,-3.219,-3.2089,-3.2441,-3.2867,-3.2491,-3.2692,-3.3111,-3.3111,-3.3111,-3.3111,-3.3111,-3.3144,-3.3345,-3.3897,-3.4123,-3.4449,-3.5408,-3.5207,-3.5127,-3.6031,-3.531,-3.4584,-3.4939,0.0,0.0,-3.5412,-3.6671,-3.7708,-3.7895,-3.8102,-3.7752,-3.6431,-3.5349,-3.3927,-3.2,-3.2416,-3.239,-3.1461,-3.1913,-3.1964,0.0,0.0,0.0,0.0,-3.5052,0.0,0.0,0.0,-3.6732,-3.7036,-3.6631,-3.6405,-3.6405,-3.6405,-3.6405,-3.6405,-3.6405,-3.6405,-3.6405,-3.6405,-3.6681,-3.7086,-3.7638,-3.8216,-3.8793,-3.8894,-3.917,-3.9546,-3.8874,-3.8345,-3.8289,-3.8689,-3.8142,-3.8893,-4.2541,-4.4608,-4.5822,-4.5828,-4.7758,-4.8812,-4.7983,-4.8159,-4.8109,-4.7581,-4.7029,-4.6351,-4.5547,-4.4694,-4.384,-4.3037,-4.1932,-4.1471,-4.1826,-4.0801,-4.0558,-4.1221,-3.9158,-3.7779,0.0,0.0,-3.3896,-3.3068,-3.2185,-3.1416,-3.0628,-2.825,0.0,-2.8084,-2.8736,-2.8947,-2.9105,-3.0748,-3.134,-3.129,-3.1381,-3.1738,-3.2215,-3.2215,-3.2591,-3.3061,-3.2742,-3.2842,-3.3111,-3.3111,-3.3111,-3.3111,-3.3111,-3.3111,-3.3219,-3.3771,-3.3897,-3.4123,-3.4881,-3.47,-3.4525,-3.5353,-3.4876,-3.45,-3.5006,-3.4666,0.0,0.0,0.0,-3.6789,-3.7344,-3.7272,-3.6646,-3.5113,-3.4428,-3.3437,-3.1978,-3.2591,-3.2491,-3.1085,-3.1738,-3.1863,-3.1035,0.0,0.0,0.0,0.0,0.0,0.0,0.0,0.0,-3.6807,-3.6531,-3.6405,-3.6405,-3.6405,-3.6405,-3.6405,-3.6405,-3.6405,-3.643,-3.6732,-3.7335,-3.809,-3.8341,-3.8793,-3.9295,-3.9295,-3.9471,-3.9697,-3.867,-3.7479,-3.7211,-3.8931,-3.8253,-3.863,-4.2149,-4.464,-4.6173,-4.6162,-4.6983,-4.7405,-4.6728,-4.7205,-4.7531,-4.7405,-4.6502,-4.5899,-4.5773,-4.4543,-4.3689,-4.3463,-4.2108,-4.1225,-4.1125,-4.0,-3.9346,-3.9242,-3.8096,0.0,0.0,0.0,0.0,-3.3,-3.1168,0.0,0.0,0.0,-2.7096,-2.7869,-2.8126,-2.7926,-2.7632,-2.9809,-3.0528,-3.0544,-3.1422,-3.2014,-3.239,-3.239,-3.2692,-3.3111,-3.3111,-3.3111,-3.3111,-3.3111,-3.3111,-3.3111,-3.3111,-3.3111,-3.3194,-3.3621,-3.3721,-3.3872,-3.4424,-3.4123,-3.3947,-3.468,-3.4856,-3.4956,-3.5257,-3.465,0.0,0.0,0.0,0.0,-3.6647,-3.6605,-3.5789,-3.386,-3.3792,-3.332,-3.182,-3.2215,-3.2014,-3.0708,-3.1612,-3.1788,-3.0834,-3.2641,-3.3269,0.0,0.0,-3.5558,-3.5683,0.0,-3.6908,-3.6581,-3.6455,-3.6405,-3.6405,-3.6405,-3.6405,-3.6405,-3.6405,-3.648,-3.6631,-3.7136,-3.7965,-3.8919,-3.9045,-3.932,-3.9697,-3.9697,-3.9697,-3.9697,-3.7508,-3.7255,-3.7213,-3.7191,-3.8657,-4.0329,-4.2082,-4.5597,-4.788,-4.7424,-4.8494,-4.8962,-4.7883,-4.6979,-4.625,-4.5748,-4.5146,-4.4568,-4.4066,-4.389,-4.3363,-4.2414,-4.1681,-4.105,-4.0601,-3.8995,-3.796,-3.743,-3.6311,-3.5198,0.0,0.0,0.0,0.0,0.0,0.0,0.0,-2.6914,-2.5868,-2.6033,-2.677,-2.6953,-2.7066,-2.9604,-3.0496,-3.0639,-3.2332,-3.2943,-3.2993,-3.2993,-3.3043,-3.3111,-3.3111,-3.3111,-3.3111,-3.3111,-3.3111,-3.3111,-3.3111,-3.3111,-3.3093,-3.3144,-3.3144,-3.3294,-3.3847,-3.3545,-3.3596,-3.5107,-3.5433,-3.5282,-3.4876,-3.468,-3.465,0.0,0.0,0.0,0.0,-3.682,-3.6552,-3.3436,-3.3978,-3.3416,-3.0324,-3.0532,-3.0783,-3.0633,-3.1612,-3.1938,-3.1361,-3.2491,-3.2867,-3.224,0.0,-3.578,-3.6329,-3.643,-3.6707,-3.7111,-3.6656,-3.6405,-3.6405,-3.6405,-3.6405,-3.6405,-3.6405,-3.6681,-3.7161,-3.7688,-3.8291,-3.8969,-3.9421,-3.9647,-3.9697,-3.9697,-3.9697,-3.9697,-3.753,-3.681,-3.7468,-4.0386,-4.0412,-4.1584,-4.5978,-4.7074,-4.7566,-4.8208,-4.8764,-4.856,-4.7104,-4.6276,-4.5598,-4.502,-4.4443,-4.4041,-4.3815,-4.3187,-4.2665,-4.2238,-4.1304,-4.0752,-4.0526,-3.9195,-3.7867,-3.6477,0.0,0.0,0.0,0.0,0.0,0.0,0.0,-2.805,-2.8215,-2.6174,-2.5488,-2.5732,-2.649,-2.6496,-2.6371,-2.8984,-2.9746,-2.9589,-3.1804,-3.2566,-3.2616,-3.3011,-3.3111,-3.3111,-3.3111,-3.3111,-3.3111,-3.3111,-3.3111,-3.3111,-3.3111,-3.3111,-3.3111,-3.3111,-3.3111,-3.3187,-3.3345,-3.3244,-3.3345,-3.4349,-3.5031,-3.5533,-3.568,-3.5429,-3.5282,0.0,0.0,0.0,0.0,-3.559,-3.4994,-3.2346,-3.2459,-3.2092,-3.0446,-3.0482,-3.1035,-3.2014,-3.1562,-3.1286,-3.1386,-3.2139,0.0,-3.2215,0.0,-3.5152,-3.5378,-3.6078,-3.6505,-3.6732,-3.6505,-3.6405,-3.6405,-3.6405,-3.6405,-3.643,-3.6757,-3.7161,-3.7713,-3.8291,-3.8868,-3.9396,-3.9622,-3.9697,-3.9697,-3.9697,-3.9697,-3.9697,-3.735,-3.7016,-3.8106,-4.1828,-4.1943,-4.3151,-4.7629,-4.7621,-4.7288,-4.8008,-4.8058,-4.7606,-4.6426,-4.5522,-4.4819,-4.4418,-4.374,-4.3313,-4.3313,-4.2434,-4.1831,-4.1735,-4.0927,-4.0215,-3.9646,-3.8731,-3.7229,-3.5109,-3.4333,0.0,0.0,0.0,0.0,0.0,-2.7779,-2.7285,-2.7531,-2.5944,-2.5449,-2.5732,-2.6067,-2.6026,-2.5935,-2.8032,-2.8808,-2.9105,-3.1153,-3.2144,-3.2541,-3.2943,-3.3111,-3.3136,-3.3269,-3.3219,-3.3119,-3.3269,-3.3319,-3.3319,-3.3319,-3.3319,-3.3319,-3.3319,-3.2909,-3.2568,-3.2568,-3.2283,-3.2215,-3.2876,-3.3728,-3.453,-3.5089,-3.4846,-3.4725,-3.5137,0.0,0.0,0.0,-3.4234,-3.3653,-3.1847,-3.1788,-3.1612,-3.0909,-3.0708,-3.1235,-3.2717,-3.1461,-3.0909,0.0,0.0,0.0,0.0,0.0,0.0,0.0,-3.5881,-3.6405,-3.6405,-3.6405,-3.6405,-3.6405,-3.6581,-3.6656,-3.6681,-3.7186,-3.7739,-3.8291,-3.8693,-3.9195,-3.9697,-3.9697,-3.9697,-3.9697,-3.9697,-3.9697,-3.9697,-3.6601,-3.8044,-3.9348,-3.983,-4.2836,-4.5171,-4.5236,-4.6753,-4.7494,-4.6476,-4.6351,-4.6326,-4.6301,-4.4819,-4.3815,-4.3815,-4.2811,-4.2238,-4.2238,-4.1656,-4.105,0.0,0.0,-3.9593,-3.7607,-3.7006,-3.5497,-3.3041,0.0,0.0,-2.9994,0.0,-2.9418,-2.9372,-2.8121,-2.7579,-2.7505,-2.6235,-2.5693,-2.5654,-2.5302,-2.5332,-2.5781,-2.661,-2.7991,-2.9533,-3.0754,-3.1996,-3.3111,-3.3111,-3.3111,-3.3169,-3.3721,-3.352,-3.3194,-3.3721,-3.3897,-3.3897,-3.3897,-3.3897,-3.3897,-3.3897,-3.2543,-3.1223,-3.1223,-3.0305,-2.9733,-3.0721,-3.1375,-3.187,-3.2291,-3.2331,-3.2331,-3.2331,0.0,0.0,0.0,-3.3197,-3.321,-3.2297,-3.2717,-3.2616,-3.1486,-3.0909,-3.106,-3.2139,0.0,0.0,0.0,0.0,0.0,-3.224,-3.4329,0.0,-3.5483,-3.6081,-3.6405,-3.6405,-3.6405,-3.6405,-3.643,-3.6935,-3.7186,-3.7211,-3.7764,-3.8316,-3.8919,-3.8919,-3.9195,-3.9697,-3.9697,-3.9697,-3.9697,-3.9697,-3.9697,-3.9697,-3.9069,-4.0206,-4.1438,-4.168,-4.3628,-4.5622,-4.6855,-4.691,-4.6702,-4.6351,-4.5321,-4.4593,-4.4593,-4.4116,-4.3489,-4.2735,-4.2414,-4.2062,0.0,-4.1078,-4.0701,-4.0526,-4.0149,-3.964,-3.9025,-3.7863,-3.6227,-3.4078,0.0,0.0,0.0,-2.8268,-2.8093,-2.7737,-2.706,-2.6792,-2.6723,-2.6006,-2.5693,-2.5674,-2.5586,-2.5605,-2.582,-2.696,-2.7734,-2.8448,-3.044,-3.1444,-3.1909,-3.281,-3.3111,-3.3169,-3.3721,-3.3771,-3.3539,-3.2865,-3.3251,-3.372,-3.2914,-3.2599,-3.2852,-3.4125,-3.2378,-3.0721,-3.1922,-3.1204,-3.0398,-3.083,-3.1278,-3.1699,-3.2191,-3.228,-3.228,-3.228,-3.228,0.0,-3.1538,0.0,-3.2434,-3.1129,-3.1875,-3.219,-3.1461,-3.1235,0.0,0.0,0.0,0.0,0.0,0.0,0.0,0.0,-3.4731,0.0,-3.5508,-3.6081,-3.6405,-3.6405,-3.6405,-3.6405,-3.643,-3.6983,-3.7186,-3.7236,-3.8191,-3.8693,-3.8944,-3.927,-3.9546,-3.9697,-3.9697,-3.9697,-3.9697,-3.9697,-3.9697,-3.9697,-4.0578,-4.1904,-4.3154,-4.3036,-4.4451,-4.5942,-4.6845,-4.6426,-4.5849,-4.5422,-4.4443,-4.3714,-4.3514,-4.3313,0.0,-4.1466,-4.1139,-4.0794,-4.0198,-3.9656,-3.9649,-4.0147,-3.9873,-3.9413,-3.8921,-3.7423,0.0,-3.4333,-3.259,-3.0891,-2.9198,-2.9033,-2.8502,-2.7764,-2.7815,-2.7288,-2.6417,-2.6386,-2.6159,-2.5693,-2.5693,-2.5693,-2.5791,-2.6572,-2.7173,-2.7814,-2.9326,-3.0239,-3.0945,-3.2269,-3.269,-3.2832,-3.3845,-3.4198,-3.4015,-3.3077,-3.3444,-3.402,-3.3277,-3.2637,-3.2666,-3.4558,-3.2254,-2.9707,-3.0422,-2.9905,-2.9381,-2.9622,-2.9878,-3.0218,-3.0739,-3.0824,-3.0824,-3.0824,-3.0675,-3.0442,-3.0161,0.0,-3.0742,-3.0115,0.0,0.0,0.0,-3.2062,-3.2616,0.0,0.0,0.0,0.0,0.0,0.0,-3.3897,-3.4931,0.0,-3.5855,-3.6182,-3.6405,-3.6405,-3.6631,-3.6732,-3.6757,-3.7462,-3.7814,-3.7864,-3.8768,-3.917,-3.922,-3.9546,-3.9697,-3.9697,-3.9697,-3.9697,-3.9697,-3.9697,-3.9697,-3.9697,-4.1328,-4.3078,-4.4365,0.0,-4.511,0.0,-4.5573,-4.5397,-4.4945,-4.394,-4.374,-4.3514,-4.3037,-4.2539,-4.1613,-4.0066,0.0,0.0,0.0,-3.7792,-3.819,-3.9645,-3.9697,-3.9077,-3.769,-3.6194,-3.4859,-3.3765,-3.2448,-3.1753,-3.1708,-3.1285,-3.0431,-2.9254,-2.9995,-2.8983,-2.6824,-2.7373,-2.6996,-2.5879,-2.5742,-2.5693,-2.5693,-2.5732,-2.6468,-2.7547,-2.7636,-2.8649,-3.0133,-3.1505,-3.1988,-3.2241,-3.3983,-3.466,-3.463,-3.3984,-3.4165,-3.457,-3.4499,-3.3489,-3.2936,-3.4826,-3.2076,-2.8578,-2.7266,-2.707,-2.7207,-2.765,-2.7748,-2.7885,-2.8223,-2.8301,-2.8301,-2.8301,-2.793,-2.7915,-2.8557,-2.8397,-2.8466,0.0,0.0,0.0,0.0,-3.2959,-3.3676,0.0,0.0,0.0,0.0,0.0,-3.3997,-3.3947,-3.5031,-3.5906,-3.6455,-3.6505,-3.6531,-3.6531,-3.6985,-3.7236,-3.7287,-3.8416,-3.8919,-3.8944,-3.9446,-3.9697,-3.9697,-3.9697,-3.9697,-3.9697,-3.9697,-3.9697,-3.9697,-3.9697,-3.9697,-3.9697,0.0,0.0,-4.5429,-4.3941,-4.4816,-4.5648,-4.5497,-4.4392,-4.3614,-4.379,-4.3062,-4.2715,-4.2936,-4.2539,-4.1409,-3.9483,-3.8792,-3.8268,-3.7744,-3.7578,-3.819,-3.9645,-3.9697,-3.9517,-3.9181,-3.7359,-3.5294,-3.3198,-3.2862,-3.2482,-3.2174,-3.204,-3.1845,-3.1523,-3.1381,-3.1034,-3.0351,-2.8849,-2.8028,-2.7648,-2.6249,-2.5693,-2.5732,-2.6113,-2.6428,-2.6843,-2.8061,-2.8768,-2.9293,-3.06,-3.1691,-3.2579,-3.3047,-3.4127,-3.4923,-3.3047,-3.3114,-3.3504,-3.2134,-3.1046,-3.0706,-3.2586,-3.1482,-2.9415,-2.7456,-2.7519,-2.793,-2.7767,-2.793,-2.8184,-2.8281,-2.8301,-2.8301,-2.8301,-2.793,-2.7656,-2.7459,-2.7877,-2.813,0.0,-2.9471,-3.051,-3.051,-3.0789,-3.1507,0.0,0.0,0.0,0.0,-3.4806,-3.4906,-3.455,-3.6006,-3.686,-3.6985,-3.7412,-3.7613,-3.7613,-3.7739,-3.7814,-3.7839,-3.8542,-3.8919,-3.8944,-3.9446,-3.9697,-3.9697,-3.9697,-3.9697,-3.9697,-3.9697,-3.9697,-3.9697,-3.9697,-3.9697,-3.9697,-4.379,-4.4903,-4.5525,-4.4304,-4.4878,-4.5321,-4.4794,-4.3714,-4.3087,-4.3388,-4.2459,-4.1982,-4.259,-4.1882,-4.0715,-3.8909,-3.8459,-3.7807,-3.6565,-3.7133,-3.7849,-3.8635,-3.8687,-3.9025,-3.9697,-3.7006,-3.5057,-3.3912,-3.4571,-3.4662,-3.4191,-3.4191,-3.3848,-3.3281,-3.3357,-3.2808,-3.1596,-2.9939,-2.8876,-2.825,-2.6654,-2.6035,-2.6074,-2.6504,-2.668,-2.68,-2.7653,-2.8107,-2.8472,-2.9807,-3.1113,-3.2271,-3.2865,-3.4188,-3.5077,-3.2996,-3.2888,-3.3315,-3.2364,-3.0822,-2.9638,-3.0305,-3.0359,-2.9839,-2.8009,-2.7969,-2.8223,-2.8008,-2.8125,-2.8301,-2.8301,-2.8301,-2.8223,-2.8047,-2.7656,-2.7226,-2.6797,-2.6923,0.0,-2.7069,-2.8534,-2.965,-2.9818,-3.0573,-3.1578,-3.2936,-3.3125,0.0,-3.4635,-3.5479,-3.578,-3.5479,-3.6584,-3.7312,-3.7563,-3.7864,-3.8015,-3.8015,-3.8266,-3.8391,-3.8417,-3.8994,-3.9245,-3.927,-3.9572,-3.9697,-3.9697,-3.9697,-3.9697,-3.9697,-3.9697,-3.9848,-4.0074,-4.0074,-4.0224,-4.045,-4.4418,-4.497,-4.5196,-4.4719,-4.497,-4.492,-4.394,-4.3187,-4.276,-4.2836,-4.1907,-4.143,-4.1982,-4.1128,-4.0,-3.8749,-3.8569,-3.7658,-3.5749,-3.6595,-3.724,-3.7477,-3.753,-3.8084,-3.9362,-3.6532,-3.5138,-3.5226,-3.6529,-3.6958,-3.6405,-3.6405,-3.5763,-3.4703,-3.534,-3.4434,-3.2345,-3.124,-3.0027,-2.8752,-2.736,-2.6665,-2.6523,-2.6953,-2.7109,-2.7129,-2.7187,-2.7441,-2.7963,-2.9096,-3.0277,-3.1506,-3.2658,-3.3935,-3.4691,-3.3102,-3.2815,-3.2975,-3.2905,-3.1164,-2.9126,-2.8449,-2.9205,-2.9805,-2.8647,-2.8437,-2.8476,-2.8398,-2.8398,-2.8359,-2.8301,-2.8242,-2.8105,-2.7865,-2.7285,-2.6816,-2.6523,0.0,-2.5977,-2.6348,-2.7833,-2.8965,-2.936,-3.0737,-3.2084,-3.3215,-3.3738,-3.4246,-3.4911,-3.5931,-3.6581,-3.6656,-3.7061,-3.7613,-3.8241,-3.8266,-3.8266,-3.8266,-3.8768,-3.9045,-3.907,-3.9471,-3.9697,-3.9697,-3.9697,-3.9697,-3.9697,-3.9697,-3.9697,-3.9697,-3.9697,-4.0023,-4.0526,-4.0526,-4.0852,-4.1275,-4.3915,-4.4367,-4.4719,-4.4644,-4.4317,-4.3991,-4.384,-4.2559,-4.1756,-4.2288,-4.1329,-4.0852,-4.1351,-4.0902,-4.0395,-4.0184,-3.9735,-3.8838,-3.7263,-3.6217,-3.6217,-3.7477,-3.753,-3.7636,-3.7849,-3.8096,-3.7543,-3.6173,-3.6864,-3.6958,-3.6405,-3.6405,-3.631,-3.6096,-3.621,-3.6043,-3.5542,-3.3887,-3.236,-3.1051,-2.9303,-2.7934,-2.6973,-2.7402,-2.7559,-2.7669,-2.7969,-2.8144,-2.8256,-2.8449,-2.9411,-3.0512,-3.0717,-3.1715,-3.2769,-3.2429,-3.162,-3.0683,-3.0226,-2.9312,-2.8469,-2.8335,-2.8716,-2.908,-2.8883,-2.9101,-2.9277,-2.8906,-2.8828,-2.8711,-2.8359,-2.8008,-2.7851,-2.8144,-2.7226,-2.6582,-2.6875,0.0,-2.6309,-2.6387,-2.7275,-2.7942,-2.8001,-2.8269,-2.9528,-3.2297,-3.2275,-3.3284,-3.5987,-3.6709,-3.7262,-3.7739,-3.7839,-3.8391,-3.9421,-3.9446,-3.9446,-3.9446,-3.9521,-3.9572,-3.9572,-3.9647,-3.9697,-3.9697,-3.9697,-3.9697,-3.9697,-3.9697,-3.9697,-3.9697,-3.9697,-4.0023,-4.0526,-4.0526,-4.0852,-4.1275,-4.3363,-4.379,-4.4091,-4.379,-4.3765,-4.3689,-4.3413,-4.2208,-4.153,-4.2137,-4.0953,-4.0275,-4.0774,-4.04,-4.0074,-4.0074,-3.9848,-3.9413,-3.8739,-3.8031,-3.7636,-3.753,-3.753,-3.7215,-3.6592,-3.8083,-3.8089,-3.6405,-3.7211,-3.7186,-3.6405,-3.6405,-3.6405,-3.6405,-3.6405,-3.6405,-3.6285,-3.446,-3.3338,-3.264,-3.1074,-2.9671,-2.8594,-2.9743,-2.9259,-2.8133,-2.9031,-2.89,-2.8301,-2.8301,-2.9197,-3.0307,-3.0307,-3.1235,-3.218,-3.1418,-3.0773,-3.0057,-2.9112,-2.8602,-2.834,-2.8574,-2.8769,-2.8984,-2.9219,-2.9434,-2.9567,-2.9316,-2.9082,-2.8867,-2.8672,-2.8281,-2.8066,-2.8262,-2.7402,0.0,0.0,-2.666,-2.6465,-2.6699,-2.7285,-2.7806,-2.7988,-2.8008,-2.9184,-3.2056,-3.2129,-3.3412,-3.6664,-3.7036,-3.7588,-3.8442,-3.8768,-3.917,-3.9697,-3.9697,-3.9697,-3.9697,-3.9697,-3.9697,-3.9697,-3.9697,-3.9697,-3.9697,-3.9697,-3.9697,-3.9697,-3.9697,-3.9873,-4.0099,-3.9798,-4.04,-4.1354,-4.1078,-4.1505,-4.2233,-4.2986,-4.3313,-4.3489,-4.3062,-4.3338,-4.3413,-4.2861,-4.1957,-4.1455,-4.1731,-4.0551,-3.9898,-4.045,-4.0023,-3.9747,-3.9873,-3.9772,-3.9697,-3.9697,-3.9697,-3.9025,-3.7583,-3.753,-3.7207,-3.6555,-3.8237,-3.8241,-3.6606,-3.7538,-3.7437,-3.6405,-3.6405,-3.6405,-3.6405,-3.6405,-3.6405,-3.6332,-3.4915,-3.4174,-3.3767,-3.2727,-3.1545,-3.0434,-3.1794,-3.103,-2.9303,-3.0068,-2.967,-2.8708,-2.8388,-2.9006,-2.9807,-2.9807,-3.0599,-3.1313,-3.0141,-2.9807,-2.9618,-2.8601,-2.8301,-2.8398,-2.8809,-2.9004,-2.918,-2.9629,-2.9805,-2.9844,-2.9726,-2.9375,-2.9043,-2.8945,-2.8496,-2.8184,-2.8281,0.0,0.0,0.0,-2.6894,-2.6836,-2.7266,-2.7695,-2.8125,-2.8555,-2.8594,-2.9606,-3.1951,-3.2463,-3.3862,-3.6726,-3.7341,-3.804,-3.9019,-3.9471,-3.9697,-3.9697,-3.9697,-3.9697,-3.9697,-3.9697,-3.9697,-3.9697,-3.9697,-3.9697,-3.9697,-3.9697,-3.9697,-3.9697,-3.9697,-3.9948,-4.03,-3.9998,-4.0727,-4.1932,-4.163,-4.2133,-4.2986,-4.2986,-4.3011,-4.3037,-4.2986,-4.3011,-4.2861,-4.2363,-4.1706,-4.1125,-4.0701,-4.0099,-3.9898,-4.045,-4.0023,-3.9898,-4.04,-3.9998,-3.9697,-3.9697,-3.9697,-3.9025,-3.7583,-3.753,-3.7871,-3.8667,-3.9294,-3.8818,-3.7136,-3.7713,-3.7437,-3.6405,-3.6405,-3.6405,-3.6405,-3.6405,-3.6405,-3.6405,-3.626,-3.545,-3.4314,-3.4216,-3.3357,-3.2135,-3.228,-3.218,-3.1876,-3.0721,-3.0224,-2.9964,-2.8708,-2.8388,-2.8441,-2.8441,-2.877,-2.9061,-2.8613,-2.8441,-2.8441,-2.8354,-2.8301,-2.8398,-2.8809,-2.9219,-2.9629,-3.0059,-3.0488,-3.0664,-3.0234,-2.9805,-2.9394,-2.9004,-2.8262,-2.7885,-2.8223,0.0,0.0,-2.7611,-2.765,-2.7734,-2.8144,-2.8574,-2.9004,-2.9434,-2.9473,-3.0118,-3.1533,-3.2906,-3.4347,-3.5809,-3.7713,-3.9019,-3.9622,-3.9672,-3.9697,-3.9697,-3.9697,-3.9697,-3.9697,-3.9697,-3.9697,-3.9697,-3.9697,-3.9697,-3.9697,-3.9697,-3.9697,-3.9697,-3.9697,-3.9722,-3.9798,-4.0275,-4.0852,-4.1401,-4.1907,-4.2514,-4.2986,-4.1957,-4.1957,-4.2057,-4.2464,-4.2183,-4.2007,-4.2187,-4.1404,-4.0752,-4.0551,-4.0325,-4.0275,-4.0501,-4.0626,-4.0651,-4.0526,-4.0325,-4.0049,-3.9722,-3.9697,-3.9465,-3.8921,-3.8524,-3.8534,-3.8868,-3.9069,-3.8517,-3.7186,-3.809,-3.7965,-3.6933,-3.6933,-3.6933,-3.6908,-3.6556,-3.6405,-3.6405,-3.6405,-3.6121,-3.5619,-3.5619,-3.4824,-3.37,-3.4557,-3.3281,-3.1154,-3.1766,-3.0716,-2.9086,-2.9124,-2.8906,-2.873,-2.9004,-2.9199,-2.9498,-3.0228,-2.9828,-2.9301,-3.0242,-2.9573,-2.8789,-2.9219,-2.9648,-3.0078,-3.0527,-3.0762,-3.084,-3.0664,-3.0273,-2.9824,-2.9394,-2.9062,-2.8809,-2.8691,0.0,-2.7949,-2.8379,-2.8223,-2.8203,-2.8633,-2.9062,-2.9394,-2.9551,-2.9626,-3.053,-3.2802,-3.3493,-3.4941,-3.7559,-3.8815,-3.9471,-3.9697,-3.9697,-3.9697,-3.9697,-3.9697,-3.9697,-3.9697,-3.9697,-3.9697,-3.9697,-3.9697,-3.9697,-3.9697,-3.9697,-3.9697,-3.9697,-3.9697,-3.9898,-4.0224,-4.0425,-4.1053,-4.1882,-4.2137,-4.2564,-4.2986,-4.1275,-4.1275,-4.1401,-4.1831,-4.1605,-4.1351,-4.1605,-4.1003,-4.045,-4.0275,-4.04,-4.0576,-4.0752,-4.105,-4.1254,-4.1053,-4.0877,-4.0551,-3.9998,-3.9798,-3.9697,-3.9697,-3.932,-3.912,-3.912,-3.912,-3.8668,-3.7713,-3.8542,-3.8366,-3.7437,-3.7437,-3.7337,-3.7161,-3.6832,-3.6581,-3.6405,-3.6405,-3.6405,-3.6405,-3.6405,-3.5858,-3.5114,-3.6048,-3.4506,-3.1907,-3.2701,-3.1422,-2.9345,-2.9522,-2.9375,-2.918,-2.9473,-2.9626,-3.0036,-3.2024,-3.1491,-3.0585,-3.2017,-3.1566,-3.0567,-2.9967,-3.0356,-3.0863,-3.0897,-3.0898,-3.0898,-3.0898,-3.0527,-3.0117,-2.9824,-2.9668,-2.9473,-2.918,-2.8887,-2.8952,-2.9719,-2.9194,-2.9011,-2.9899,-2.9849,-3.003,-3.0674,-3.0674,-3.1692,-3.412,-3.4706,-3.6185,-3.8993,-3.9496,-3.9697,-3.9697,-3.9697,-3.9697,-3.9697,-3.9697,-3.9697,-3.9697,-3.9697,-3.9697,-3.9697,-3.9697,-3.9697,-3.9697,-3.9697,-3.9697,-3.9697,-3.9697,-4.0023,-4.0526,-4.0701,-4.1329,-4.2238,-4.2414,-4.266,-4.2986,-4.1275,-4.1275,-4.1275,-4.1275,-4.1275,-4.11,-4.0601,-4.0526,-4.03,-3.9772,-4.0174,-4.0727,-4.1225,-4.13,-4.1555,-4.2162,-4.1656,-4.105,-4.0551,-3.9998,-3.9697,-3.9697,-3.9697,-3.9697,-3.9697,-3.9697,-3.9421,-3.8919,-3.8868,-3.8567,-3.8015,-3.8015,-3.7713,-3.7186,-3.7186,-3.6885,-3.643,-3.6405,-3.6405,-3.6405,-3.6405,-3.6405,-3.6405,-3.6405,-3.5794,-3.4846,-3.3504,-3.241,-3.1366,-3.0052,-2.9626,-2.9626,-2.9646,-2.9646,-3.0242,-3.3475,-3.3171,-3.2092,-3.3462,-3.4244,-3.39,-3.097,-3.1288,-3.212,-3.1129,-3.0898,-3.0898,-3.0898,-3.0527,-3.0195,-3.0195,-2.9863,-2.9626,-2.9626,-2.9626,-3.0107,-3.1605,-3.053,-3.0322,-3.2156,-3.1083,-3.098,-3.2922,-3.3077,-3.3733,-3.5233,-3.6703,-3.819,-3.9645,-3.9697,-3.9697,-3.9697,-3.9697,-3.9697,-3.9697,-3.9697,-3.9697,-3.9697,-3.9697,-3.9697,-3.9697,-3.9697,-3.9697,-3.9697,-3.9697,-3.9697,-3.9697,-3.9697,-4.0023,-4.0576,-4.1075,-4.1681,-4.2263,-4.2816,-4.2986,-4.2986,-4.0199,-4.0501,-4.0824,-4.1225,-4.0974,-4.0774,-4.1,-4.0425,-3.9873,-3.9722,-4.0501,-4.11,-4.1275,-4.2032,-4.2409,-4.2238,-4.2062,-4.1505,-4.0576,-3.9998,-3.9697,-3.9697,-3.9697,-3.9697,-3.9697,-3.9697,-3.9421,-3.8919,-3.927,-3.917,-3.8617,-3.8617,-3.8567,-3.8341,-3.7939,-3.7663,-3.7487,-3.7111,-3.6935,-3.6935,-3.6935,-3.6935,-3.6985,-3.7362,-3.6104,-3.4152,-3.4019,-3.2328,-3.0262,-3.0445,-3.0273,-3.0059,-3.0391,-3.0488,-3.112,-3.4141,-3.391,-3.327,-3.5757,-3.6514,-3.5625,-3.1257,-3.1588,-3.2514,-3.1189,-3.0898,-3.0898,-3.0898,-3.0781,-3.0586,-3.0254,-3.0351,-3.0293,-2.9668,-2.9824,-3.0545,-3.2009,-3.0938,-3.0724,-3.2636,-3.1623,-3.1339,-3.2943,-3.3077,-3.4125,-3.6649,-3.819,-3.9258,-3.9697,-3.9697,-3.9697,-3.9697,-3.9697,-3.9697,-3.9697,-3.9697,-3.9697,-3.9697,-3.9697,-3.9697,-3.9697,-3.9697,-3.9898,-4.0249,-3.9848,-4.0124,-4.0774,-4.0425,-4.0601,-4.11,-4.1706,-4.2062,-4.2263,-4.2816,-4.2986,-4.2986,-3.9697,-3.9973,-4.03,-4.0626,-4.04,-4.03,-4.0651,-4.0124,-3.9697,-3.9697,-4.0651,-4.1275,-4.1275,-4.2333,-4.2836,-4.2564,-4.2082,-4.1555,-4.0824,-4.0124,-3.9697,-3.9697,-3.9697,-3.9697,-3.9697,-3.9697,-3.9521,-3.9195,-3.9521,-3.9521,-3.9195,-3.9195,-3.9069,-3.8894,-3.8517,-3.8216,-3.799,-3.7638,-3.7513,-3.7513,-3.7513,-3.7513,-3.7538,-3.7889,-3.6357,-3.407,-3.4307,-3.2543,-3.0176,-3.0703,-3.0703,-3.0527,-3.0801,-3.1267,-3.2264,-3.4648,-3.5068,-3.5211,-3.7026,-3.7902,-3.7382,-3.3258,-3.3519,-3.4292,-3.2264,-3.1767,-3.1594,-3.0995,-3.0898,-3.0801,-3.0527,-3.0703,-3.0723,-3.0176,-3.0787,-3.1892,-3.336,-3.2769,-3.2854,-3.4637,-3.3529,-3.3191,-3.4714,-3.4825,-3.5813,-3.819,-3.9181,-3.9697,-3.9697,-3.9697,-3.9697,-3.9697,-3.9697,-3.9697,-3.9697,-3.9697,-3.9697,-3.9697,-3.9697,-3.9697,-3.9697,-3.9923,-4.0199,-4.0501,-4.04,-4.0727,-4.125,-4.0924,-4.1153,-4.1681,-4.2087,-4.2338,-4.2564,-4.2861,-4.2986,-4.2986,-3.9697,-3.9747,-3.9772,-3.9772,-3.9772,-3.9772,-3.9772,-3.9722,-3.9722,-3.9772,-4.0676,-4.13,-4.1351,-4.2359,-4.2986,-4.2986,-4.2007,-4.1351,-4.1275,-4.035,-3.9747,-3.9697,-3.9697,-3.9697,-3.9697,-3.9697,-3.9697,-3.9697,-3.9697,-3.9697,-3.9697,-3.9697,-3.9421,-3.8994,-3.8994,-3.8642,-3.814,-3.809,-3.809,-3.809,-3.809,-3.809,-3.809,-3.814,-3.6593,-3.4486,-3.4486,-3.2944,-3.0898,-3.0898,-3.0898,-3.0898,-3.0898,-3.1825,-3.3247,-3.4847,-3.6271,-3.7346,-3.7636,-3.8687,-3.9077,-3.6325,-3.6703,-3.6918,-3.3957,-3.3191,-3.2701,-3.1383,-3.0995,-3.0898,-3.0898,-3.0898,-3.0937,-3.1054,-3.2207,-3.3677,-3.5288,-3.5398,-3.5836,-3.7293,-3.6217,-3.589,-3.7346,-3.7636,-3.8243,-3.9594,-3.9697,-3.9697,-3.9697,-3.9697,-3.9697,-3.9697,-3.9697,-3.9697,-3.9697,-3.9697,-3.9697,-3.9697,-3.9697,-3.9722,-3.9798,-4.03,-4.0576,-4.0701,-4.11,-4.1351,-4.1426,-4.1376,-4.1731,-4.2288,-4.2288,-4.259,-4.2986,-4.2986,-4.2986,-4.2986,-3.9697,-4.0049,-4.035,-4.035,-4.035,-4.035,-4.035,-3.9973,-3.9848,-4.0275,-4.0874,-4.1505,-4.1932,-4.2585,-4.2986,-4.2986,-4.2359,-4.1781,-4.13,-4.0701,-4.0149,-3.9722,-3.9697,-3.9697,-3.9697,-3.9697,-3.9697,-3.9697,-3.9697,-3.9697,-3.9697,-3.9697,-3.9622,-3.9521,-3.9521,-3.9446,-3.9295,-3.8868,-3.8668,-3.8668,-3.8668,-3.8668,-3.8718,-3.917,-3.7532,-3.5131,-3.5131,-3.3275,-3.0898,-3.0898,-3.0898,-3.0898,-3.0898,-3.1112,-3.1883,-3.4515,-3.5508,-3.6271,-3.8582,-3.9465,-3.9542,-3.8921,-3.8973,-3.8477,-3.5508,-3.3901,-3.3021,-3.2701,-3.171,-3.0898,-3.0898,-3.0898,-3.1267,-3.2416,-3.2907,-3.4013,-3.6649,-3.6054,-3.5836,-3.7293,-3.6217,-3.589,-3.7346,-3.853,-3.9362,-3.9697,-3.9697,-3.9697,-3.9697,-3.9697,-3.9697,-3.9697,-3.9697,-3.9697,-3.9697,-3.9697,-3.9697,-3.9697,-3.9697,-3.9923,-4.035,-4.045,-4.0978,-4.1835,-4.148,-4.1831,-4.2585,-4.2158,-4.2363,-4.2866,-4.2866,-4.2861,-4.2986,-4.2986,-4.2986,-4.2986,-3.9697,-3.9923,-4.0124,-4.0124,-4.0124,-4.0124,-4.0124,-3.9873,-3.9798,-4.0099,-4.0774,-4.1401,-4.1731,-4.2484,-4.2986,-4.2986,-4.2539,-4.1907,-4.1326,-4.0827,-4.0275,-3.9722,-3.9697,-3.9697,-3.9697,-3.9697,-3.9697,-3.9697,-3.9697,-3.9697,-3.9697,-3.9697,-3.9697,-3.9697,-3.9697,-3.9697,-3.9672,-3.9396,-3.927,-3.927,-3.927,-3.927,-3.9295,-3.9597,-3.8319,-3.6325,-3.6325,-3.4459,-3.1825,-3.1112,-3.0898,-3.0995,-3.171,-3.2436,-3.3417,-3.5672,-3.6834,-3.7767,-3.9258,-3.9697,-3.9697,-3.9697,-3.9697,-3.9077,-3.6865,-3.5759,-3.4991,-3.4292,-3.2985,-3.194,-3.194,-3.1383,-3.117,-3.194,-3.3247,-3.4681,-3.6217,-3.6996,-3.7713,-3.8477,-3.7873,-3.7713,-3.8477,-3.9258,-3.9697,-3.9697,-3.9697,-3.9697,-3.9697,-3.9697,-3.9697,-3.9697,-3.9697,-3.9697,-3.9697,-3.9697,-3.9823,-4.0074,-3.9823,-3.9973,-4.0526,-4.0724,-4.1229,-4.1781,-4.2007,-4.2434,-4.2961,-4.2715,-4.2766,-4.2986,-4.2986,-4.2986,-4.2986,-4.2986,-4.2986,-4.2986,-3.9697,-3.9697,-3.9697,-3.9697,-3.9697,-3.9697,-3.9697,-3.9697,-3.9722,-3.9823,-4.0626,-4.1225,-4.1401,-4.2578,-4.3351,-4.3351,-4.292,-4.2279,-4.1379,-4.0849,-4.0375,-3.9722,-3.9697,-3.9697,-3.9697,-3.9697,-3.9697,-3.9697,-3.9697,-3.9697,-3.9697,-3.9697,-3.9697,-3.9697,-3.9697,-3.9697,-3.9697,-3.9697,-3.9697,-3.9697,-3.9697,-3.9697,-3.9697,-3.9697,-3.8792,-3.753,-3.753,-3.5759,-3.3304,-3.2035,-3.1672,-3.1883,-3.3077,-3.4292,-3.5563,-3.7079,-3.8348,-3.9362,-3.9645,-3.9697,-3.9697,-3.9697,-3.9697,-3.9362,-3.8137,-3.769,-3.7133,-3.5945,-3.4515,-3.3417,-3.3134,-3.2322,-3.1672,-3.1672,-3.3923,-3.5781,-3.5999,-3.8161,-3.9697,-3.9697,-3.9697,-3.9697,-3.9697,-3.9697,-3.9697,-3.9697,-3.9697,-3.9697,-3.9697,-3.9697,-3.9697,-3.9697,-3.9697,-3.9697,-3.9697,-3.9798,-4.0124,-4.0651,-4.0199,-4.0275,-4.0802,-4.1279,-4.1476,-4.1601,-4.2585,-4.2911,-4.2836,-4.2836,-4.2836,-4.2836,-4.2836,-4.2886,-4.2986,-4.2986,-4.2986,-4.2986,-3.9697,-3.9697,-3.9697,-3.9697,-3.9697,-3.9697,-3.9697,-3.9697,-3.9873,-4.035,-4.0526,-4.0978,-4.1986,-4.3684,-4.4725,-4.4725,-4.4673,-4.3666,-4.1458,-4.1225,-4.0777,-3.9747,-3.9697,-3.9697,-3.9697,-3.9697,-3.9697,-3.9697,-3.9697,-3.9697,-3.9697,-3.9697,-3.9697,-3.9697,-3.9697,-3.9697,-3.9697,-3.9697,-3.9697,-3.9697,-3.9697,-3.9697,-3.9697,-3.9697,-3.8792,-3.753,-3.753,-3.6433,-3.4958,-3.4736,-3.4681,-3.4736,-3.4958,-3.5123,-3.5563,-3.7079,-3.7636,-3.8084,-3.9362,-3.9697,-3.9697,-3.9697,-3.9697,-3.9645,-3.9465,-3.8425,-3.7453,-3.724,-3.6054,-3.4626,-3.336,-3.3957,-3.4681,-3.4681,-3.6108,-3.7636,-3.8921,-3.9465,-3.9697,-3.9697,-3.9697,-3.9697,-3.9697,-3.9697,-3.9697,-3.9697,-3.9697,-3.9697,-3.9697,-3.9697,-3.9697,-3.9697,-3.9697,-3.9697,-3.9697,-4.0174,-4.0676,-4.1175,-4.11,-4.1404,-4.1986,-4.2062,-4.2363,-4.276,-4.2911,-4.2766,-4.2313,-4.2313,-4.2313,-4.2313,-4.2313,-4.2615,-4.2986,-4.2986,-4.2986,-4.2986,-3.9697,-3.9697,-3.9697,-3.9697,-3.9697,-3.9697,-3.9697,-3.9697,-3.9772,-4.0023,-4.0325,-4.1119,-4.2706,-4.4863,-4.6188,-4.6188,-4.5156,-4.3966,-4.2578,-4.1453,-4.0526,-3.9722,-3.9697,-3.9697,-3.9697,-3.9697,-3.9697,-3.9697,-3.9697,-3.9697,-3.9697,-3.9697,-3.9697,-3.9697,-3.9697,-3.9697,-3.9697,-3.9697,-3.9697,-3.9697,-3.9697,-3.9697,-3.9697,-3.9697,-3.931,-3.8635,-3.7796,-3.7079,-3.6379,-3.5563,-3.5288,-3.5453,-3.6271,-3.6541,-3.6811,-3.8295,-3.8739,-3.8868,-3.9517,-3.9697,-3.9697,-3.9697,-3.9697,-3.9697,-3.9697,-3.9181,-3.8739,-3.8739,-3.753,-3.6325,-3.5649,-3.4714,-3.4348,-3.5178,-3.5836,-3.6757,-3.8243,-3.9181,-3.9697,-3.9697,-3.9697,-3.9697,-3.9697,-3.9697,-3.9697,-3.9697,-3.9697,-3.9697,-3.9697,-3.9697,-3.9697,-3.9697,-3.9998,-4.0149,-4.0149,-4.0701,-4.1254,-4.1781,-4.1781,-4.1907,-4.2213,-4.2213,-4.2338,-4.259,-4.2836,-4.2891,-4.2665,-4.2665,-4.2665,-4.2665,-4.2665,-4.276,-4.2986,-4.2986,-4.2986,-4.2986]},{"header":{"parameterUnit":"m.s-1","parameterCategory":1,"la1":30.6,"la2":28.766,"lo1":-90.7593,"lo2":-88.6598,"dy":0.0162,"dx":0.0183,"nx":116,"ny":114,"refTime":"2024-04-25T12:00:00:Z","depth":0,"parameterNumber":3,"parameterNumberName":"V-component_of_WINDS"},"data":[0.0,0.0,0.0,0.0,0.0,0.0,0.0,0.0,0.0,0.0,0.0,0.0,0.0,0.0,0.0,0.0,0.0,0.0,0.0,0.0,0.0,0.0,0.0,0.0,0.0,0.0,0.0,0.0,0.0,0.0,0.0,0.0,0.0,0.0,0.0,0.0,0.0,0.0,0.0,0.0,0.0,0.0,0.0,0.0,0.0,0.0,0.0,0.0,0.0,0.0,0.0,0.0,0.0,0.0,0.0,0.0,0.0,0.0,0.0,0.0,0.0,0.0,0.0,0.0,0.0,0.0,0.0,0.0,0.0,0.0,0.0,0.0,0.0,0.0,0.0,0.0,0.0,0.0,0.0,0.0,0.0,0.0,0.0,0.0,0.0,0.0,0.0,0.0,0.0,0.0,0.0,0.0,0.0,0.0,0.0,0.0,0.0,0.0,0.0,0.0,0.0,0.0,0.0,0.0,0.0,0.0,0.0,0.0,0.0,0.0,0.0,0.0,0.0,0.0,0.0,0.0,0.0,0.0,0.0,0.0,0.0,0.0,0.0,0.0,0.0,0.0,0.0,0.0,0.0,0.0,0.0,0.0,0.0,0.0,0.0,0.0,0.0,0.0,0.0,0.0,0.0,0.0,0.0,0.0,0.0,0.0,0.0,0.0,0.0,0.0,0.0,0.0,0.0,0.0,0.0,0.0,0.0,0.0,0.0,0.0,0.0,0.0,0.0,0.0,0.0,0.0,0.0,0.0,0.0,0.0,0.0,0.0,0.0,0.0,0.0,0.0,0.0,0.0,0.0,0.0,0.0,0.0,0.0,0.0,0.0,0.0,0.0,0.0,0.0,0.0,0.0,0.0,0.0,0.0,0.0,0.0,0.0,0.0,0.0,0.0,0.0,0.0,0.0,0.0,0.0,0.0,0.0,0.0,0.0,0.0,0.0,0.0,0.0,0.0,0.0,0.0,0.0,0.0,0.0,0.0,0.0,0.0,0.0,0.0,0.0,0.0,0.0,0.0,0.0,0.0,0.0,0.0,0.0,0.0,0.0,0.0,0.0,0.0,0.0,0.0,0.0,0.0,0.0,0.0,0.0,0.0,0.0,0.0,0.0,0.0,0.0,0.0,0.0,0.0,0.0,0.0,0.0,0.0,0.0,0.0,0.0,0.0,0.0,0.0,0.0,0.0,0.0,0.0,0.0,0.0,0.0,0.0,0.0,0.0,0.0,0.0,0.0,0.0,0.0,0.0,0.0,0.0,0.0,0.0,0.0,0.0,0.0,0.0,0.0,0.0,0.0,0.0,0.0,0.0,0.0,0.0,0.0,0.0,0.0,0.0,0.0,0.0,0.0,0.0,0.0,0.0,0.0,0.0,0.0,0.0,0.0,0.0,0.0,0.0,0.0,0.0,0.0,0.0,0.0,0.0,0.0,0.0,0.0,0.0,0.0,0.0,0.0,0.0,0.0,0.0,0.0,0.0,0.0,0.0,0.0,0.0,0.0,0.0,0.0,0.0,0.0,0.0,0.0,0.0,0.0,0.0,0.0,0.0,0.0,0.0,0.0,0.0,0.0,0.0,0.0,0.0,0.0,0.0,0.0,0.0,0.0,0.0,0.0,0.0,0.0,0.0,0.0,0.0,0.0,0.0,0.0,0.0,0.0,0.0,0.0,0.0,0.0,0.0,0.0,0.0,0.0,0.0,0.0,0.0,0.0,0.0,0.0,0.0,0.0,0.0,0.0,0.0,0.0,0.0,0.0,0.0,0.0,0.0,0.0,0.0,0.0,0.0,0.0,0.0,0.0,0.0,0.0,0.0,0.0,0.0,0.0,0.0,0.0,0.0,0.0,0.0,0.0,0.0,0.0,0.0,0.0,0.0,0.0,0.0,0.0,0.0,0.0,0.0,0.0,0.0,0.0,0.0,0.0,0.0,0.0,0.0,0.0,0.0,0.0,0.0,0.0,0.0,0.0,0.0,0.0,0.0,0.0,0.0,0.0,0.0,0.0,0.0,0.0,0.0,0.0,0.0,0.0,0.0,0.0,0.0,0.0,0.0,0.0,0.0,0.0,0.0,0.0,0.0,0.0,0.0,0.0,0.0,0.0,0.0,0.0,0.0,0.0,0.0,0.0,0.0,0.0,0.0,0.0,0.0,0.0,0.0,0.0,0.0,0.0,0.0,0.0,0.0,0.0,0.0,0.0,0.0,0.0,0.0,0.0,0.0,0.0,0.0,0.0,0.0,0.0,0.0,0.0,0.0,0.0,0.0,0.0,0.0,0.0,0.0,0.0,0.0,0.0,0.0,0.0,0.0,0.0,0.0,0.0,0.0,0.0,0.0,0.0,0.0,0.0,0.0,0.0,0.0,0.0,0.0,0.0,0.0,0.0,0.0,0.0,0.0,0.0,0.0,0.0,0.0,0.0,0.0,0.0,0.0,0.0,0.0,0.0,0.0,0.0,0.0,0.0,0.0,0.0,0.0,0.0,0.0,0.0,0.0,0.0,0.0,0.0,0.0,0.0,0.0,0.0,0.0,0.0,0.0,0.0,0.0,0.0,0.0,0.0,0.0,0.0,0.0,0.0,0.0,0.0,0.0,0.0,0.0,0.0,0.0,0.0,0.0,0.0,0.0,0.0,0.0,0.0,0.0,0.0,0.0,0.0,0.0,0.0,0.0,0.0,0.0,0.0,0.0,0.0,0.0,0.0,0.0,0.0,0.0,0.0,0.0,0.0,0.0,0.0,0.0,0.0,0.0,0.0,0.0,0.0,0.0,0.0,0.0,0.0,0.0,0.0,0.0,0.0,0.0,0.0,0.0,0.0,0.0,0.0,0.0,0.0,0.0,0.0,0.0,0.0,0.0,0.0,0.0,0.0,0.0,0.0,0.0,0.0,0.0,0.0,0.0,0.0,0.0,0.0,0.0,0.0,0.0,0.0,0.0,0.0,0.0,0.0,0.0,0.0,0.0,0.0,0.0,0.0,0.0,0.0,0.0,0.0,0.0,0.0,0.0,0.0,0.0,0.0,0.0,0.0,0.0,0.0,0.0,0.0,0.0,0.0,0.0,0.0,0.0,0.0,0.0,0.0,0.0,0.0,0.0,0.0,0.0,0.0,0.0,0.0,0.0,0.0,0.0,0.0,0.0,0.0,0.0,0.0,0.0,0.0,0.0,0.0,0.0,0.0,0.0,0.0,0.0,0.0,0.0,0.0,0.0,0.0,0.0,0.0,0.0,0.0,0.0,0.0,0.0,0.0,0.0,0.0,0.0,0.0,0.0,0.0,0.0,0.0,0.0,0.0,0.0,0.0,0.0,0.0,0.0,0.0,0.0,0.0,0.0,0.0,0.0,0.0,0.0,0.0,0.0,0.0,0.0,0.0,0.0,0.0,0.0,0.0,0.0,0.0,0.0,0.0,0.0,0.0,0.0,0.0,0.0,0.0,0.0,0.0,0.0,0.0,0.0,0.0,0.0,0.0,0.0,0.0,0.0,0.0,0.0,0.0,0.0,0.0,0.0,0.0,0.0,0.0,0.0,0.0,0.0,0.0,0.0,0.0,0.0,0.0,0.0,0.0,0.0,0.0,0.0,0.0,0.0,0.0,0.0,0.0,0.0,0.0,0.0,0.0,0.0,0.0,0.0,0.0,0.0,0.0,0.0,0.0,0.0,0.0,0.0,0.0,0.0,0.0,0.0,0.0,0.0,0.0,0.0,0.0,0.0,0.0,0.0,0.0,0.0,0.0,0.0,0.0,0.0,0.0,0.0,0.0,0.0,0.0,0.0,0.0,0.0,0.0,0.0,0.0,0.0,0.0,0.0,0.0,0.0,0.0,0.0,0.0,0.0,0.0,0.0,0.0,0.0,0.0,0.0,0.0,0.0,0.0,0.0,0.0,0.0,0.0,0.0,0.0,0.0,0.0,0.0,0.0,0.0,0.0,0.0,0.0,0.0,0.0,0.0,0.0,0.0,0.0,0.0,0.0,0.0,0.0,0.0,0.0,0.0,0.0,0.0,0.0,0.0,0.0,0.0,0.0,0.0,0.0,0.0,0.0,0.0,0.0,0.0,0.0,0.0,0.0,0.0,0.0,0.0,0.0,0.0,0.0,0.0,0.0,0.0,0.0,0.0,0.0,0.0,0.0,0.0,0.0,0.0,0.0,0.0,0.0,0.0,0.0,0.0,0.0,0.0,0.0,0.0,0.0,0.0,0.0,0.0,0.0,0.0,0.0,0.0,0.0,0.0,0.0,0.0,0.0,0.0,0.0,0.0,0.0,0.0,0.0,0.0,0.0,0.0,0.0,0.0,0.0,0.0,0.0,0.0,0.0,0.0,0.0,0.0,0.0,0.0,0.0,0.0,0.0,0.0,0.0,0.0,0.0,0.0,0.0,0.0,0.0,0.0,0.0,0.0,0.0,0.0,0.0,0.0,0.0,0.0,0.0,0.0,0.0,0.0,0.0,0.0,0.0,0.0,0.0,0.0,0.0,0.0,0.0,0.0,0.0,0.0,0.0,0.0,0.0,0.0,0.0,0.0,0.0,0.0,0.0,0.0,0.0,0.0,0.0,0.0,0.0,0.0,0.0,0.0,0.0,0.0,0.0,0.0,0.0,0.0,0.0,0.0,0.0,0.0,0.0,0.0,0.0,0.0,0.0,0.0,0.0,0.0,0.0,0.0,0.0,0.0,0.0,0.0,0.0,0.0,0.0,0.0,0.0,0.0,0.0,0.0,0.0,0.0,0.0,0.0,0.0,0.0,0.0,0.0,0.0,0.0,0.0,0.0,0.0,0.0,0.0,0.0,0.0,0.0,0.0,0.0,0.0,0.0,0.0,0.0,0.0,0.0,0.0,0.0,0.0,0.0,0.0,0.0,0.0,0.0,0.0,0.0,0.0,0.0,0.0,0.0,0.0,0.0,0.0,0.0,0.0,0.0,0.0,0.0,0.0,0.0,0.0,0.0,0.0,0.0,0.0,0.0,0.0,0.0,0.0,0.0,0.0,0.0,0.0,0.0,0.0,0.0,0.0,0.0,0.0,0.0,0.0,0.0,0.0,0.0,0.0,0.0,0.0,0.0,0.0,0.0,0.0,0.0,0.0,0.0,0.0,0.0,0.0,0.0,0.0,0.0,0.0,0.0,0.0,0.0,0.0,0.0,0.0,0.0,0.0,0.0,0.0,0.0,0.0,0.0,0.0,0.0,0.0,0.0,0.0,0.0,0.0,0.0,0.0,0.0,0.0,0.0,0.0,0.0,0.0,0.0,0.0,0.0,0.0,0.0,0.0,0.0,0.0,0.0,0.0,0.0,0.0,0.0,0.0,0.0,0.0,0.0,0.0,0.0,0.0,0.0,0.0,0.0,0.0,0.0,0.0,0.0,0.0,0.0,0.0,0.0,0.0,0.0,0.0,0.0,0.0,0.0,0.0,0.0,0.0,0.0,0.0,0.0,0.0,0.0,0.0,0.0,0.0,0.0,0.0,0.0,0.0,0.0,0.0,0.0,0.0,0.0,0.0,0.0,0.0,0.0,0.0,0.0,0.0,0.0,0.0,0.0,0.0,0.0,0.0,0.0,0.0,0.0,0.0,0.0,0.0,0.0,0.0,0.0,0.0,0.0,0.0,0.0,0.0,0.0,0.0,0.0,0.0,0.0,0.0,0.0,0.0,0.0,0.0,0.0,0.0,0.0,0.0,0.0,0.0,0.0,0.0,0.0,0.0,0.0,0.0,0.0,0.0,0.0,0.0,0.0,0.0,0.0,0.0,0.0,0.0,0.0,0.0,0.0,0.0,0.0,0.0,0.0,0.0,0.0,0.0,0.0,0.0,0.0,0.0,0.0,0.0,0.0,0.0,0.0,0.0,0.0,0.0,0.0,0.0,0.0,0.0,0.0,0.0,0.0,0.0,0.0,0.0,0.0,0.0,0.0,0.0,0.0,0.0,0.0,0.0,0.0,0.0,0.0,0.0,0.0,0.0,0.0,0.0,0.0,0.0,0.0,0.0,0.0,0.0,0.0,0.0,0.0,0.0,0.0,0.0,0.0,0.0,0.0,0.0,0.0,0.0,0.0,0.0,0.0,0.0,0.0,0.0,0.0,0.0,0.0,0.0,0.0,0.0,0.0,3.7345,3.4796,0.0,0.0,0.0,0.0,0.0,0.0,0.0,0.0,0.0,0.0,0.0,0.0,0.0,0.0,0.0,0.0,0.0,0.0,0.0,0.0,0.0,0.0,0.0,2.9941,3.0391,3.0859,3.0898,3.0898,3.0898,3.0898,0.0,0.0,0.0,0.0,3.8582,4.0591,4.2412,4.399,4.5267,4.6661,4.8249,4.9139,4.7431,4.3428,0.0,0.0,0.0,0.0,0.0,0.0,0.0,0.0,0.0,0.0,0.0,0.0,0.0,0.0,0.0,0.0,0.0,0.0,0.0,0.0,0.0,0.0,0.0,0.0,0.0,0.0,0.0,0.0,0.0,0.0,0.0,0.0,0.0,0.0,0.0,0.0,0.0,0.0,0.0,0.0,0.0,0.0,0.0,0.0,0.0,0.0,0.0,0.0,0.0,0.0,0.0,0.0,0.0,0.0,0.0,0.0,0.0,0.0,0.0,0.0,0.0,0.0,0.0,0.0,0.0,0.0,0.0,0.0,0.0,0.0,4.2294,3.9074,0.0,0.0,0.0,0.0,0.0,0.0,0.0,0.0,0.0,0.0,0.0,0.0,0.0,0.0,0.0,0.0,0.0,0.0,0.0,0.0,0.0,2.9082,2.9531,2.9941,3.041,3.0957,3.0937,3.0918,3.0996,3.0937,3.1556,3.3021,3.4515,3.5999,3.7453,4.0388,4.3116,4.5663,4.8,5.0704,5.3857,5.5953,5.3176,4.6375,4.45,0.0,0.0,0.0,0.0,0.0,0.0,0.0,0.0,0.0,0.0,0.0,0.0,0.0,0.0,0.0,0.0,0.0,0.0,0.0,0.0,0.0,0.0,0.0,0.0,0.0,0.0,0.0,0.0,0.0,0.0,0.0,0.0,0.0,0.0,0.0,0.0,0.0,0.0,0.0,0.0,0.0,0.0,0.0,0.0,0.0,0.0,0.0,0.0,0.0,0.0,0.0,0.0,0.0,0.0,0.0,0.0,0.0,0.0,0.0,0.0,0.0,0.0,0.0,5.3219,5.3332,5.2881,5.3444,5.3247,5.2293,4.8543,4.5368,4.2823,4.179,0.0,0.0,0.0,0.0,0.0,0.0,0.0,0.0,0.0,0.0,0.0,0.0,0.0,0.0,0.0,0.0,0.0,0.0,0.0,2.9082,2.9531,2.9941,3.0527,3.1367,3.1094,3.1055,3.1406,3.1094,3.1556,3.3021,3.4515,3.5999,3.7453,4.1287,4.4263,4.6273,5.287,5.748,6.0188,5.9922,5.9255,5.7883,5.0738,4.8517,4.981,0.0,0.0,0.0,0.0,0.0,0.0,0.0,0.0,0.0,0.0,0.0,0.0,0.0,0.0,0.0,0.0,0.0,0.0,0.0,0.0,0.0,0.0,0.0,0.0,0.0,0.0,0.0,0.0,0.0,0.0,0.0,0.0,0.0,0.0,0.0,0.0,0.0,0.0,0.0,0.0,0.0,4.3639,4.4694,0.0,0.0,0.0,0.0,0.0,0.0,0.0,0.0,0.0,0.0,0.0,0.0,0.0,5.2992,5.4334,5.595,5.6568,5.63,5.7555,5.8367,5.8665,5.8722,5.8117,5.7052,5.6881,0.0,4.895,4.6035,0.0,0.0,0.0,0.0,0.0,0.0,0.0,0.0,0.0,0.0,0.0,0.0,0.0,0.0,0.0,0.0,0.0,0.0,0.0,0.0,0.0,3.0957,3.2012,3.2871,3.3691,3.3691,3.2656,3.2637,3.2432,3.1885,3.3304,3.4736,3.6217,4.0593,4.5776,5.1917,5.8944,6.2811,6.3644,6.5734,6.5621,6.3612,5.9707,5.6142,5.2765,4.9049,0.0,0.0,0.0,0.0,0.0,0.0,0.0,0.0,0.0,0.0,0.0,0.0,0.0,0.0,0.0,0.0,0.0,0.0,0.0,0.0,0.0,0.0,0.0,0.0,0.0,0.0,0.0,0.0,0.0,0.0,0.0,0.0,0.0,0.0,0.0,0.0,0.0,0.0,0.0,4.2559,4.4091,4.3664,4.4066,4.3852,0.0,0.0,0.0,0.0,0.0,0.0,0.0,0.0,0.0,5.6329,5.7985,5.9546,6.1089,6.2662,6.3324,6.3214,6.3844,6.4005,6.3827,6.3413,6.2735,6.188,6.1379,5.9561,5.6604,5.171,4.8571,4.6712,0.0,0.0,0.0,0.0,4.3901,4.4245,0.0,0.0,0.0,0.0,0.0,0.0,0.0,0.0,0.0,0.0,0.0,0.0,3.1434,3.2854,3.4167,3.5391,3.6138,3.582,3.4199,3.3867,3.3027,3.1445,3.2486,3.3789,3.5288,4.1076,4.8162,5.6429,6.2694,6.619,6.6954,7.0322,7.0618,6.8471,6.7703,6.3661,5.7134,5.3983,5.091,4.8054,0.0,0.0,0.0,0.0,0.0,0.0,0.0,0.0,0.0,0.0,0.0,0.0,0.0,0.0,0.0,0.0,0.0,0.0,0.0,0.0,0.0,0.0,0.0,0.0,0.0,0.0,0.0,0.0,0.0,0.0,0.0,0.0,0.0,0.0,0.0,0.0,0.0,4.4649,4.6032,4.4387,4.6953,4.7623,0.0,0.0,0.0,0.0,0.0,0.0,5.5365,5.6842,5.8863,6.1788,6.3956,6.5772,6.7224,6.8258,6.8734,6.8704,6.8196,6.7807,6.7478,6.664,6.5802,6.4964,6.4006,6.3109,6.1921,5.6451,5.2909,5.0738,4.9134,4.775,4.6817,4.7544,4.7976,4.8252,0.0,0.0,0.0,0.0,0.0,0.0,0.0,0.0,0.0,0.0,0.0,3.2622,3.513,3.5869,3.7,3.9175,3.7327,3.6016,3.5898,3.3984,3.2812,3.2695,3.2939,3.3789,3.5288,4.4332,5.1637,5.6967,6.1976,6.6699,7.1227,7.2101,7.3109,7.4121,7.2795,6.9793,6.5294,5.8861,5.5984,5.5101,4.8896,0.0,0.0,0.0,0.0,0.0,0.0,0.0,0.0,0.0,0.0,0.0,0.0,0.0,0.0,0.0,0.0,0.0,0.0,0.0,0.0,0.0,0.0,0.0,0.0,0.0,0.0,0.0,0.0,0.0,0.0,0.0,0.0,0.0,0.0,0.0,0.0,0.0,0.0,4.979,5.4529,0.0,0.0,0.0,0.0,5.3023,5.4674,5.746,6.1483,6.2877,6.5626,7.0122,7.043,7.0884,7.1601,7.1003,7.0739,7.0739,6.8854,6.8315,6.8854,6.7537,6.6251,6.5024,6.4964,6.4216,6.2782,5.9187,5.6615,5.4627,5.2036,5.0288,4.9358,5.0606,5.1446,5.1822,0.0,0.0,0.0,0.0,0.0,1.8955,2.0916,2.2584,2.4404,2.6493,3.0646,3.3997,3.5542,3.7994,4.0004,4.1179,4.0318,3.9023,3.7344,3.5508,3.4219,3.3633,3.2634,3.4381,3.943,4.615,5.1878,5.6552,6.1507,6.5238,6.7811,7.0167,7.1989,7.3291,7.2813,7.2217,7.1235,6.5271,6.0947,5.777,5.3789,5.0215,0.0,0.0,0.0,0.0,0.0,0.0,0.0,0.0,0.0,0.0,0.0,0.0,0.0,0.0,0.0,0.0,0.0,0.0,0.0,0.0,0.0,0.0,0.0,0.0,0.0,0.0,0.0,0.0,0.0,0.0,0.0,0.0,0.0,0.0,0.0,0.0,0.0,5.4627,5.8638,0.0,5.6251,5.7168,5.86,6.0092,6.1849,6.4289,6.7593,6.902,7.07,7.2774,7.3253,7.3373,7.3193,7.2535,7.1966,7.1517,7.038,6.9991,7.0141,6.7986,6.6729,6.6191,6.4515,6.3498,6.3019,6.1783,6.0102,5.8238,5.6833,5.5499,5.441,5.4857,5.519,5.5249,0.0,0.0,0.0,0.0,0.0,1.8204,2.0023,2.1778,2.3693,2.5937,3.097,3.5045,3.6806,3.9609,4.1749,4.2742,4.1967,4.0508,3.8496,3.6348,3.4844,3.4101,3.3821,3.6113,4.1415,4.7232,5.1949,5.546,5.9675,6.2617,6.4236,6.7194,6.9336,7.0747,7.2029,7.2795,7.294,6.9991,6.5988,6.1398,5.851,5.5453,5.2246,0.0,0.0,0.0,0.0,0.0,0.0,0.0,0.0,0.0,0.0,0.0,0.0,0.0,0.0,0.0,0.0,0.0,0.0,0.0,0.0,0.0,0.0,0.0,0.0,0.0,0.0,0.0,0.0,0.0,0.0,0.0,0.0,0.0,0.0,5.6055,5.9488,5.8427,6.3093,6.4944,6.1175,6.2778,6.474,6.6219,6.7816,6.97,7.1781,7.2984,7.3762,7.421,7.4659,7.4569,7.3911,7.3253,7.2565,7.1876,7.0769,7.026,7.0171,6.7747,6.655,6.6221,6.4246,6.3258,6.3079,6.3079,6.2032,6.0386,5.9967,5.8949,5.7782,5.7782,5.7633,5.7304,0.0,0.0,0.0,0.0,0.0,1.819,1.9955,2.1762,2.3965,2.7001,3.1502,3.5762,3.9224,4.0737,4.2188,4.397,4.1851,4.0117,3.9238,3.6348,3.4473,3.4043,3.6428,3.8769,4.0841,4.7641,5.1989,5.364,5.6514,5.8961,6.1059,6.3446,6.5329,6.6914,7.063,7.1539,7.0337,7.2512,7.0767,6.6229,6.2893,6.066,5.8944,0.0,0.0,0.0,0.0,0.0,0.0,0.0,0.0,0.0,0.0,0.0,0.0,0.0,0.0,0.0,0.0,0.0,0.0,0.0,0.0,0.0,0.0,0.0,0.0,0.0,0.0,0.0,0.0,0.0,0.0,0.0,0.0,0.0,5.4455,5.952,6.2768,6.1365,6.8146,7.1188,6.67,6.9153,7.1009,7.1009,7.2235,7.3253,7.3881,7.454,7.4869,7.4869,7.4869,7.454,7.3881,7.3223,7.2565,7.1846,6.9931,6.9034,6.8974,6.6939,6.5652,6.5024,6.4276,6.3617,6.3079,6.3049,6.2271,6.1104,6.1104,6.0296,5.9099,5.9069,5.865,5.7782,0.0,0.0,0.0,1.7582,1.7582,1.7767,1.8257,2.0931,2.3456,2.4898,3.1328,3.6537,3.8843,4.1305,4.3097,4.4033,4.1646,3.9687,3.8809,3.5625,3.3594,3.3164,3.5811,3.8359,4.0718,4.5512,4.8788,5.0406,5.4207,5.6428,5.7028,5.8976,6.0908,6.2854,6.4584,6.6277,6.8001,7.0255,7.0774,6.9856,6.6977,6.4912,6.3258,0.0,0.0,0.0,0.0,0.0,0.0,0.0,0.0,0.0,0.0,0.0,0.0,0.0,0.0,0.0,0.0,0.0,0.0,0.0,0.0,0.0,0.0,0.0,0.0,0.0,0.0,0.0,0.0,0.0,0.0,0.0,5.7036,6.0484,6.0584,6.4896,6.8407,6.9441,7.2425,7.3642,7.1906,7.2984,7.3582,7.3103,7.3851,7.442,7.4599,7.4779,7.4869,7.4869,7.4869,7.433,7.3193,7.3013,7.2325,7.1158,7.0171,6.9722,6.9632,6.7148,6.5922,6.5652,6.4036,6.3228,6.3049,6.257,6.1882,6.1104,6.1104,6.0296,5.9039,5.856,5.7663,5.6496,0.0,0.0,0.0,1.7582,1.7582,1.7622,1.7756,2.0163,2.2673,2.4691,3.0438,3.5288,3.7703,4.0126,4.1644,4.1779,3.9997,3.8359,3.7305,3.4184,3.2324,3.2225,3.5131,3.8027,4.0703,4.4388,4.6843,4.7956,5.1442,5.3113,5.3181,5.5695,5.7578,5.8857,6.0698,6.2842,6.5274,6.7441,6.9232,7.0489,6.9514,6.896,6.8291,6.4702,6.2353,6.0485,5.7621,5.6505,5.6077,5.3338,0.0,0.0,0.0,0.0,0.0,0.0,0.0,0.0,0.0,0.0,0.0,0.0,0.0,0.0,0.0,0.0,0.0,0.0,0.0,0.0,0.0,0.0,0.0,0.0,6.0835,6.4336,6.6101,6.8884,7.1398,7.3103,7.424,7.4839,7.4749,7.4839,7.4839,7.4749,7.4839,7.4869,7.4869,7.4869,7.4869,7.4869,7.4599,7.4091,7.3343,7.2774,7.1966,7.0889,6.9991,6.9273,6.8645,6.655,6.5443,6.5084,6.3677,6.2929,6.263,6.2241,6.1373,0.0,0.0,0.0,0.0,0.0,5.6406,5.5538,0.0,0.0,1.7582,1.7582,1.7582,1.7689,1.7942,1.9556,2.189,2.5218,2.9153,3.2803,3.5838,3.7858,3.8809,3.8535,3.7676,3.6571,3.5114,3.2574,3.1096,3.1251,3.4153,3.7173,4.0228,4.3311,4.5251,4.6095,4.842,4.9629,4.9748,5.3156,5.4797,5.493,5.8112,6.0316,6.1965,6.4417,6.6769,6.8945,7.0608,7.2013,7.2718,6.9442,6.7769,6.6563,6.1222,5.9194,5.8641,5.5872,0.0,0.0,0.0,0.0,0.0,0.0,0.0,0.0,0.0,0.0,0.0,0.0,0.0,0.0,0.0,0.0,0.0,0.0,0.0,0.0,0.0,0.0,0.0,0.0,6.4336,6.7627,7.0709,7.1757,7.2654,7.3851,7.451,7.5138,7.5826,7.5288,7.5168,7.5856,7.5258,7.4869,7.4869,7.4869,0.0,0.0,0.0,7.3941,7.3791,7.2535,7.1517,7.0769,6.9423,6.8136,6.6939,6.5533,6.4575,6.3947,6.3258,6.263,6.2091,6.1852,6.0565,5.877,5.886,5.8471,5.7693,5.5867,5.5149,5.479,0.0,1.7582,1.7582,1.7582,1.7582,1.7689,1.7942,1.9556,2.1385,2.325,2.7779,3.1433,3.2954,3.5551,3.7402,3.8008,3.6953,3.5295,3.3038,3.194,3.1059,3.026,3.138,3.3433,3.6459,3.9082,4.1563,4.407,4.6112,4.7227,4.7613,4.9984,5.1066,5.1205,5.4692,5.6488,5.7131,6.2027,6.4671,6.586,6.9209,7.0738,7.0973,7.1891,6.9769,6.6245,6.5758,6.472,6.33,6.0676,5.9608,5.9069,5.7184,5.4491,0.0,0.0,0.0,0.0,0.0,0.0,0.0,0.0,0.0,0.0,0.0,0.0,0.0,0.0,0.0,0.0,0.0,0.0,0.0,6.2989,6.7089,7.056,7.2295,7.3552,7.439,7.4659,7.4809,7.5138,7.5826,7.5288,7.5168,7.5856,7.5258,7.4869,7.4869,7.4869,7.4869,7.4869,7.4749,7.418,7.3103,7.2295,7.1308,7.0141,0.0,0.0,6.6939,6.5054,6.4126,6.3947,6.278,6.2211,6.1972,6.0356,5.853,5.6795,5.7304,5.7094,5.6436,5.5538,5.485,5.4192,0.0,1.7582,1.7582,1.7582,1.7582,1.7742,1.8196,1.9029,2.044,2.2811,2.5727,2.8252,2.9992,3.2349,3.3794,3.3634,3.3669,3.2851,3.0703,3.0769,3.0529,2.9669,3.0124,3.163,3.4126,3.6474,3.846,4.0115,4.3405,4.5192,4.5552,4.754,4.9009,5.0103,5.1877,5.3724,5.5551,5.8396,6.093,6.3295,6.5523,6.6932,6.7971,7.0824,7.0161,6.7688,6.7395,6.6541,6.5261,6.3246,6.2121,6.1373,6.0027,5.7782,5.5149,0.0,0.0,0.0,0.0,0.0,0.0,0.0,0.0,0.0,0.0,0.0,0.0,0.0,0.0,5.6376,5.871,0.0,6.3325,6.558,6.9025,7.1517,7.1885,7.3664,7.4869,7.4869,7.4869,7.5138,7.5826,7.5288,7.5168,7.5856,7.5258,7.4869,7.4869,7.4869,7.4869,7.4869,7.424,7.3402,7.2415,7.1427,7.026,6.8974,6.7627,6.664,6.5951,6.4605,6.3827,6.3498,6.251,6.1912,6.1433,5.9069,5.7513,5.6585,5.6256,5.5748,5.5119,5.4431,5.3773,5.3054,0.0,1.7582,1.7582,1.7582,1.7635,1.7862,1.841,1.8544,1.9537,2.2288,2.3639,2.5109,2.6949,2.8876,2.9807,2.9228,3.0562,3.0707,2.9228,3.0079,3.008,2.9052,2.9325,3.0408,3.2356,3.4154,3.5616,3.68,4.0459,4.2693,4.3442,4.5456,4.7321,4.8866,4.9677,5.1599,5.4396,5.5089,5.7374,6.062,6.1445,6.2608,6.4158,6.6936,6.8218,6.8419,6.7485,6.6425,6.5238,6.4352,6.3079,6.1882,6.1732,6.0475,5.8471,5.5269,5.4461,0.0,0.0,0.0,0.0,0.0,0.0,0.0,0.0,5.4389,5.473,5.7513,5.868,6.0236,6.3617,6.4844,6.5967,6.793,7.0531,7.2023,7.1246,7.3279,7.4869,7.4869,7.4869,7.5138,7.5826,7.5288,7.5168,7.5856,7.5258,7.4869,7.4869,7.4869,7.4809,7.4689,7.3672,7.2654,7.1697,7.056,6.9243,6.7777,6.6999,6.5981,6.4814,6.4126,6.3558,6.3019,6.2241,6.1373,6.0356,5.8052,5.7034,5.6795,5.5628,5.47,5.3952,5.3384,5.2755,5.2097,0.0,1.7582,1.7582,1.7582,1.7809,1.8049,1.8437,1.8704,1.9176,2.0096,2.218,2.3688,2.3825,2.5496,2.7158,2.8701,3.0107,3.0686,3.0255,3.0868,3.0176,2.7595,2.777,2.8753,3.0535,3.084,3.2821,3.6646,3.7568,3.8988,4.0969,4.3325,4.4527,4.4902,4.8434,5.0245,5.0785,5.4061,5.6001,5.7129,5.8778,5.9512,5.9647,5.9527,6.2011,6.5672,6.6817,6.5198,6.2678,6.3676,6.275,6.1523,6.3169,6.3139,6.1972,5.9249,5.7244,5.5209,5.1798,5.2002,5.3875,5.6712,5.651,5.7205,0.0,6.2226,6.1014,6.4246,6.5892,6.7089,6.8136,6.9333,7.0034,6.9702,7.1914,7.3239,7.194,7.3613,7.4869,7.4869,7.4869,7.5138,7.5826,7.5288,7.5168,7.5856,7.5258,7.4869,7.4869,7.4869,7.4599,7.4031,7.3851,7.2894,7.1038,7.032,6.9004,6.7089,6.5832,6.4844,6.4096,6.3468,6.3139,6.3019,6.1762,6.0176,5.8381,5.7483,5.6765,5.6248,5.5478,5.4401,5.3294,5.3204,5.2755,5.2097,0.0,1.7582,1.7582,1.7582,1.7689,1.7876,1.8183,1.8275,1.8568,1.9212,2.0178,2.0798,2.0739,2.1979,2.3731,2.6082,2.7453,2.8325,2.8475,2.9544,2.9449,2.7888,2.7722,2.8042,2.8795,2.9815,3.1312,3.3336,3.6036,3.7915,3.9015,4.105,4.261,4.3847,4.5456,4.6843,4.809,5.1035,5.2984,5.4293,5.6172,5.7312,5.791,5.7273,5.7608,5.8754,6.0903,6.0872,0.0,6.1283,6.0924,6.0356,6.272,6.2211,6.0535,5.9428,5.7962,5.6496,5.5508,5.5581,5.6382,5.778,5.9204,6.1,6.3756,6.3909,6.4218,6.6642,6.8196,6.9423,7.05,7.1757,7.229,7.1217,7.3013,7.3892,7.2113,7.3672,7.4749,7.436,7.4629,7.4988,7.5288,7.5048,7.4988,7.5288,7.5048,7.4869,7.4869,7.4869,7.4569,7.3911,7.3133,7.1966,7.038,6.8944,6.7627,6.64,6.5084,6.4276,6.3977,6.3348,6.266,6.1912,6.1343,6.0206,5.862,5.7543,5.6944,5.6615,5.5598,5.461,5.3713,5.3324,5.2516,5.1588,0.0,1.7582,1.7582,1.7582,1.7582,1.7689,1.7942,1.8062,1.8262,1.8744,1.8811,1.8771,1.8635,1.9346,2.0838,2.3424,2.4757,2.5815,2.6709,2.8178,2.8691,2.8009,2.7856,2.7816,2.7816,2.9057,3.0129,3.0914,3.4142,3.6368,3.7733,3.9174,4.0855,4.2885,4.3464,4.4484,4.5954,4.8798,5.0666,5.196,5.3926,5.5168,5.5663,5.4619,5.3549,5.2972,5.5909,5.6505,5.6258,5.8124,5.8052,5.7663,6.0326,5.9847,5.8321,5.8501,5.7189,5.5931,5.678,5.7393,5.8091,5.9214,6.1913,6.4421,6.4722,6.5555,6.6705,6.8205,6.9542,7.0799,7.1966,7.3103,7.3447,7.2127,7.3603,7.4189,7.2171,7.3426,7.436,7.3702,7.3881,7.4121,7.43,7.4659,7.4869,7.4869,7.4869,7.4869,7.4869,7.4689,7.43,7.3642,7.2325,7.0919,6.9453,6.7807,6.646,6.5443,6.4455,6.3917,6.3707,6.3079,6.2181,6.1104,6.0894,6.0086,5.874,5.7573,5.7004,5.6735,5.5628,5.467,5.3862,5.3354,5.2456,5.1439,0.0,0.0,1.7582,1.7582,1.7582,1.7689,1.7942,1.829,1.8477,1.8504,1.8504,1.8397,1.8049,1.8063,1.8987,2.1284,2.2571,2.3976,2.5701,2.745,2.812,2.7323,2.7913,2.8207,2.8207,2.8207,2.9119,3.0847,3.131,3.3564,3.7355,3.7794,3.9179,4.1366,4.3283,4.4151,4.4431,4.8338,5.0032,5.0245,5.2164,5.2646,5.1984,4.9859,4.9261,5.0094,5.3724,5.3093,5.1025,5.4289,5.4042,5.2875,5.5538,5.6368,5.6376,5.6974,5.4812,5.2565,5.3932,5.564,5.7997,6.1945,6.4909,6.7265,6.8625,6.8911,6.9097,6.9752,7.0919,7.2056,7.2744,7.3432,7.3447,7.2127,7.3603,7.4189,7.2171,7.3043,7.3672,7.3013,7.2355,7.2235,7.2924,7.4121,7.4869,7.4869,7.4869,7.4869,7.4869,7.427,7.3612,7.2954,7.1637,6.9991,6.8046,6.7358,6.6011,6.4066,6.4006,6.3677,6.3079,6.2421,6.1762,6.1074,6.0416,5.9368,5.8112,5.7393,5.6735,5.6188,5.5448,5.4371,5.3204,5.3204,5.2755,5.1977,0.0,0.0,0.0,0.0,0.0,1.8143,1.8036,1.7943,1.7969,1.8115,1.837,0.0,0.0,0.0,0.0,0.0,2.083,2.1985,2.3192,2.4913,2.5944,2.6066,2.7228,2.7762,2.7645,2.802,2.8503,2.9049,3.0617,3.1966,3.3162,3.6166,3.7636,3.8005,4.0269,4.1334,4.1464,4.4129,4.5574,4.6257,4.8094,4.8918,4.8937,4.8004,4.6636,4.5407,0.0,4.774,4.7959,4.9055,4.9787,5.0631,5.2845,5.2935,5.2276,5.2438,5.3327,5.4119,5.3879,5.6385,5.9404,6.0958,6.4607,6.7989,6.882,7.0067,7.0829,7.0157,6.9961,6.9901,6.9662,7.0201,7.0783,7.1199,7.2551,7.3648,7.3833,7.4316,7.4151,7.3043,7.3103,7.2954,7.2295,7.3043,7.3941,7.4809,7.4869,7.4869,7.4869,7.424,7.3373,7.2265,7.0979,6.9333,6.7358,6.6221,6.5114,6.4006,6.3588,6.3049,6.2421,6.2181,6.1253,5.9757,5.9548,5.868,5.7393,5.6735,5.6346,5.6128,5.497,5.4251,5.3773,5.2845,5.2127,5.1439,0.0,0.0,0.0,0.0,0.0,0.0,0.0,0.0,0.0,0.0,0.0,0.0,0.0,0.0,0.0,0.0,0.0,2.0428,2.1309,2.2819,2.3995,2.4703,2.5838,2.636,2.6172,2.644,2.6814,2.7135,2.8452,2.9632,3.055,3.3293,3.5078,3.6098,3.7671,3.8874,3.9778,4.142,4.249,4.333,4.4687,4.5244,4.5141,4.4731,4.3276,0.0,4.1542,4.2836,4.4533,4.5245,4.6549,4.8117,4.9613,5.0106,5.0285,5.0764,5.2171,5.3791,5.5013,5.6709,5.8778,6.1257,6.4685,6.7819,6.91,7.0393,7.1042,6.9916,6.8734,6.7807,6.7358,6.7448,6.8016,6.9303,7.044,7.1787,7.3552,7.3612,7.3313,7.2954,7.3073,7.2924,7.2325,7.2654,7.3373,7.445,7.4749,7.4779,7.454,7.3911,7.2924,7.1577,7.0051,6.8405,6.667,6.5323,6.4336,6.3647,6.3258,6.272,6.2091,6.1852,6.0775,5.9099,5.886,5.7992,5.6735,5.6346,5.6047,5.5718,5.464,5.4072,5.3713,5.2606,5.1798,5.1079,0.0,0.0,0.0,0.0,0.0,0.0,0.0,0.0,0.0,0.0,0.0,0.0,0.0,0.0,0.0,0.0,0.0,0.0,2.0073,2.1283,2.2325,2.318,2.3834,2.4168,2.4155,2.3928,2.4222,2.5064,2.5064,2.6502,2.9314,2.9483,3.1522,3.5278,3.5371,3.6645,3.8852,3.9971,4.0668,4.1102,4.186,4.1647,4.0751,4.0082,3.9253,3.8353,3.7568,3.8757,4.1013,4.2895,4.4438,4.5663,4.6381,4.8342,5.0644,5.2007,5.1719,5.2016,5.6932,5.6707,5.6477,6.2543,6.5072,6.6693,6.9179,6.9743,6.9598,6.8884,6.7148,6.5712,6.5622,6.5144,6.5233,6.667,6.7567,6.9004,7.1667,7.1517,7.1577,7.2804,7.2385,7.2235,7.2864,7.2954,7.3223,7.3851,7.451,7.4599,7.3941,7.3223,7.2235,7.0889,6.8944,6.7298,6.5981,6.4635,6.3647,6.3079,6.3049,6.269,6.2032,6.1373,6.0296,5.8949,5.8351,5.7334,5.6188,5.6188,5.5748,5.5119,5.4431,5.3743,5.3084,5.2366,5.1678,5.093,0.0,0.0,0.0,0.0,0.0,0.0,0.0,0.0,0.0,0.0,0.0,0.0,0.0,0.0,0.0,0.0,0.0,0.0,1.9573,2.0681,2.143,2.167,2.3086,2.3781,2.3554,2.4115,2.4529,2.4756,2.4756,2.5039,2.5631,2.7438,2.8588,2.9161,3.098,3.2157,3.2773,3.4016,3.4736,3.5237,3.6539,3.7151,3.7313,3.7685,3.7854,3.7881,3.8003,3.9492,4.1532,4.2077,4.5252,4.9119,5.0331,5.1858,5.3443,5.476,5.5421,5.5762,5.6368,5.7429,5.8674,5.9995,6.1574,6.3441,6.5774,6.6403,6.63,6.5441,6.3707,6.1912,6.0416,6.0805,6.2271,6.5084,6.7747,7.056,7.3672,7.3971,7.3821,7.3672,7.3492,7.3253,7.2954,7.3343,7.3702,7.3881,7.451,7.4599,7.3941,7.2774,7.1547,7.026,6.8286,6.661,6.5293,6.3977,6.3228,6.3079,6.257,6.2002,6.1343,6.0655,5.9338,5.7603,5.7423,5.6615,5.5448,5.5448,5.5329,5.5059,5.3892,5.3324,5.2995,5.1349,5.0331,4.9689,0.0,0.0,0.0,0.0,0.0,0.0,0.0,0.0,0.0,0.0,0.0,0.0,0.0,0.0,0.0,0.0,0.0,0.0,0.0,1.9987,2.0454,2.0708,2.1563,2.2004,2.1964,2.2325,2.2699,2.3086,2.3086,2.3207,2.342,2.4679,2.5516,2.5974,2.7356,2.8541,2.9597,3.0591,3.1239,0.0,0.0,3.3103,3.3317,3.4324,3.5273,3.618,3.6962,4.0058,4.401,4.4828,4.7771,5.1379,5.2995,5.4431,5.5867,5.7782,5.7765,5.7346,5.8115,5.8199,5.8435,5.9766,6.0676,6.1603,6.3018,6.365,6.3381,6.141,6.0086,5.883,5.7154,5.7902,5.9757,6.281,6.5832,6.9273,7.3432,7.4001,7.43,7.5078,7.4958,7.4629,7.427,7.43,7.433,7.433,7.4659,7.445,7.3522,7.2475,7.1038,6.9153,6.7448,6.5802,6.4186,6.3438,6.3079,6.3079,6.269,6.2032,6.1104,6.0715,5.9428,5.7513,0.0,5.6526,5.5568,5.4999,5.476,5.464,5.3264,5.2755,5.2546,5.0823,5.0002,4.9553,0.0,0.0,0.0,0.0,0.0,0.0,0.0,0.0,0.0,0.0,1.8651,0.0,0.0,0.0,0.0,0.0,0.0,0.0,0.0,0.0,1.9613,2.0147,1.9933,1.9933,2.0167,1.9987,2.0227,2.0989,2.0989,2.1376,2.2124,2.1871,2.2632,2.4212,2.4212,2.5324,2.727,2.8079,2.8689,2.9173,2.9582,2.9597,2.9581,0.0,3.2319,3.3915,3.5667,4.0567,4.659,4.9009,5.1366,5.3593,5.5508,5.7094,5.8686,6.0883,5.9638,5.8109,6.0481,5.8806,5.7213,6.0441,6.0624,6.0146,6.0411,6.0799,6.0222,5.7223,5.6354,5.5922,5.4999,5.5777,5.7633,6.0835,6.3438,6.6939,7.2415,7.3103,7.3941,7.6425,7.6155,7.5796,7.5886,7.5288,7.4869,7.4869,7.4809,7.421,7.2984,7.2086,7.038,6.7657,6.64,6.4874,6.3079,6.3079,6.3079,6.3079,6.2989,6.2301,6.1104,6.1014,5.9937,5.8082,5.7483,5.6825,5.6077,5.494,5.4371,5.4072,5.2815,5.2276,5.2037,5.0584,5.0076,4.9867,0.0,0.0,0.0,0.0,0.0,0.0,0.0,0.0,0.0,0.0,1.9519,1.9345,0.0,0.0,0.0,0.0,0.0,0.0,0.0,0.0,0.0,1.9867,1.9826,1.9933,2.0167,2.0127,2.0167,2.0388,2.0388,2.0406,2.0553,2.0561,2.0719,2.1012,2.1012,2.1224,2.168,2.3187,2.4413,2.5408,2.676,2.7825,2.8648,2.9553,0.0,0.0,3.7208,4.108,4.4972,5.0663,5.5348,5.8979,6.0446,6.254,6.4338,6.3761,6.2547,6.1206,6.0161,5.874,5.785,5.8959,5.8071,5.7005,5.7097,5.5832,5.446,5.3906,5.2549,5.1745,5.2562,5.3354,5.5807,6.1762,6.4036,6.7268,7.3642,7.4061,7.43,7.5886,7.5467,7.5288,7.5856,7.5288,7.4869,7.4869,7.436,7.3732,7.2954,7.1218,6.8794,6.5652,6.4755,6.3947,6.3079,6.3079,6.3079,6.3079,6.254,6.1852,6.1104,6.0535,5.9488,5.8112,5.7992,0.0,5.6166,5.5927,5.5179,5.4132,5.3324,5.2665,5.1977,5.0122,4.9434,4.9254,0.0,0.0,0.0,0.0,0.0,0.0,0.0,1.9367,2.0027,2.1216,2.1256,2.1002,2.0535,2.0334,2.0241,0.0,0.0,0.0,0.0,0.0,0.0,0.0,0.0,0.0,2.1466,2.1237,2.0833,2.0167,0.0,2.0167,2.0227,2.008,1.992,1.9786,1.9786,1.9786,1.9951,2.2296,2.3568,2.4271,2.6791,2.8169,2.8711,0.0,0.0,0.0,3.6102,3.9721,4.3441,4.692,5.2237,5.8059,6.2258,6.4725,6.5796,6.4897,6.3789,6.2549,6.0952,5.9447,5.8453,5.8981,5.7876,5.611,5.4125,5.2801,5.1383,4.9282,4.857,4.8461,4.9005,5.0796,5.3671,5.8228,6.1246,6.5293,7.1876,7.2535,7.3343,7.6066,7.5796,7.5557,7.5886,7.5288,7.4749,7.439,7.3762,7.3103,7.2415,6.9512,6.6999,6.5084,6.4036,6.3378,6.3079,6.3079,6.3079,6.3079,6.2421,6.1762,6.1104,6.0416,5.9548,5.859,5.7902,5.7244,5.6585,5.5568,5.4551,5.3593,5.2935,5.2276,5.1528,5.0242,4.9553,4.9179,0.0,0.0,0.0,0.0,0.0,0.0,2.0013,2.0294,2.0975,2.2512,2.2859,2.2605,2.1683,2.1056,2.0695,0.0,0.0,0.0,0.0,0.0,0.0,0.0,0.0,0.0,2.3165,0.0,0.0,2.0758,2.0409,0.0,0.0,0.0,0.0,0.0,1.9802,1.9935,2.004,2.2322,2.371,0.0,0.0,2.8358,2.9004,0.0,0.0,0.0,0.0,3.7598,4.1509,4.2856,4.7652,5.4109,6.0355,6.3533,6.4751,6.3863,6.3273,6.2508,6.1164,5.9867,5.8981,5.9382,5.8152,5.5867,5.2126,5.0601,4.9035,4.5546,4.5115,4.5541,4.6178,4.8446,5.1403,5.4844,5.8103,6.266,6.9542,7.062,7.2116,7.5946,7.5976,7.5736,7.5886,7.5288,7.4599,7.3941,7.2894,7.1996,7.1308,6.8196,6.6011,6.5054,6.3887,6.3199,6.3079,6.3079,6.3079,6.3079,6.254,6.1882,6.1104,6.0565,5.9877,5.9039,5.7842,5.7244,0.0,5.5299,5.4042,5.3144,5.2606,5.1917,5.1139,5.0435,4.9823,4.9209,0.0,0.0,0.0,0.0,0.0,0.0,1.9746,2.0521,2.1657,2.342,2.3434,2.3247,2.314,2.2579,2.1804,0.0,0.0,0.0,0.0,0.0,0.0,0.0,0.0,0.0,0.0,0.0,0.0,2.2468,2.0939,0.0,0.0,0.0,0.0,0.0,0.0,2.1639,2.1415,2.1699,0.0,0.0,0.0,0.0,0.0,0.0,0.0,0.0,0.0,3.53,3.8466,4.2066,4.5033,4.7946,5.2212,5.727,6.1173,5.9372,5.9844,6.0632,5.9336,5.9209,5.9433,5.9483,5.7876,5.5415,5.2051,4.8938,4.6264,4.4622,4.3065,4.2904,4.5806,4.6591,4.8875,5.5021,5.6834,6.0206,6.8076,6.9692,7.1308,7.4659,7.5018,7.5228,7.5856,7.5288,7.4599,7.3941,7.1637,6.9961,6.9303,6.8315,6.6939,6.5084,6.4306,6.3647,6.3079,6.3079,6.3079,6.3079,6.3019,6.2331,6.1104,6.1044,6.0326,5.9069,5.8351,5.7663,0.0,5.6286,5.488,5.3174,5.3114,5.2336,5.1139,5.0435,4.9823,4.9209,0.0,0.0,0.0,0.0,0.0,0.0,2.0214,2.0628,2.1617,2.3754,2.3928,2.3995,2.4342,2.3701,2.3011,2.2486,0.0,0.0,0.0,0.0,0.0,0.0,0.0,0.0,0.0,0.0,2.3925,2.3246,2.1541,0.0,0.0,0.0,0.0,0.0,0.0,2.1931,2.1985,2.3869,0.0,0.0,0.0,0.0,0.0,0.0,0.0,0.0,0.0,0.0,3.5212,3.7652,4.0269,4.2927,4.5059,4.8474,5.2296,5.5287,5.7588,5.9024,5.8375,5.8855,5.9408,5.9106,5.7097,5.4436,5.1448,4.7933,4.4868,4.3304,4.1619,4.1309,4.4052,4.4325,4.5956,5.1696,5.2457,5.4893,6.2037,6.3258,6.5413,7.0709,7.1667,7.2804,7.5078,7.4689,7.3672,7.2206,7.0769,6.9333,6.7867,6.7148,6.6251,6.5054,6.4366,6.3707,6.3079,6.3079,6.3079,6.3079,6.2271,6.1613,6.1074,6.0266,5.9608,5.9039,5.7962,5.7363,0.0,5.5987,5.464,5.3174,5.3174,5.2366,5.1199,5.0883,5.0152,4.9269,0.0,0.0,0.0,0.0,0.0,1.9559,2.0535,2.0748,2.159,2.3794,2.4075,2.4302,2.489,2.4088,2.3708,2.4218,2.23,0.0,0.0,0.0,0.0,0.0,0.0,0.0,0.0,0.0,2.5764,2.444,2.2869,2.1861,0.0,0.0,2.1086,2.1263,0.0,0.0,0.0,0.0,0.0,0.0,0.0,0.0,0.0,0.0,0.0,0.0,0.0,0.0,0.0,0.0,0.0,3.9674,4.0575,4.2434,4.5363,5.0935,5.4275,5.628,5.676,5.7826,5.873,5.8529,5.6369,5.3632,5.1021,4.7405,4.4116,4.2283,4.1018,4.0747,4.2242,4.3181,4.4985,4.8773,4.9965,5.2473,5.8304,5.9458,6.1732,6.7178,6.8375,6.9931,7.2864,7.3253,7.2624,7.1009,7.0141,6.8884,6.7089,6.637,6.5622,6.4755,6.4246,6.3707,6.3079,6.2869,6.278,6.278,6.1642,6.1014,6.0775,5.9638,5.9009,5.874,5.7393,5.6825,0.0,5.5628,5.4401,5.3174,5.3174,5.2366,5.1199,5.099,5.0212,4.9269,0.0,0.0,0.0,0.0,0.0,0.0,2.0494,2.0922,2.175,2.3541,2.3768,2.3995,2.4583,2.3581,2.3653,2.5623,2.4138,0.0,0.0,0.0,0.0,0.0,0.0,0.0,0.0,0.0,2.8193,2.6372,2.5182,2.3703,2.1964,2.1748,2.232,2.3606,0.0,0.0,0.0,0.0,0.0,0.0,0.0,0.0,0.0,0.0,0.0,0.0,0.0,0.0,0.0,0.0,0.0,0.0,0.0,4.0475,4.2103,4.605,4.9138,5.1867,5.4079,5.5792,5.7198,5.7775,5.5792,5.313,5.0921,4.7405,4.3933,4.1752,4.1441,4.1352,4.0662,4.3732,4.6567,4.723,5.0606,5.4551,5.853,6.0236,6.2091,6.4755,6.5652,6.6849,6.8854,7.0799,7.1637,7.0949,6.9722,6.8405,6.7059,6.637,6.5383,6.4066,6.4006,6.3707,6.3079,6.2421,6.2121,6.2091,6.1433,6.0745,6.0086,5.9398,5.874,5.8052,5.6735,5.6248,0.0,5.5478,5.4401,5.3174,5.3174,5.2366,5.1139,5.0435,4.9823,4.9209,0.0,0.0,0.0,0.0,0.0,0.0,0.0,1.9987,2.0548,2.2325,2.2378,2.2792,2.4182,2.346,2.4186,2.7327,2.5116,0.0,0.0,0.0,0.0,0.0,0.0,0.0,0.0,2.9828,2.9235,2.8982,2.7764,2.637,2.4858,2.4101,2.3321,2.2563,2.4483,2.5551,0.0,0.0,0.0,0.0,0.0,0.0,3.0898,0.0,0.0,0.0,0.0,0.0,0.0,0.0,0.0,0.0,0.0,0.0,0.0,4.2529,4.5422,4.8284,5.0117,5.1825,5.2955,5.2377,5.1272,4.9866,4.8033,4.5472,4.3187,4.2108,4.2112,4.2306,4.2449,4.428,4.6756,4.9551,5.068,5.2464,5.5944,5.7962,6.0386,6.3917,6.8525,7.1278,7.1009,7.1128,7.056,6.9004,6.8106,6.6849,6.5054,6.4755,6.4425,6.4006,6.4006,6.3498,6.2421,6.2211,6.1882,6.1433,6.0745,6.0057,5.9398,5.874,5.8052,5.7363,5.6526,5.5927,0.0,5.479,5.3713,5.2456,5.2007,5.1319,5.0435,4.9823,4.9164,4.8566,0.0,0.0,0.0,0.0,0.0,0.0,0.0,1.9639,2.004,2.147,2.1496,2.2017,2.3688,2.3073,2.4017,2.752,2.648,0.0,0.0,0.0,0.0,0.0,0.0,0.0,3.0879,3.0657,3.0585,3.0645,3.0202,2.9294,2.7909,2.7205,2.6308,2.5367,2.648,2.7194,0.0,0.0,0.0,0.0,0.0,0.0,3.0898,0.0,0.0,0.0,0.0,0.0,0.0,0.0,0.0,0.0,0.0,0.0,0.0,0.0,4.3527,4.5912,4.746,4.8912,4.9941,4.9665,4.928,4.8569,4.7053,4.5386,4.3934,4.3153,4.3336,4.3585,4.3471,4.5143,4.7253,4.9482,5.0251,5.1807,5.5108,5.7034,5.9578,6.3528,6.8525,7.1248,7.0141,7.0141,6.9482,6.7717,6.6999,6.5862,6.4096,6.3767,6.3528,6.3288,6.3288,6.2899,6.2121,6.1583,6.1014,6.0356,5.9907,5.9249,5.8321,5.7932,5.7363,5.6705,5.5807,5.5209,0.0,5.4102,5.3174,5.2127,5.1468,5.0764,5.0076,4.9224,4.8626,4.8237,0.0,0.0,0.0,0.0,0.0,0.0,0.0,1.9786,2.008,2.0935,2.1042,2.159,2.302,2.2458,2.3387,2.6768,2.7848,0.0,0.0,0.0,0.0,0.0,0.0,0.0,3.0937,3.1777,3.2047,3.16,3.252,3.2276,3.0909,3.0713,3.0632,3.0696,2.9996,3.04,3.1445,0.0,0.0,0.0,3.0937,3.0937,0.0,0.0,0.0,0.0,0.0,0.0,0.0,0.0,0.0,0.0,0.0,0.0,0.0,0.0,0.0,0.0,0.0,4.6869,4.7806,4.8686,4.8891,4.851,4.735,4.6571,0.0,4.4594,4.495,4.511,4.3907,4.628,4.8208,4.7764,4.9734,5.2486,5.5718,5.7573,5.9997,6.3767,6.655,6.7867,6.7059,6.8136,6.8286,6.6939,6.6251,6.5293,6.4006,6.3348,6.272,6.2121,6.1942,6.1882,6.1882,6.0625,5.9668,5.8949,5.8949,5.8291,5.7034,5.7034,5.6675,0.0,5.473,0.0,0.0,5.3384,5.2725,5.2067,5.1349,5.069,4.9956,4.8686,4.8207,4.8117,0.0,0.0,0.0,0.0,0.0,0.0,0.0,0.0,0.0,0.0,2.0441,2.0748,2.1537,2.1844,2.3568,0.0,0.0,0.0,0.0,0.0,0.0,0.0,0.0,0.0,3.1367,3.2207,3.2918,3.3462,3.4979,3.4826,3.3091,3.3214,3.1982,2.9749,3.0088,3.0512,3.1055,3.1269,0.0,0.0,3.1367,3.1367,0.0,0.0,0.0,0.0,3.0898,3.255,0.0,0.0,0.0,0.0,0.0,0.0,0.0,0.0,4.2712,4.3836,4.454,0.0,4.4025,4.2937,4.3987,4.5125,0.0,4.4767,4.5238,4.4936,4.5571,4.6071,4.5706,4.7525,4.9337,5.022,5.1729,5.3533,5.5837,6.0356,6.4126,6.6041,6.8615,6.9363,6.7208,6.7268,6.6909,6.5592,6.4844,6.4126,6.3318,6.269,6.2241,6.2091,6.0625,5.9817,5.9817,5.9488,5.874,5.7573,5.7573,5.7154,5.6376,5.6376,5.5748,5.464,5.4341,0.0,5.2665,5.2486,5.2037,5.1319,5.0182,4.9643,4.9344,4.8027,4.7549,4.7519,0.0,0.0,0.0,0.0,0.0,0.0,0.0,0.0,0.0,0.0,2.0167,2.0454,2.1042,2.163,0.0,0.0,0.0,0.0,0.0,0.0,0.0,0.0,0.0,3.1426,3.2587,3.271,3.3875,3.6082,3.67,3.6637,3.5965,3.592,3.4566,3.2111,3.1477,3.1089,3.0898,3.1133,3.1348,3.1504,3.1309,0.0,0.0,0.0,0.0,0.0,3.0898,3.2379,0.0,3.5391,3.7021,3.8841,0.0,0.0,0.0,0.0,4.3787,4.5173,4.4912,4.449,4.3996,4.3254,4.4528,4.5843,4.5189,4.5809,4.6461,4.6175,4.6488,4.6894,4.7174,4.8358,4.9729,5.1071,5.2367,5.4401,5.7932,6.2241,6.5622,6.7238,6.8974,6.9243,6.7178,6.6729,6.5981,6.4665,6.3947,6.3288,6.266,6.2002,6.1493,6.1194,5.9548,5.88,5.9099,5.8501,5.7663,5.6675,5.6944,5.6615,5.5718,5.6047,5.5448,5.4192,5.3862,0.0,5.2157,5.1558,5.1079,5.0584,4.9344,4.885,4.873,4.7668,4.7309,4.7309,0.0,0.0,0.0,0.0,0.0,0.0,0.0,0.0,0.0,0.0,0.0,0.0,0.0,0.0,0.0,0.0,0.0,0.0,0.0,0.0,0.0,0.0,3.1466,3.2246,3.418,3.374,3.506,3.8235,3.7924,3.7999,3.8379,3.834,3.7305,3.5391,3.3359,3.1914,3.0996,3.0996,3.1191,3.1484,3.1133,0.0,0.0,0.0,0.0,0.0,0.0,0.0,0.0,3.5053,3.6452,3.7814,3.9516,0.0,0.0,0.0,0.0,0.0,4.6001,4.5997,4.6097,4.5818,4.6792,4.775,4.7098,4.7548,4.7967,4.7429,4.7309,4.7608,4.8566,4.9105,4.9942,5.1558,5.3084,5.5807,6.0715,6.3588,6.5802,6.7478,6.8286,6.8136,6.667,6.6041,6.5203,6.3947,6.3288,6.269,6.2121,6.1373,6.0655,5.9967,5.865,5.8201,5.865,5.7513,5.6645,5.6017,5.6555,5.6226,5.5209,5.5658,5.5209,5.4012,0.0,0.0,5.1947,5.0704,5.0196,5.0076,4.8805,4.8297,4.8207,4.7549,4.7309,4.7309,0.0,0.0,0.0,0.0,0.0,0.0,0.0,0.0,0.0,0.0,0.0,0.0,0.0,0.0,0.0,0.0,0.0,0.0,0.0,0.0,0.0,3.2617,3.303,3.3997,3.5652,3.6318,3.6967,3.7465,3.9046,3.905,3.7539,3.9297,3.8613,3.5859,3.4414,3.291,3.1426,3.1426,3.1465,3.1504,3.1445,0.0,0.0,0.0,0.0,0.0,0.0,0.0,0.0,3.3445,3.5333,3.753,3.7838,0.0,0.0,0.0,0.0,0.0,4.7348,4.9054,4.9256,4.4993,4.5308,4.6501,4.5821,4.6623,4.7429,4.7339,4.7309,4.8027,5.0331,5.0391,5.1079,5.4102,5.6615,5.9279,6.2331,6.4545,6.5981,6.6281,6.6909,6.655,6.4635,6.4366,6.4006,6.3258,6.263,6.2211,6.2091,6.0924,5.9937,5.9279,5.7962,5.7064,5.6615,5.6406,5.5987,5.5329,5.5448,5.5388,5.5179,5.473,5.4072,5.3294,0.0,5.1977,5.1319,5.0495,5.0196,5.0076,4.8805,4.8297,4.8207,4.7549,4.7309,4.7309,0.0,0.0,0.0,0.0,0.0,0.0,0.0,0.0,0.0,0.0,0.0,0.0,0.0,0.0,0.0,0.0,0.0,0.0,0.0,0.0,3.1795,3.2019,3.4653,3.6529,3.7281,3.8519,3.9978,4.1591,4.1641,4.1161,4.0279,3.9241,3.7676,3.5605,3.4062,3.2695,3.1504,3.1269,3.1309,3.1504,0.0,0.0,0.0,0.0,0.0,0.0,0.0,0.0,0.0,0.0,3.3956,3.6024,3.6535,0.0,0.0,0.0,0.0,0.0,4.6618,4.8147,4.8685,4.7078,4.8354,4.9805,4.8757,4.8698,4.8895,4.8895,4.8596,4.9045,5.1349,5.2097,5.3713,5.7723,5.9697,6.1403,6.3318,6.4366,6.5203,6.5922,6.5951,6.5562,6.4635,6.4216,6.3737,6.3139,6.248,6.1942,6.1583,6.0625,5.9608,5.859,5.7603,5.6795,5.6248,5.5807,5.5478,5.5179,5.5179,5.4999,5.464,5.4341,5.3653,5.2636,0.0,5.1618,5.0584,4.9972,4.9494,4.9075,4.8117,4.7758,4.7728,4.7429,4.7309,4.7309,0.0,0.0,0.0,0.0,0.0,0.0,0.0,0.0,0.0,0.0,0.0,0.0,0.0,0.0,0.0,0.0,0.0,0.0,0.0,2.9374,3.089,3.1222,3.5851,3.8664,3.9295,4.0938,4.3004,4.5467,4.4514,4.3808,4.3226,3.953,3.707,3.5762,3.4023,3.2656,3.1641,3.1328,3.125,3.1348,0.0,0.0,0.0,0.0,0.0,0.0,0.0,0.0,0.0,0.0,0.0,0.0,0.0,0.0,0.0,4.1132,4.2272,4.3573,4.54,4.6794,4.7967,4.888,5.0541,5.1977,5.1738,5.105,5.0584,5.1212,5.087,5.093,5.2606,5.4132,5.6436,6.0475,6.1912,6.2989,6.4306,6.4485,6.4844,6.5892,6.5293,6.4784,6.4784,6.4186,6.3528,6.2899,6.2241,6.1583,6.0894,6.0086,5.9099,5.7932,5.7244,5.6585,5.5957,5.5448,5.5179,5.5179,5.5179,5.485,5.4192,5.4042,5.3324,5.2187,5.1887,5.1169,5.0136,4.9374,4.8745,4.8207,4.7549,4.7309,4.7309,4.7309,4.7309,4.7309,0.0,0.0,0.0,0.0,0.0,0.0,0.0,0.0,0.0,0.0,0.0,0.0,0.0,0.0,0.0,0.0,0.0,0.0,0.0,2.8537,3.0538,3.0807,3.6039,3.9871,4.1907,4.4036,4.5503,4.6275,4.738,4.6819,4.4655,4.0873,3.8379,3.709,3.5332,3.3652,3.2129,3.215,3.1641,3.0957,3.1328,0.0,0.0,0.0,0.0,0.0,0.0,0.0,0.0,0.0,0.0,0.0,0.0,0.0,3.6941,3.995,4.1314,4.2227,4.4205,4.6889,4.906,4.8476,4.8506,4.9404,5.2366,5.2067,5.1858,5.4311,5.4311,5.4072,5.485,5.6555,5.856,6.0745,6.266,6.4336,6.5682,6.5862,6.5892,6.6011,6.4874,6.4066,6.4066,6.3498,6.2869,6.2211,6.1553,6.0894,6.0206,5.8949,5.7932,5.7184,5.6555,5.5927,5.5269,5.5209,5.5179,5.5179,5.5179,5.485,5.4192,5.3563,5.2875,5.2127,5.0853,5.0285,5.0076,4.8865,4.8327,4.8207,4.7549,4.7309,4.7309,4.7309,4.7309,4.7309,0.0,0.0,0.0,0.0,0.0,0.0,0.0,0.0,0.0,0.0,0.0,0.0,0.0,0.0,0.0,0.0,0.0,0.0,0.0,2.6328,2.8644,2.9244,3.434,3.8415,4.1062,4.5348,4.8357,4.9932,4.99,4.8367,4.5483,4.1895,3.9347,3.7595,3.4987,3.3262,3.2229,3.2229,3.1816,3.1289,3.1445,3.1269,0.0,0.0,0.0,0.0,0.0,0.0,0.0,0.0,3.0079,3.1593,3.3011,3.4388,3.5985,3.8407,3.9798,4.0979,4.2869,4.5653,4.8087,4.8237,4.8596,4.9763,5.3054,5.3743,5.4192,5.5987,5.6526,5.6705,5.6974,5.865,6.0356,6.1523,6.2989,6.4336,6.5263,6.5413,6.5413,6.5413,6.4575,6.4006,6.4006,6.3079,6.2361,6.2121,6.1104,6.0176,5.9518,5.862,5.7633,5.6555,5.5897,5.5448,5.5179,5.4371,5.4162,5.4581,5.4581,5.4221,5.3563,5.2875,5.2217,5.1528,5.0584,5.0002,4.9553,4.8656,4.8027,4.7638,4.7399,4.7309,4.7309,4.7309,4.7309,4.7309,0.0,0.0,0.0,0.0,0.0,0.0,0.0,0.0,0.0,0.0,0.0,0.0,0.0,0.0,0.0,0.0,0.0,0.0,2.2295,2.5217,2.7507,2.8707,3.3257,3.7234,4.0298,4.5116,4.8764,5.1322,5.0783,4.9224,4.6663,4.3258,4.0494,3.8151,3.5709,3.3985,3.2754,3.2617,3.2168,3.1523,3.1523,3.1269,0.0,0.0,0.0,0.0,0.0,0.0,0.0,0.0,2.9273,3.042,3.1741,3.3271,3.4928,3.6679,3.8751,4.0697,4.1766,4.4485,4.716,4.7818,4.8775,5.0511,5.4012,5.5029,5.5867,5.8201,5.8381,5.8171,5.8411,5.9398,6.0535,6.1613,6.3019,6.4246,6.4934,6.4844,6.4695,6.4695,6.4126,6.3617,6.3408,6.26,6.1912,6.1493,6.0595,5.9697,5.883,5.7992,5.7004,5.5897,5.4999,5.4551,5.4551,5.3653,5.3414,5.3892,5.3683,5.3324,5.2845,5.2187,5.1528,5.0823,4.9956,4.9374,4.894,4.8237,4.7698,4.7309,4.7309,4.7309,4.7309,4.7309,4.7309,4.7309,0.0,0.0,0.0,0.0,0.0,0.0,0.0,0.0,3.152,2.9785,0.0,0.0,0.0,0.0,0.0,0.0,0.0,0.0,2.3832,2.5595,2.7441,2.9377,3.3276,3.6859,4.0005,4.3224,4.6451,4.9615,4.9862,4.9414,4.8252,4.5004,4.19,3.8984,3.78,3.6134,3.4088,3.3594,3.2676,3.1523,3.1523,3.1269,3.084,0.0,0.0,0.0,0.0,0.0,0.0,0.0,2.8633,2.8686,3.1075,3.2423,3.3453,3.4799,3.8302,4.1542,4.0952,4.3459,4.6429,4.713,4.8775,5.1242,5.5269,5.5688,5.6526,6.1164,5.9997,5.8351,5.9009,5.859,5.88,6.0805,6.272,6.4216,6.4904,6.4425,6.3977,6.3977,6.3438,6.281,6.2151,6.2091,6.1523,6.0176,6.0057,5.9488,5.8171,5.6885,5.5867,5.5179,5.3862,5.3174,5.3174,5.3174,5.3174,5.3174,5.2486,5.2187,5.2187,5.1498,5.0794,5.0136,4.8835,4.8297,4.8237,4.7578,4.7309,4.7309,4.7309,4.7309,4.7309,4.7309,4.7309,4.7309,0.0,0.0,0.0,0.0,0.0,0.0,0.0,0.0,3.1733,3.1803,3.0482,0.0,0.0,0.0,0.0,0.0,0.0,0.0,2.3133,2.4579,2.6389,2.8612,3.0953,3.3976,3.7655,4.2735,4.6898,5.0167,5.0663,4.9924,4.7982,4.5477,4.3112,4.0762,3.9663,3.7916,3.5886,3.5018,3.4019,3.2977,3.19,3.1269,3.084,0.0,0.0,0.0,0.0,0.0,0.0,0.0,0.0,0.0,3.1245,3.2412,3.3069,3.4895,3.775,4.0184,3.9637,4.2493,4.5873,4.701,4.9134,5.1858,5.5359,5.6735,5.8291,6.2032,6.1433,6.0296,6.0475,6.0356,6.0416,6.1014,6.1972,6.2899,6.3558,6.3468,6.3348,6.3348,6.278,6.2301,6.2121,6.1224,6.0326,5.9458,5.8979,5.7932,5.6166,5.5688,5.497,5.3803,5.2935,5.2725,5.3174,5.2247,5.2037,5.2486,5.1349,5.1319,5.2157,5.105,5.0375,5.0136,4.8835,4.8297,4.8237,4.7578,4.7309,4.7309,4.7309,4.7309,4.7309,4.7309,4.7309,4.7309,0.0,0.0,0.0,0.0,0.0,0.0,0.0,0.0,3.1973,3.248,3.1275,3.0113,0.0,0.0,0.0,0.0,0.0,0.0,2.3808,2.459,2.6251,2.8997,3.0064,3.2769,3.734,4.2125,4.582,4.846,4.969,4.9264,4.728,4.6376,4.4787,4.2721,4.2483,4.0783,3.8082,3.7352,3.5751,3.3612,3.256,3.1621,3.084,0.0,0.0,0.0,0.0,0.0,0.0,0.0,0.0,0.0,2.991,3.1236,3.2415,3.3862,3.6606,3.9326,4.0211,4.2839,4.5855,4.7925,5.0451,5.3354,5.6915,5.874,6.0356,6.26,6.1822,6.0864,6.1403,6.0835,6.0565,6.1373,6.1613,6.2032,6.2959,6.2839,6.269,6.269,6.2331,6.1882,6.1343,6.0565,5.9697,5.877,5.8351,5.7274,5.5299,5.494,5.4192,5.2845,5.2157,5.2007,5.2396,5.1349,5.102,5.1409,5.0361,5.0272,5.099,4.9942,4.9464,4.9404,4.8356,4.7908,4.7878,4.7459,4.7309,4.7309,4.7309,4.7309,4.7309,4.7309,4.7309,4.7309,0.0,0.0,3.041,3.0859,0.0,0.0,0.0,0.0,0.0,0.0,3.1797,3.1041,0.0,0.0,0.0,0.0,0.0,0.0,0.0,2.5288,2.6765,3.0081,3.0464,3.3062,3.8385,4.1419,4.371,4.5196,4.7405,4.7682,4.6175,4.7255,4.6562,4.4547,4.567,4.4038,4.0485,3.9959,3.7546,3.3989,3.3508,3.2395,3.0994,3.0541,0.0,0.0,0.0,0.0,0.0,0.0,0.0,0.0,2.7931,2.9534,3.1632,3.2289,3.5181,3.8826,4.1636,4.3789,4.6027,4.9353,5.2426,5.5538,5.9381,6.1267,6.2408,6.3069,6.1777,6.0907,6.2078,6.0706,5.9967,6.1732,6.1493,6.1523,6.272,6.2391,6.2002,6.2002,6.1942,6.1403,6.0116,5.9937,5.9368,5.8052,5.7902,5.7034,5.5119,5.4371,5.3414,5.2067,5.1439,5.1109,5.105,5.0405,5.0106,5.0106,4.9494,4.9209,4.9209,4.8566,4.8267,4.8147,4.7549,4.7309,4.7309,4.7309,4.7309,4.7309,4.7309,4.7309,4.7309,4.7309,4.7309,4.7309,0.0,0.0,3.0879,3.1309,0.0,0.0,0.0,0.0,0.0,0.0,0.0,0.0,0.0,0.0,0.0,0.0,0.0,0.0,0.0,2.5117,2.6545,3.0062,3.2339,3.4928,3.7758,4.041,4.2171,4.2916,4.5095,4.5773,4.502,4.6125,4.617,4.5285,4.5509,4.4438,4.2258,3.9721,3.7895,3.6572,3.5333,3.3741,3.2043,3.1588,3.0443,0.0,0.0,0.0,0.0,0.0,0.0,0.0,2.8983,3.0393,3.1724,3.2066,3.4628,3.7723,3.9507,4.1524,4.4371,4.8997,5.3753,5.8016,6.0941,6.2196,6.2995,6.3749,6.3964,6.391,6.3718,6.2481,6.1433,6.1343,6.1194,6.1224,6.1493,6.1403,6.1313,6.1313,6.0835,6.0206,5.9398,5.886,5.7992,5.6705,5.6107,5.5179,5.3683,5.2995,5.2037,5.0644,5.0465,5.0212,4.9703,4.9553,4.9464,0.0,4.8805,4.8506,4.8506,4.8356,4.7997,4.7519,4.7369,4.7309,4.7309,4.7309,4.7309,4.7309,4.7309,4.7309,4.7309,4.7309,4.7309,4.7309,0.0,0.0,0.0,0.0,0.0,0.0,0.0,0.0,0.0,0.0,0.0,0.0,0.0,0.0,0.0,0.0,2.5217,0.0,0.0,0.0,2.6737,3.0392,3.2353,3.4568,3.7126,3.8686,4.0554,4.2674,4.3801,4.4184,4.3865,4.497,4.5497,4.5497,4.5773,4.4669,4.2534,4.0843,3.8844,3.6611,3.5875,3.4522,3.2868,3.223,3.1,2.9513,2.8793,0.0,0.0,0.0,0.0,0.0,0.0,0.0,3.0996,3.1435,3.3646,3.6482,3.8881,4.0639,4.3209,4.926,5.3763,5.7458,6.0353,6.2039,6.3407,6.4707,6.4517,6.3972,6.3654,6.2251,6.1134,6.1104,6.0565,6.0386,6.1014,6.0835,6.0625,6.0625,6.0296,5.9697,5.874,5.8022,5.7094,5.5807,5.5089,5.4132,5.2785,5.2097,5.1259,5.0226,4.9942,4.9613,4.9299,4.9,4.8805,4.882,4.8117,4.7818,4.7818,4.7818,4.7638,4.7309,4.7309,4.7309,4.7309,4.7309,4.7309,4.7309,4.7309,4.7309,4.7309,4.7309,4.7309,4.7309,0.0,0.0,0.0,0.0,0.0,0.0,0.0,0.0,0.0,0.0,0.0,0.0,0.0,0.0,2.9374,0.0,0.0,0.0,0.0,0.0,0.0,3.0859,3.168,3.3532,3.663,3.709,3.9164,4.3071,4.3177,4.3361,4.3738,4.4421,4.5117,4.5733,4.5716,4.4342,4.2062,4.176,3.9544,3.6186,3.6186,3.5175,3.3659,3.2808,3.1469,2.992,2.9011,2.8198,2.7559,2.7689,0.0,0.0,0.0,0.0,2.9825,3.0516,3.2393,3.4997,3.8411,4.034,4.2949,4.9381,5.2776,5.5501,5.9092,6.1293,6.3142,6.5251,6.4545,6.3422,6.309,6.1477,6.03,6.0505,5.9668,5.9368,6.0595,6.0086,5.9608,5.9727,5.9638,5.9099,5.7902,5.7184,5.6286,5.5119,5.4311,5.3324,5.2097,5.1409,5.0644,4.9897,4.9374,4.909,4.897,4.8386,4.8117,4.8117,4.7578,4.7309,4.7309,4.7309,4.7309,4.7309,4.7309,4.7309,4.7309,4.7309,4.7309,4.7309,4.7309,4.7309,4.7309,4.7309,4.7309,4.7279,0.0,0.0,0.0,0.0,0.0,0.0,0.0,0.0,0.0,0.0,3.1601,3.1445,0.0,0.0,0.0,2.7272,2.6946,2.6831,2.6778,0.0,0.0,3.1406,3.1543,3.3205,3.6608,3.6755,3.8674,4.2517,4.2992,4.4433,4.6684,4.5925,4.598,4.6616,4.4413,4.2685,4.13,3.9923,3.8692,3.7693,3.7693,3.6357,3.4209,3.3717,3.163,2.8948,2.8425,2.7781,2.7168,2.7539,2.7422,0.0,0.0,0.0,2.862,2.9385,3.0973,3.3113,3.6209,4.0142,4.4431,4.8652,5.0772,5.3227,5.8656,6.0142,6.1174,6.4153,6.5205,6.5006,6.3405,6.1815,6.0276,5.8751,5.8381,5.853,5.9279,5.8291,5.7723,5.8321,5.7842,5.7214,5.6496,5.5837,5.5149,5.4401,5.3174,5.2157,5.1379,5.0674,4.9823,4.8596,4.8476,4.8147,4.7578,4.7489,4.7429,4.7429,4.7339,4.7309,4.7309,4.7309,4.7309,4.7309,4.7309,4.7309,4.7309,4.7309,4.7309,4.7309,4.7309,4.7309,4.7309,4.7309,4.7309,4.7219,0.0,0.0,0.0,0.0,0.0,0.0,0.0,0.0,0.0,0.0,0.0,3.1367,0.0,0.0,0.0,2.8201,2.7249,2.6832,2.7104,2.7989,2.9278,3.1074,3.1933,3.3476,3.5748,3.6607,3.8476,4.1485,4.2091,4.4627,4.895,4.7303,4.6694,4.6877,4.4718,4.2721,4.0724,3.9094,3.8065,3.7487,3.6885,3.6175,3.5401,3.4247,3.2698,3.1002,3.0187,2.8912,2.769,2.7894,2.7402,2.666,2.666,0.0,0.0,0.0,3.0421,3.2295,3.5587,3.9071,4.2474,4.5443,4.7971,5.0759,5.4667,5.7172,5.9326,6.1376,6.2615,6.3254,6.2938,6.1741,6.0666,6.0297,5.9266,5.8786,5.9591,5.8187,5.7214,5.7513,5.7274,5.6705,5.5718,5.5029,5.4221,5.3174,5.1858,5.0913,5.0644,4.9703,4.8895,4.8297,4.7938,4.7608,4.7309,4.7309,4.7309,4.7309,4.692,4.695,4.7309,4.692,4.695,4.7309,4.7309,4.7309,4.7309,4.7309,4.71,4.6741,4.6741,4.6741,4.6741,4.6741,4.698,4.7219,0.0,0.0,0.0,0.0,0.0,0.0,0.0,0.0,0.0,0.0,0.0,0.0,0.0,0.0,0.0,0.0,2.7544,2.694,2.7233,2.7343,2.8314,3.0294,3.2014,3.3497,3.4744,3.634,3.8302,4.0557,4.1186,4.4553,5.0283,4.8547,4.8117,4.8708,4.5875,4.3284,4.0845,3.902,3.7914,3.7287,3.5984,3.5629,3.5651,3.4525,3.3433,3.2363,3.1651,3.017,2.8514,2.8641,2.7821,2.6705,2.6824,2.7207,0.0,0.0,0.0,3.2059,3.4998,3.7232,3.9344,4.1868,4.4633,4.7607,5.0687,5.3695,5.6451,5.8593,5.9764,6.0684,6.1808,6.1131,6.0514,6.0988,5.9775,5.8989,5.9458,5.8125,5.6967,5.6667,5.6466,5.5927,5.479,5.3922,5.3025,5.2037,5.072,4.9912,4.9717,4.8805,4.8207,4.8027,4.7549,4.7309,4.7309,4.7309,4.7309,4.7309,4.6651,4.6681,4.7279,4.6621,4.6681,4.7309,4.7309,4.7309,4.7309,4.713,4.677,4.6249,4.6142,4.6052,4.6082,4.6262,4.6621,4.698,0.0,0.0,0.0,0.0,0.0,0.0,0.0,0.0,0.0,0.0,0.0,0.0,3.0484,2.9844,2.9238,2.8398,2.7916,2.7629,2.7649,2.8019,2.8447,2.9004,3.1195,0.0,3.3846,3.5725,3.7762,3.997,4.0574,4.4151,5.049,4.9618,5.0796,5.3518,4.7701,4.4098,4.213,3.9829,3.8492,3.7814,3.616,3.4881,3.4073,3.45,3.324,3.1365,3.1862,3.088,2.9416,2.9791,2.886,2.761,2.798,2.786,2.7814,0.0,0.0,0.0,3.3721,3.4494,3.5734,3.8747,4.0792,4.3354,4.8312,5.0004,5.1836,5.6653,5.7655,5.8196,5.9919,5.9771,5.9239,5.8825,5.8664,5.8462,5.7983,5.7422,5.6585,5.542,5.473,5.4072,5.3354,5.2127,5.1349,5.1289,5.0062,4.909,4.8416,4.8327,4.7997,4.7369,4.7309,4.7309,4.7309,4.7309,4.7309,4.7309,4.6651,4.6681,4.7279,4.6621,4.6681,4.7309,4.7309,4.7309,4.7249,4.6621,4.6309,4.6262,4.5603,4.5334,4.5424,4.6082,4.6309,4.6339,0.0,0.0,0.0,0.0,0.0,0.0,0.0,0.0,0.0,0.0,0.0,0.0,0.0,3.1496,3.0396,3.0069,2.8814,2.8066,2.8066,2.8203,2.8476,2.8906,3.1803,3.3409,3.3309,3.6084,3.7742,3.8162,3.8762,4.1501,4.6165,4.6604,4.8355,5.0904,4.877,4.6717,4.466,4.1093,3.9436,3.8925,3.5725,3.4675,3.4781,3.3527,3.3034,3.2931,3.2783,3.1813,3.0576,3.0694,2.9874,2.8795,2.8924,2.8639,2.8317,2.8884,3.055,3.229,3.2717,3.3244,3.418,3.6325,3.8507,4.0703,4.2907,4.6508,4.9835,5.1243,5.305,5.49,5.6701,5.8547,5.9917,6.0289,5.9258,5.8528,5.8851,5.7586,5.6227,5.5139,5.4782,5.3918,5.2102,5.1498,5.087,5.0032,4.9134,4.8536,4.8297,4.7878,4.7549,4.7309,4.7309,4.7309,4.7309,4.7309,4.7309,4.7309,4.6172,4.6022,4.6651,4.5963,4.5783,4.6052,4.6471,4.692,4.7219,4.6112,4.5663,4.5603,4.4915,4.4676,4.4736,4.5424,4.5933,4.6279,0.0,0.0,0.0,3.8052,0.0,3.6669,3.7121,3.6525,3.6054,3.6054,0.0,0.0,0.0,0.0,3.1624,3.0653,2.9329,2.8356,2.7904,2.8008,2.8262,2.8691,3.1624,3.3285,3.3287,3.5893,3.7221,3.7186,3.7612,3.9664,4.3181,4.3958,4.5988,4.901,4.8326,4.7595,4.6643,4.2725,4.0965,4.0442,3.6778,3.5484,3.5666,3.4339,3.3951,3.4148,3.3972,3.3138,3.2063,3.1893,3.0882,2.9782,2.9942,2.9645,2.9249,2.9559,3.0762,3.1938,3.1938,3.234,3.3194,3.4806,3.6519,3.8175,3.9679,4.2972,4.5956,4.7007,4.9144,5.1403,5.3373,5.583,5.8146,5.9865,5.9031,5.831,5.8675,5.7809,5.6486,5.4773,5.459,5.3607,5.1113,5.069,5.0122,4.906,4.8327,0.0,4.7967,4.7549,4.7309,4.7309,4.7309,4.7309,4.7309,4.7309,4.7309,4.7279,4.5933,4.5663,4.6249,4.5394,4.5095,4.5304,4.5544,4.6022,4.6531,4.5424,4.4975,4.4915,4.4257,4.3947,4.4077,4.4736,4.5394,4.6022,3.6519,3.7554,3.8208,3.7655,3.6814,3.6721,3.7965,3.7863,3.7583,3.7583,0.0,0.0,0.0,0.0,0.0,3.0058,2.9358,2.8578,2.7275,2.7597,2.7957,2.8335,3.0586,3.2427,3.3712,3.5114,3.6225,3.7161,3.7161,3.882,4.1955,4.1856,4.4117,4.8201,4.6321,4.6356,4.7683,4.4741,4.3089,4.227,3.9235,3.7434,3.6671,3.6955,3.607,3.4821,3.5303,3.4801,3.3822,3.3294,3.1964,3.0581,3.11,3.0886,3.0534,3.1158,3.1361,3.1386,0.0,0.0,0.0,3.4223,3.458,3.5522,3.8929,3.9388,4.0202,4.4257,4.6136,4.7746,5.01,5.1575,5.3577,5.711,5.7777,5.7682,5.7239,5.7811,5.7196,5.4313,5.3906,5.2915,5.0469,4.9659,4.9,4.8297,4.7668,4.7309,4.7309,4.7309,4.7309,4.7309,4.7309,4.7309,4.7279,4.7279,4.7279,4.7249,4.5903,4.5603,4.619,4.4915,4.4646,4.5214,4.4586,4.4676,4.5185,4.4556,4.4287,4.4257,4.3559,4.329,4.3379,4.4077,4.4706,4.5364,3.7764,4.0152,4.2062,4.1525,4.0574,3.9976,4.0355,3.9671,3.9077,0.0,0.0,0.0,3.7161,3.5696,3.4139,3.2434,3.2148,3.1878,3.1519,3.1221,3.0645,2.9755,3.1985,3.3055,3.2705,3.4741,3.6056,3.6631,3.6631,3.7298,3.8572,3.948,4.1206,4.3574,4.3926,4.4574,4.5207,4.3545,4.3006,4.2991,3.9536,3.8475,3.8851,3.7222,3.6067,3.5383,3.5453,3.4827,3.3872,3.3721,3.3601,3.3336,3.2271,3.1578,3.1001,3.0428,3.0783,3.1311,3.0934,0.0,0.0,0.0,0.0,0.0,3.4659,3.653,3.8381,3.9906,4.1546,4.3531,4.6165,4.7322,4.891,5.2015,5.45,5.6225,5.6828,5.754,5.742,5.5783,5.4438,5.288,5.0882,4.9398,4.8297,0.0,4.7399,4.7309,4.7309,4.7309,4.7309,4.7309,4.7309,4.707,4.6548,4.6591,4.6352,4.5843,4.5005,4.4676,4.4855,4.4496,4.4167,4.3858,4.4197,4.4137,4.3828,4.3648,4.3858,4.4257,4.3559,4.329,4.3379,4.4077,4.4436,4.4676,3.8134,4.1028,4.3288,4.2791,4.2283,4.1957,4.1706,4.1128,4.0727,0.0,0.0,0.0,3.8492,3.7591,3.6338,3.4593,3.4157,3.381,3.3247,3.2622,3.2015,3.1465,3.2215,3.3115,3.4124,3.4462,3.5434,3.7036,3.7126,3.7108,3.7211,3.8732,3.9929,4.0884,4.1895,4.2614,4.305,4.2393,4.2638,4.324,4.0602,3.9987,4.0506,3.8774,3.7799,3.7338,3.6777,3.6191,3.5519,3.4552,3.4449,3.4304,3.2215,3.1964,3.2089,3.0306,3.0884,3.1888,3.0884,3.116,3.1788,3.2039,0.0,0.0,3.3194,3.4382,3.5591,3.6586,3.806,3.9814,4.1867,4.3199,4.4857,4.748,4.9915,5.2476,5.5295,5.6682,5.7009,5.5892,5.4737,5.3194,5.1087,4.9587,4.8297,4.7369,4.7309,4.7309,4.7309,4.7309,4.7309,4.7309,4.704,4.6711,4.6279,4.6022,4.5693,4.5274,4.4616,4.4317,4.4317,4.3977,4.3648,4.3319,4.3708,4.3648,4.329,4.329,4.3678,4.4257,4.3559,4.3469,4.3708,4.3828,4.4077,4.4407,0.0,4.0856,4.2836,4.2464,4.274,4.2891,4.2464,4.2288,4.2238,0.0,4.1329,4.035,3.9421,3.9597,3.8908,3.6798,3.5973,3.5064,3.38,3.3146,3.2954,3.3135,3.2084,3.298,3.6355,3.4326,3.4707,3.7814,3.7935,3.7674,3.713,3.8863,3.9634,3.951,4.0095,4.0675,4.1175,4.1235,4.1953,4.2871,4.1833,4.1617,4.1782,4.085,4.0249,3.9735,3.8603,3.7997,3.7505,3.541,3.465,3.4123,3.1662,3.2139,3.3144,3.0683,3.1361,3.2591,3.1185,3.1537,3.2416,3.2867,3.2265,0.0,3.3294,3.2943,3.2742,3.4223,3.5458,3.6673,3.7891,3.9526,4.1365,4.3404,4.4956,4.7732,5.3095,5.5342,5.613,5.5379,5.468,5.3426,5.1298,4.9887,4.8566,4.7399,4.7309,4.7279,4.7189,4.7189,4.716,4.707,4.6501,4.613,4.607,4.5484,4.5155,4.5065,4.4496,4.4197,4.4197,4.3559,4.329,4.329,4.329,4.329,4.329,4.329,4.3648,4.4137,4.3529,4.3648,4.4137,4.3499,4.3678,4.4287,3.9356,4.1435,4.3087,4.3413,4.3212,4.3087,4.3438,4.2766,4.2363,4.2816,4.2233,4.1932,4.2213,4.1078,4.032,4.028,3.8986,3.7866,3.7096,3.6555,3.56,3.4184,3.421,3.4427,3.4837,3.4678,3.5278,3.6732,3.7111,3.7235,3.713,3.7908,3.846,3.8792,3.8974,3.9361,3.9828,4.0367,4.0726,4.0995,4.1265,4.2345,4.3515,4.1279,4.0159,3.9722,3.8887,3.7469,3.586,3.4984,3.4123,3.3294,3.2767,3.2265,3.1763,3.1235,3.1386,3.1738,3.1863,3.239,3.2817,3.2466,3.2566,0.0,3.2014,3.2416,3.2993,3.3319,3.3965,3.493,3.656,3.7909,3.9112,4.0055,4.2307,4.5928,5.1619,5.3268,5.4525,5.6236,5.3886,5.2157,5.2244,4.9505,4.7578,4.7339,4.7309,4.707,4.6488,4.6531,4.6262,4.5693,4.5574,4.5244,4.4706,4.4556,4.4227,4.3678,4.3559,4.3499,4.3469,4.3349,4.329,4.329,4.329,4.329,4.329,4.329,4.3379,4.3469,4.3349,4.3379,4.3469,4.3349,4.3379,4.3499,3.9315,4.1139,4.2791,4.3288,4.3725,4.4403,4.5536,4.5611,4.579,4.6372,4.5317,4.3925,4.2313,4.1656,4.1103,4.0576,3.9496,3.8617,3.804,3.7487,3.6646,3.5452,3.4918,3.5182,3.6162,3.5206,3.5501,3.7186,3.7727,3.7822,3.7526,3.8984,3.9218,3.8517,3.9228,3.9321,3.896,3.9619,4.0277,4.0876,4.0876,4.1683,4.2671,4.1025,4.0486,4.0461,3.9487,3.7756,3.5867,3.5598,3.5587,3.5417,3.3911,3.446,3.5304,3.3516,3.3582,3.419,3.3859,3.4202,3.4447,3.3649,3.3472,0.0,0.0,3.2014,3.239,3.3011,3.2842,3.3106,3.4521,3.5313,3.607,3.7223,3.8846,4.1564,4.6191,4.9222,5.1685,5.3437,5.2669,5.1774,5.129,4.9614,4.8183,4.7352,4.7309,4.701,4.6309,4.6279,4.5992,4.5304,4.4975,4.4646,4.4317,4.3988,4.3618,4.329,4.329,4.329,4.329,4.329,4.329,4.329,4.329,4.329,4.329,4.329,4.329,4.329,4.329,4.3499,4.3738,4.3409,4.329,4.3349,3.933,4.0813,4.2213,4.2766,4.4048,4.5495,4.7106,4.8083,4.8945,4.9607,4.8272,4.613,4.3239,4.2707,4.2138,4.1123,3.9752,3.8768,3.8517,3.7663,3.6885,3.6279,3.5306,3.5624,3.7464,3.5722,3.5697,3.7538,3.831,3.8392,3.7786,3.9974,4.0127,3.8631,3.9589,3.9559,3.8811,3.923,4.0098,4.1145,4.0606,4.0935,4.1654,4.0756,4.0816,4.1211,3.977,3.8112,3.6588,3.6631,3.7394,3.7926,3.5716,3.7069,3.8948,3.6397,3.6263,3.6874,3.6429,3.654,3.6508,3.5572,3.4909,3.4129,0.0,0.0,0.0,3.2767,3.2265,3.1964,3.2767,3.2993,3.3512,3.4731,3.5529,3.7086,4.0192,4.4109,4.7484,4.9744,5.0714,5.0897,4.9968,4.9449,4.8626,4.7382,4.7189,4.683,4.613,4.6142,4.5753,4.4945,4.4407,4.4137,4.4137,4.3559,4.329,4.329,4.329,4.329,4.329,4.329,4.329,4.329,4.329,4.329,4.329,4.329,4.329,4.329,4.329,4.3618,4.4047,4.3499,4.329,4.3379,4.096,4.1218,4.1605,4.2213,4.379,4.5232,4.597,4.7163,4.8257,4.8917,4.8758,4.8598,4.8736,4.5875,4.4518,4.5802,4.1618,3.9245,4.0174,3.8316,3.6709,3.5633,3.5965,3.6041,3.5784,3.6041,3.6041,3.5784,3.7294,3.7717,3.7234,3.8865,3.9529,3.929,3.8811,3.92,4.0127,3.9619,3.9828,4.0516,4.0427,4.1504,4.2871,4.1085,4.0816,4.1091,3.8821,3.7854,3.765,3.788,3.8103,3.8394,3.9197,3.8644,3.7949,3.9187,3.8116,3.6952,3.9103,3.9171,3.8546,3.7938,3.7358,3.6313,3.4106,0.0,3.337,3.2491,0.0,3.2767,3.239,0.0,0.0,3.2634,3.351,3.4853,3.6791,3.806,4.1114,4.7449,4.7285,4.7497,4.9709,4.7939,4.6869,4.7279,4.677,4.6142,4.5454,4.5394,4.4855,4.3559,4.3439,4.3409,4.3409,4.3319,4.329,4.329,4.329,4.329,4.329,4.329,4.329,4.329,4.329,4.329,4.329,4.329,4.329,4.329,4.329,4.3349,4.3379,4.3319,4.329,4.329,4.035,4.0651,4.1241,4.2521,4.3258,4.4646,4.7809,5.0155,5.1373,5.0772,5.0384,5.0069,4.9936,4.7558,4.629,4.705,4.3752,4.1515,4.1231,3.9321,3.7814,3.701,3.6885,3.6885,3.696,3.6257,3.5931,3.6009,3.6973,3.7318,3.7123,3.8689,3.9373,3.9373,3.911,3.929,3.9828,3.9948,4.0367,4.0965,4.0965,4.1683,4.2551,4.0576,4.0008,4.0084,3.9084,3.836,3.7825,3.7916,3.8717,3.9621,3.9013,3.9739,4.0837,4.0855,4.043,4.0197,4.1581,4.1221,4.0267,3.9719,3.8117,3.6317,3.508,3.4084,3.337,3.3219,0.0,0.0,0.0,0.0,0.0,0.0,3.3119,3.3712,3.4435,3.5329,3.7977,4.3564,4.4325,0.0,4.7362,4.6457,4.5693,4.5574,4.5663,4.5274,4.4227,4.4526,4.4287,4.3319,4.329,4.329,4.329,4.329,4.329,4.329,4.329,4.329,4.329,4.329,4.329,4.329,4.329,4.329,4.329,4.329,4.329,4.329,4.329,4.329,4.329,4.329,4.329,4.329,3.9697,4.0023,4.0819,4.2472,4.2974,4.471,4.9346,5.1649,5.2683,5.2129,5.1358,5.0919,5.1189,4.9385,4.8476,4.937,4.6377,4.4175,4.351,4.0965,3.9038,3.8146,3.7632,3.7387,3.7337,3.6307,3.583,3.5956,3.6721,3.711,3.7163,3.8689,3.9529,3.9679,3.9463,3.9529,3.9738,4.0397,4.0846,4.1115,4.1362,4.1444,4.1452,4.0157,3.9469,3.917,3.9313,3.8789,3.8015,3.8364,3.9605,0.0,3.9459,4.0781,4.2671,4.2102,4.1863,4.2073,4.323,4.2761,4.179,4.1211,3.9282,3.7186,3.618,3.4914,3.4012,3.4092,3.3596,0.0,0.0,0.0,3.2767,3.3043,0.0,3.3162,3.3294,3.3845,3.5713,3.9564,4.1861,0.0,0.0,4.5193,4.4825,4.4347,0.0,4.4347,4.3349,4.3738,4.3798,4.3319,4.329,4.329,4.329,4.329,4.329,4.329,4.329,4.329,4.329,4.329,4.329,4.329,4.329,4.329,4.329,4.329,4.329,4.329,4.329,4.329,4.329,4.329,4.329,4.329,3.9697,3.9697,4.0108,4.1421,4.3204,4.5749,4.9601,4.9747,5.0122,5.1959,5.1046,5.1225,5.3774,5.1775,5.1373,5.4294,4.9634,4.6906,4.7837,4.3444,4.0071,3.8376,3.8085,3.7236,3.5608,3.6081,3.583,3.4731,3.632,3.7151,3.7204,3.8727,0.0,0.0,3.9709,3.9768,4.0397,4.1055,4.0995,4.0487,4.1115,4.0636,3.9589,4.0157,3.9559,3.8512,3.917,3.8955,0.0,3.9881,4.0778,0.0,0.0,0.0,0.0,4.2871,4.1923,4.1025,0.0,0.0,4.308,4.2521,4.1508,4.0032,3.7603,3.6596,3.5931,3.49,3.5056,3.5082,3.4073,3.3847,3.3671,3.3169,3.3111,0.0,0.0,3.3463,3.3871,3.5732,3.9985,4.3169,0.0,4.4347,4.4347,0.0,4.3708,0.0,4.329,4.3319,4.3319,4.329,4.329,4.329,4.329,4.329,4.329,4.329,4.329,4.329,4.329,4.329,4.329,4.329,4.329,4.329,4.329,4.329,4.329,4.329,4.329,4.329,4.329,4.329,4.329,4.329,4.0794,4.0995,4.1369,4.2641,4.3383,4.4844,4.7905,4.9229,5.093,5.3803,5.3414,5.4192,5.7723,5.6519,5.587,5.6888,5.3332,5.0618,4.9636,4.6011,4.3096,4.1232,4.0301,3.8997,3.7186,3.6634,3.583,3.468,3.6293,3.7151,3.7204,3.8727,0.0,0.0,3.9918,3.9798,4.0457,4.1115,4.0995,4.0427,4.0636,4.0726,4.0636,4.0008,3.9469,3.911,3.9313,3.896,0.0,3.8931,3.9529,4.0038,3.9798,4.0524,4.1474,4.1923,4.1863,0.0,0.0,0.0,4.2731,4.294,0.0,0.0,0.0,3.888,3.7768,3.621,3.6337,3.6296,3.471,3.4449,3.4248,3.3721,3.3621,3.3294,0.0,3.1788,3.2342,3.4824,3.815,4.0792,4.2234,0.0,0.0,0.0,4.1534,0.0,0.0,4.2222,4.2671,4.2671,4.312,4.329,4.329,4.329,4.329,4.329,4.329,4.329,4.329,4.329,4.329,4.329,4.329,4.329,4.329,4.329,4.329,4.329,4.329,4.329,4.329,4.329,4.329,4.329,4.2213,4.2641,4.3218,4.4022,4.4733,4.5849,4.7753,4.9719,5.1887,5.4491,5.488,5.6137,5.9368,5.877,5.8321,5.877,5.6054,5.3466,5.1452,4.8501,4.579,4.3403,4.2101,4.0507,3.8418,3.7475,3.6307,3.4981,3.6829,3.7786,3.7868,3.9165,4.0337,4.1324,4.0247,3.9858,4.0098,4.0995,4.0876,4.0038,4.0038,4.0307,4.0576,3.9469,3.9349,3.9709,0.0,3.8601,3.8033,3.8033,3.8482,3.896,3.8542,3.9439,4.0696,4.0696,4.0995,4.1444,4.2102,4.2312,0.0,4.2611,4.1844,0.0,4.077,0.0,3.955,0.0,3.7803,3.7505,3.6174,3.5552,3.5052,3.4324,3.4198,3.3596,0.0,3.1235,3.1858,3.4492,3.6952,3.9063,4.0693,4.1164,0.0,0.0,0.0,0.0,0.0,0.0,4.2141,4.2381,4.3,4.329,4.329,4.329,4.329,4.329,4.329,4.329,4.329,4.329,4.329,4.329,4.329,4.329,4.329,4.329,4.329,4.329,4.329,4.329,4.329,4.329,4.3439,4.3648,4.382,4.4656,4.5537,4.5508,4.7007,4.8476,4.9209,5.09,5.2665,5.4132,5.5448,5.7034,5.9039,5.865,5.874,5.9937,5.7723,5.5418,5.3354,5.0857,4.8027,4.4889,4.3472,4.1674,3.925,3.8518,3.731,3.5583,3.7863,3.8974,3.9003,3.9984,4.0726,4.1294,4.0636,4.0008,3.9499,4.086,4.068,3.9505,3.9475,3.9505,3.9439,3.8691,3.923,4.0277,3.8871,3.7973,3.7404,3.7404,3.7853,3.8392,3.8362,3.8841,3.9373,3.9373,3.9373,3.9559,4.0187,4.1332,4.2171,4.1602,0.0,0.0,0.0,0.0,4.1239,0.0,0.0,0.0,0.0,3.7212,3.6092,3.4942,3.4625,3.4048,3.2441,3.1712,3.2215,3.4518,3.6266,3.7906,3.9542,4.0633,4.0696,0.0,0.0,3.9313,3.9379,0.0,4.1692,4.2321,4.297,4.329,4.329,4.329,4.329,4.329,4.329,4.329,4.329,4.329,4.329,4.329,4.329,4.329,4.329,4.329,4.329,4.329,4.329,4.3319,4.3349,4.3349,4.3738,4.4317,4.489,4.6337,4.7407,4.6903,4.7211,4.7938,4.9149,5.0511,5.2486,5.5299,5.6825,5.856,6.1044,6.0745,6.0086,5.9428,5.8291,5.6585,5.4102,5.2375,5.004,4.6795,4.5883,4.384,4.0468,4.0215,3.8991,3.6759,3.8577,3.9302,3.8961,3.9945,4.0487,4.0636,3.9978,3.9589,3.9505,4.101,4.1449,4.108,4.0593,4.0598,4.0696,0.0,3.9529,4.0876,3.905,3.7973,3.7404,3.7404,3.7853,3.8302,3.7823,3.8482,3.9373,3.9373,3.9373,3.9469,3.9619,4.0277,4.1085,4.1961,4.241,4.2781,0.0,0.0,0.0,0.0,0.0,0.0,0.0,0.0,3.701,3.5547,3.393,3.2717,3.2265,3.1411,3.1782,3.4466,3.5135,3.6115,3.8141,3.8826,3.8811,3.8003,0.0,0.0,3.8631,0.0,0.0,4.1662,4.2731,4.329,4.329,4.329,4.329,4.329,4.329,4.329,4.329,4.329,4.329,4.329,4.329,4.329,4.329,4.329,4.329,4.329,4.329,4.3589,4.4047,4.4047,4.4167,4.4377,4.6648,4.8431,4.9704,4.8949,5.0058,5.0962,5.0605,5.1169,5.2725,5.5777,5.7304,5.868,6.0206,6.0535,6.0356,5.9608,5.8381,5.6795,5.476,5.3384,5.1423,4.8735,4.7491,4.558,4.2912,4.1501,3.9878,3.8045,3.869,3.8989,3.8918,3.9448,3.9958,4.0367,3.9709,3.9373,3.9475,4.0738,4.143,4.1647,4.0969,4.0843,0.0,3.8777,3.8841,3.9888,3.8452,3.7913,3.7793,3.7494,3.7853,3.8392,3.8302,3.8811,3.9373,3.9373,3.9373,3.9373,3.9373,3.9888,4.0636,4.1722,4.2201,4.268,4.3658,4.3658,4.317,0.0,0.0,0.0,0.0,0.0,3.7685,3.5823,3.4048,3.2746,3.2298,3.1486,3.1807,3.4082,3.4986,3.5909,3.7241,3.7735,3.7823,3.7434,3.7674,0.0,0.0,0.0,0.0,4.0965,4.2491,4.329,4.329,4.3589,4.3589,4.329,4.329,4.329,4.329,4.329,4.329,4.329,4.329,4.329,4.329,4.329,4.329,4.3319,4.3618,4.4167,4.4766,4.5095,4.5185,4.5244,4.8607,5.0376,5.1685,5.0689,5.3492,5.5193,5.3152,5.3074,5.4067,5.6414,5.7738,5.8441,5.8261,5.9189,5.9757,5.9578,5.7992,5.6406,5.5029,5.3832,5.2306,5.0285,4.8559,4.7021,4.564,4.2736,4.0695,3.9561,3.8861,3.8725,3.9088,3.9024,3.9455,4.0247,3.9679,3.9517,3.9809,4.0656,4.1372,4.1869,4.1177,4.0764,4.0375,3.8322,3.7883,3.8302,3.7644,3.7823,3.8302,3.7734,3.7973,3.8631,3.911,3.9313,3.9373,3.9373,3.9373,3.9373,3.9373,3.9828,4.0427,4.1085,4.1722,4.2321,4.303,4.2701,4.2321,4.25,4.1479,4.0423,0.0,0.0,3.813,3.6094,3.475,3.3602,3.2666,3.1921,3.2153,3.3926,3.5298,0.0,3.6814,3.7364,3.7584,3.7434,3.8033,0.0,0.0,0.0,0.0,4.0427,4.2222,4.326,4.3409,0.0,4.3917,4.3409,4.3319,4.329,4.329,4.329,4.329,4.329,4.329,4.329,4.329,4.329,4.3349,4.3499,4.4197,4.4855,4.5514,4.6112,4.6381,4.6441,4.9512,5.0808,5.1265,4.945,5.2817,5.5962,5.6279,5.7695,5.8912,5.9425,6.0145,6.0176,5.9069,5.865,5.8022,5.6944,5.6526,5.5538,5.3653,5.3324,5.2306,5.0285,4.9401,4.8113,4.6287,4.4607,4.3153,4.1918,4.1187,4.0618,4.0199,0.0,3.9913,3.9553,3.9433,4.02,4.1625,4.2458,4.2929,4.2934,4.211,4.1015,3.9756,3.8655,3.8302,3.8302,3.7644,3.7823,3.8362,3.8242,3.8661,3.917,3.8721,3.896,3.9373,3.9373,3.9373,3.9373,3.9373,3.9499,3.9738,4.0397,4.0666,4.1055,4.2291,4.2051,4.1863,4.294,4.1709,4.0583,4.0999,0.0,0.0,3.7479,3.5802,3.4477,3.4271,3.2976,3.2962,3.5489,3.5195,3.5441,3.7138,3.8376,3.8601,3.7494,3.8033,3.8093,0.0,0.0,0.0,0.0,4.1773,0.0,0.0,0.0,4.3678,4.4137,4.3559,4.329,4.329,4.329,4.329,4.329,4.329,4.329,4.329,4.329,4.3618,4.4197,4.4855,4.5544,4.613,4.6249,4.6681,4.713,5.2775,5.3881,5.4304,5.3007,5.6682,5.9605,5.9093,6.1116,6.2066,6.0403,5.924,5.8171,5.7184,5.7393,5.7334,5.6705,5.6047,5.5239,5.4281,5.3264,5.2247,5.1289,4.9972,4.8879,4.7904,4.5314,4.3684,4.306,4.0816,3.981,0.0,0.0,3.9166,3.9409,3.9481,4.0393,4.1868,4.248,0.0,4.3662,4.2105,4.1533,4.1278,3.8482,3.8103,3.8899,3.7816,3.7823,3.8392,3.8392,3.8841,3.9313,3.902,3.914,3.9373,3.9373,3.9373,3.9373,3.9373,3.9373,3.9589,4.0247,4.0397,4.0666,4.1662,4.1354,4.1145,4.2132,4.1564,4.1115,4.1811,4.041,0.0,0.0,0.0,3.6629,3.6062,3.5062,3.4928,3.636,3.6043,3.633,3.7774,3.8841,3.8721,3.7045,3.7823,3.7973,3.6985,0.0,0.0,0.0,0.0,0.0,0.0,0.0,0.0,4.3768,4.3439,4.329,4.329,4.329,4.329,4.329,4.329,4.329,4.3319,4.3678,4.4396,4.5394,4.5693,4.6232,4.683,4.683,4.704,4.7309,5.6134,5.7029,5.7437,5.7044,6.0481,6.2731,6.1041,6.3018,6.3697,6.0982,5.841,5.6496,5.5688,5.6256,5.6645,5.6496,5.5418,5.47,5.4551,5.3084,5.2067,5.1798,5.0182,4.9239,4.912,4.5712,4.3891,4.3774,4.0586,0.0,0.0,0.0,0.0,3.9415,3.9893,0.0,0.0,0.0,4.3363,4.4169,4.2093,4.1992,4.2652,3.8673,3.8208,3.9537,3.8288,3.8153,3.8601,3.8601,3.896,3.9373,3.9373,3.9373,3.9373,3.9373,3.9373,3.9373,3.9373,3.9373,3.9559,4.0068,4.0187,4.0367,4.1025,4.0666,4.0457,4.1422,4.1632,4.1752,4.2111,4.1294,0.0,0.0,0.0,0.0,3.7702,3.7087,3.6738,3.663,3.6958,3.7332,3.7754,3.8392,3.8153,3.6596,3.7674,3.7883,3.6746,3.8901,3.9649,0.0,0.0,4.247,4.262,0.0,4.3888,4.3499,4.3349,4.329,4.329,4.329,4.329,4.329,4.329,4.3379,4.3559,4.4257,4.5244,4.6279,4.6429,4.686,4.7309,4.7309,4.7309,4.7309,5.7896,5.8198,5.8272,5.8378,6.0826,6.2399,6.123,6.2329,6.2965,6.2084,6.0152,5.8351,5.7064,5.5987,5.5119,5.4521,5.3803,5.3114,5.2516,5.2306,5.1678,5.0435,4.9673,4.903,4.8386,4.6267,4.484,4.4214,4.2704,4.1394,0.0,0.0,0.0,0.0,0.0,0.0,0.0,4.3706,4.4468,4.4417,4.2738,4.2206,4.218,4.0099,3.9475,3.966,3.931,3.926,3.932,3.932,3.9379,3.9373,3.9373,3.9373,3.9373,3.9373,3.9373,3.9373,3.9373,3.9373,3.9439,3.9499,3.9499,3.9679,4.0337,3.9978,4.0038,4.1931,4.2321,4.2141,4.1564,4.1422,4.1294,0.0,0.0,0.0,0.0,3.8295,3.7522,3.6171,3.7,3.7194,3.5899,3.6387,3.6686,3.6507,3.7674,3.8063,3.7375,3.8721,3.917,3.8422,0.0,4.2641,4.32,4.3319,4.3648,4.4227,4.3589,4.329,4.329,4.329,4.329,4.329,4.329,4.3618,4.4287,4.4915,4.5633,4.6339,4.698,4.7249,4.7309,4.7309,4.7309,4.7309,6.1847,6.1415,6.0695,6.0585,6.1785,6.2087,6.0191,6.1072,6.1433,5.9931,5.9024,5.7872,5.6137,5.5149,5.4341,5.3653,5.2965,5.2486,5.2217,5.1468,5.0734,5.0226,4.9224,4.8566,4.8297,4.6711,4.5834,4.5755,0.0,0.0,0.0,0.0,0.0,0.0,0.0,4.2378,4.2831,4.3561,4.4147,4.4457,4.2912,4.2816,4.3351,4.0262,3.9654,4.0354,3.9187,3.8811,3.8871,3.9254,3.9373,3.9373,3.9373,3.9373,3.9373,3.9373,3.9373,3.9373,3.9373,3.9373,3.9373,3.9373,3.9373,3.9463,3.9738,3.9619,3.9738,4.0935,4.1841,4.244,4.2521,4.2222,4.2141,0.0,0.0,0.0,0.0,4.0227,3.9294,3.7046,3.7258,3.7163,3.6204,3.6327,3.6985,3.8153,3.7614,3.7285,3.7404,3.8302,0.0,3.8392,0.0,4.1893,4.2162,4.2901,4.3409,4.3678,4.3409,4.329,4.329,4.329,4.329,4.3319,4.3708,4.4287,4.4945,4.5633,4.6322,4.695,4.7219,4.7309,4.7309,4.7309,4.7309,4.7309,6.4045,6.3155,6.2183,6.2159,6.1892,6.1057,5.9344,5.9601,5.9316,5.7468,5.7274,5.6735,5.5329,5.4251,5.3414,5.2935,5.2127,5.1618,5.1618,5.0571,4.9853,4.9628,4.8775,4.8353,4.8417,4.7298,4.6804,4.691,4.5978,0.0,0.0,0.0,0.0,0.0,4.237,4.2828,4.332,4.3608,4.4079,4.4457,4.317,4.3422,4.4249,4.0978,4.0388,4.1087,3.9607,3.8908,3.8781,3.926,3.9373,3.9403,3.9649,3.9589,3.9469,3.9649,3.9709,3.9709,3.9709,3.9709,3.9709,3.9709,3.9745,3.9773,3.9773,3.9955,4.041,4.1331,4.2401,4.341,4.4014,4.3808,4.3655,4.4075,0.0,0.0,0.0,4.1994,4.1006,3.8038,3.7883,3.7674,3.6836,3.6596,3.7225,3.899,3.7494,3.6836,0.0,0.0,0.0,0.0,0.0,0.0,0.0,4.2761,4.329,4.329,4.329,4.329,4.329,4.3499,4.3589,4.3618,4.4317,4.4975,4.5633,4.6112,4.6711,4.7309,4.7309,4.7309,4.7309,4.7309,4.7309,4.7309,6.3396,6.2541,6.1913,6.2672,6.0752,5.9135,5.9086,5.7993,5.6727,5.5388,5.5239,5.5209,5.5179,5.3414,5.2217,5.2217,5.102,5.0226,5.0226,4.9643,4.903,0.0,0.0,4.846,4.879,4.8119,4.7644,4.7297,0.0,0.0,4.3136,0.0,4.2013,4.2046,4.2892,4.329,4.3383,4.4207,4.4615,4.4547,4.3713,4.3876,4.4429,4.2792,4.2089,4.1885,4.0997,4.0135,3.9373,3.9373,3.9373,3.9529,4.0187,3.9948,3.9559,4.0187,4.0397,4.0397,4.0397,4.0397,4.0397,4.0397,4.0548,4.069,4.069,4.133,4.2365,4.3772,4.4601,4.5304,4.601,4.6173,4.6173,4.6173,0.0,0.0,0.0,4.3361,4.2412,3.8832,3.899,3.8871,3.7524,3.6836,3.7015,3.8302,0.0,0.0,0.0,0.0,0.0,3.8422,4.1003,0.0,4.2381,4.3,4.329,4.329,4.329,4.329,4.3319,4.4018,4.4317,4.4347,4.5005,4.5663,4.6279,4.6279,4.6711,4.7309,4.7309,4.7309,4.7309,4.7309,4.7309,4.7309,6.2828,6.206,6.1291,6.1504,6.0187,5.8789,5.7861,5.6654,5.5658,5.5239,5.4012,5.3144,5.3144,5.2576,5.1828,5.093,5.0435,5.0016,0.0,4.8955,4.8506,4.8297,4.7848,4.7662,4.7764,4.8245,4.8513,4.8669,0.0,0.0,0.0,4.6129,4.5732,4.5263,4.5035,4.4922,4.4917,4.4705,4.4615,4.4581,4.4316,4.435,4.4497,4.3356,4.2911,4.2676,4.1231,4.0519,4.0205,3.9625,3.9373,3.9529,4.0187,4.0247,4.0237,4.1041,4.0879,4.0544,4.1102,4.1352,4.1301,4.1122,4.1723,4.2284,4.2171,4.285,4.3616,4.4029,4.4669,4.5376,4.608,4.6208,4.6208,4.6208,4.6208,0.0,4.391,0.0,4.2173,3.9576,3.8927,3.8362,3.7494,3.7225,0.0,0.0,0.0,0.0,0.0,0.0,0.0,0.0,4.1482,0.0,4.241,4.3,4.329,4.329,4.329,4.329,4.3319,4.3977,4.4317,4.4377,4.5514,4.6112,4.6309,4.68,4.713,4.7309,4.7309,4.7309,4.7309,4.7309,4.7309,4.7309,6.1162,6.0546,5.9806,5.9506,5.8456,5.7242,5.62,5.5329,5.464,5.4132,5.2965,5.2097,5.1858,5.1618,0.0,5.0865,5.0577,5.0152,4.9529,4.8862,4.8313,4.7951,4.7519,4.7495,4.7849,4.8882,0.0,4.892,4.8317,4.7568,4.684,4.6575,4.6398,4.6207,4.5169,4.508,4.564,4.4572,4.4298,4.4615,4.4615,4.4615,4.4559,4.4006,4.3591,4.3139,4.2078,4.162,4.144,4.0567,4.0279,4.0364,4.0694,4.0756,4.0808,4.1121,4.1025,4.0905,4.1462,4.1868,4.2093,4.1829,4.2899,4.4043,4.4264,4.4756,4.5242,4.5505,4.5898,4.6421,4.7108,4.7239,4.7239,4.7239,4.701,4.6322,4.482,0.0,4.2703,4.0791,0.0,0.0,0.0,3.8722,3.8871,0.0,0.0,0.0,0.0,0.0,0.0,4.0397,4.1722,0.0,4.2731,4.312,4.329,4.329,4.3559,4.3678,4.3708,4.4646,4.5065,4.5125,4.6202,4.6681,4.6741,4.713,4.7309,4.7309,4.7309,4.7309,4.7309,4.7309,4.7309,4.7309,5.8613,5.8217,5.7687,0.0,5.5956,0.0,5.4311,5.4102,5.3563,5.2366,5.2127,5.1858,5.1289,5.0584,5.0593,5.1629,0.0,0.0,0.0,4.914,4.8335,4.7352,4.7309,4.7722,4.8677,4.9702,4.9553,4.8221,4.6234,4.5243,4.5179,4.4473,4.459,4.5371,4.3847,4.4102,4.5538,4.4019,4.3839,4.4598,4.4587,4.4615,4.4615,4.4682,4.416,4.3449,4.3484,4.3387,4.3134,4.2191,4.1876,4.1829,4.1593,4.149,4.1362,4.068,4.0988,4.1565,4.1573,4.2291,4.3019,4.272,4.4148,4.5846,4.6638,4.6887,4.7124,4.777,4.7939,4.8176,4.8883,4.9018,4.9018,4.9018,4.8376,4.7389,4.5812,4.4898,4.3834,0.0,0.0,0.0,0.0,4.1066,4.0581,0.0,0.0,0.0,0.0,0.0,4.0516,4.0457,4.1841,4.2791,4.3349,4.3409,4.3439,4.3439,4.4077,4.4377,4.4436,4.5681,4.6279,4.6309,4.701,4.7309,4.7309,4.7309,4.7309,4.7309,4.7309,4.7309,4.7309,4.7309,4.7309,4.7309,0.0,0.0,5.61,5.6879,5.5591,5.4401,5.4221,5.2905,5.1977,5.2187,5.1319,5.0794,5.1169,5.0584,5.0457,5.0993,5.0441,4.976,4.9078,4.8862,4.8335,4.7352,4.7309,4.7409,4.7636,4.8142,4.8135,4.7521,4.7041,4.6497,4.5949,4.5757,4.5798,4.5973,4.5026,4.4839,4.521,4.4423,4.4207,4.4354,4.4562,4.4615,4.4682,4.5229,4.5318,4.5119,4.5017,4.494,4.4786,4.3904,4.3123,4.2554,4.2489,4.2332,4.2084,4.1545,4.2289,4.3272,4.3427,4.4545,4.563,4.5369,4.6237,4.7073,4.6844,4.7665,4.8376,4.7973,4.8376,4.8815,4.8984,4.9018,4.9018,4.9018,4.8376,4.7541,4.6615,4.5269,4.405,0.0,4.288,4.2773,4.2773,4.2572,4.2385,0.0,0.0,0.0,0.0,4.1572,4.1692,4.1175,4.291,4.3928,4.4077,4.4586,4.4825,4.4825,4.4975,4.5065,4.5095,4.5933,4.6279,4.6309,4.701,4.7309,4.7309,4.7309,4.7309,4.7309,4.7309,4.7309,4.7309,4.7309,4.7309,4.7309,5.4561,5.4715,5.486,5.5201,5.4684,5.4012,5.3384,5.2097,5.1349,5.1708,5.0601,5.0032,5.0644,4.9912,4.9611,5.0252,5.0007,4.9719,4.9527,4.9054,4.8553,4.803,4.7988,4.7764,4.7309,4.8119,4.7921,4.6676,4.6191,4.5583,4.4862,4.4862,4.5122,4.5493,4.4367,4.4338,4.5019,4.4074,4.3939,4.4344,4.4913,4.5094,4.5162,4.5906,4.621,4.6186,4.6136,4.6319,4.6462,4.5571,4.4641,4.3812,4.3416,4.2884,4.2363,4.2232,4.2957,4.3811,4.3937,4.5269,4.6748,4.7342,4.7539,4.7637,4.7787,4.8443,4.8883,4.8511,4.8714,4.9018,4.9018,4.9018,4.8883,4.8578,4.7902,4.7158,4.6413,4.5253,0.0,4.439,4.4255,4.4269,4.4626,4.4588,4.4169,4.3314,4.3169,0.0,4.146,4.2282,4.2641,4.2282,4.3599,4.4466,4.4766,4.5125,4.5304,4.5304,4.5603,4.5753,4.5783,4.6471,4.677,4.68,4.716,4.7309,4.7309,4.7309,4.7309,4.7309,4.7309,4.7489,4.7758,4.7758,4.7938,4.8207,5.2935,5.3593,5.3862,5.3294,5.3593,5.3533,5.2366,5.1468,5.096,5.105,4.9942,4.9374,5.0032,4.9015,4.8632,4.9485,4.9477,4.9636,5.0119,4.9456,4.8973,4.8841,4.88,4.8418,4.7538,4.848,4.7813,4.5495,4.4709,4.3947,4.329,4.329,4.3771,4.4517,4.3158,4.3387,4.4725,4.3595,4.3588,4.4486,4.531,4.5722,4.594,4.6684,4.6955,4.6989,4.709,4.753,4.795,4.7133,4.629,4.5415,4.4642,4.3729,4.3031,4.3237,4.3845,4.436,4.4266,4.5556,4.7298,4.8661,4.8485,4.8164,4.8998,4.9255,4.9323,4.9187,4.9187,4.912,4.9018,4.8917,4.868,4.8142,4.7259,4.6447,4.594,0.0,4.4993,4.5635,4.5754,4.6018,4.6646,4.6549,4.5821,4.4278,4.4569,4.3932,4.179,4.2821,4.3499,4.3589,4.4167,4.4825,4.5574,4.5603,4.5603,4.5603,4.6202,4.6429,4.6459,4.704,4.7309,4.7309,4.7309,4.7309,4.7309,4.7309,4.7309,4.7309,4.7309,4.7698,4.8297,4.8297,4.8686,4.9299,5.2336,5.2875,5.3294,5.3204,5.2815,5.2426,5.2247,5.072,4.9763,5.0285,4.9254,4.8686,4.9389,4.8745,4.8355,4.8531,4.7989,4.8067,4.9004,4.9734,4.9734,4.8841,4.88,4.8718,4.8553,4.7361,4.5746,4.3687,4.4128,4.3947,4.329,4.329,4.3369,4.3497,4.3249,4.3337,4.3598,4.3568,4.4134,4.4969,4.5339,4.5921,4.6718,4.7462,4.7733,4.7804,4.8443,4.8748,4.8818,4.8661,4.7994,4.7209,4.7075,4.6362,4.5623,4.5674,4.6332,4.6911,4.6323,4.7367,4.8695,4.8954,4.9364,4.974,4.99,5.0405,5.071,5.0067,4.9932,4.9729,4.912,4.8511,4.824,4.8748,4.7158,4.6041,4.6549,0.0,4.5568,4.5703,4.6768,4.7555,4.7656,4.7634,4.714,4.5911,4.5352,4.4471,4.3079,4.3748,4.4407,4.4975,4.5095,4.5753,4.698,4.701,4.701,4.701,4.71,4.716,4.716,4.7249,4.7309,4.7309,4.7309,4.7309,4.7309,4.7309,4.7309,4.7309,4.7309,4.7698,4.8297,4.8297,4.8686,4.9299,5.1678,5.2187,5.2546,5.2187,5.2157,5.2067,5.1738,5.0301,4.9494,5.0106,4.8805,4.7997,4.87,4.8147,4.7758,4.7758,4.7489,4.7495,4.7946,4.846,4.8718,4.88,4.88,4.85,4.7796,4.6819,4.5293,4.329,4.4347,4.4317,4.329,4.329,4.329,4.329,4.329,4.329,4.3339,4.3615,4.3941,4.4413,4.5002,4.5799,4.6662,4.6913,4.7629,4.8483,4.8316,4.8576,4.9018,4.9018,4.8353,4.7572,4.7572,4.6968,4.6279,4.6799,4.7273,4.7638,4.7857,4.8435,4.9086,4.9492,4.983,5.0202,5.0608,5.098,5.1083,5.0777,5.0371,4.9999,4.9661,4.8984,4.8612,4.8951,4.7462,0.0,0.0,4.6177,4.5838,4.6244,4.7259,4.8041,4.8477,4.8511,4.7858,4.6317,4.5885,4.5154,4.3888,4.4137,4.4796,4.5813,4.6202,4.6681,4.7309,4.7309,4.7309,4.7309,4.7309,4.7309,4.7309,4.7309,4.7309,4.7309,4.7309,4.7309,4.7309,4.7309,4.7519,4.7788,4.7429,4.8147,4.9284,4.8955,4.9464,5.0331,5.1229,5.1618,5.1828,5.1319,5.1648,5.1738,5.1079,5.0002,4.9404,4.9733,4.8327,4.7549,4.8207,4.7698,4.7369,4.7519,4.7399,4.7309,4.7309,4.7309,4.7764,4.8759,4.88,4.8161,4.6788,4.6592,4.5574,4.3529,4.4736,4.4616,4.329,4.329,4.329,4.329,4.329,4.329,4.3299,4.3503,4.3741,4.4006,4.4737,4.5578,4.642,4.626,4.7104,4.8289,4.777,4.8064,4.8736,4.8923,4.8513,4.7933,4.7933,4.7571,4.7198,4.777,4.7933,4.8096,4.8798,4.9018,4.9187,4.9898,5.0236,5.0541,5.1319,5.1623,5.1691,5.1488,5.0879,5.0304,5.0135,4.9357,4.8815,4.8984,0.0,0.0,0.0,4.6583,4.6481,4.7225,4.797,4.8714,4.9458,4.9526,4.879,4.7147,4.6795,4.6181,4.4951,4.4798,4.5334,4.6501,4.704,4.7309,4.7309,4.7309,4.7309,4.7309,4.7309,4.7309,4.7309,4.7309,4.7309,4.7309,4.7309,4.7309,4.7309,4.7309,4.7608,4.8027,4.7668,4.8536,4.9972,4.9613,5.0212,5.1229,5.1229,5.1259,5.1289,5.1229,5.1259,5.1079,5.0375,4.9703,4.912,4.8506,4.7788,4.7549,4.8207,4.7698,4.7549,4.8147,4.7668,4.7309,4.7309,4.7309,4.7764,4.8759,4.88,4.8039,4.6389,4.6933,4.6262,4.4257,4.4945,4.4616,4.329,4.329,4.329,4.329,4.329,4.329,4.329,4.3309,4.3874,4.4719,4.4794,4.5389,4.6215,4.6208,4.6279,4.6488,4.7306,4.7671,4.7836,4.8736,4.8923,4.8892,4.8892,4.9333,4.9706,4.9063,4.8892,4.8892,4.8987,4.9018,4.9187,4.9898,5.0608,5.1319,5.2063,5.2807,5.3112,5.2367,5.1623,5.0913,5.0236,4.8951,4.8176,4.8883,0.0,0.0,4.7703,4.777,4.8037,4.8748,4.9492,5.0236,5.098,5.1048,5.0624,4.9617,4.867,4.7712,4.6772,4.6364,4.6501,4.7219,4.7279,4.7309,4.7309,4.7309,4.7309,4.7309,4.7309,4.7309,4.7309,4.7309,4.7309,4.7309,4.7309,4.7309,4.7309,4.7309,4.7339,4.7429,4.7997,4.8686,4.9449,4.9942,5.0554,5.1229,5.0002,5.0002,5.0122,5.0495,5.0272,5.0062,5.0166,4.9344,4.8566,4.8327,4.8057,4.7997,4.8267,4.8416,4.8446,4.8297,4.8057,4.7728,4.7339,4.7309,4.7452,4.7849,4.7467,4.6954,4.6322,4.6561,4.5903,4.4317,4.5394,4.5244,4.3917,4.3917,4.3917,4.3888,4.3469,4.329,4.329,4.329,4.3527,4.3888,4.3888,4.4472,4.5232,4.4631,4.5493,4.7069,4.7318,4.7868,4.8647,4.994,5.0067,4.9763,5.0236,5.0574,5.0582,4.9692,4.9888,5.0244,4.9592,4.9585,4.9864,5.0608,5.1352,5.2097,5.2875,5.3281,5.3416,5.3112,5.2435,5.1657,5.0913,5.0338,4.9898,4.9695,0.0,4.8409,4.9154,4.8883,4.8849,4.9593,5.0338,5.0913,5.1183,5.1185,5.056,4.8975,4.8505,4.7763,4.6589,4.6773,4.704,4.7309,4.7309,4.7309,4.7309,4.7309,4.7309,4.7309,4.7309,4.7309,4.7309,4.7309,4.7309,4.7309,4.7309,4.7309,4.7309,4.7309,4.7549,4.7938,4.8177,4.8925,4.9912,5.0106,5.0614,5.1229,4.9299,4.9299,4.9449,4.9853,4.9583,4.9389,4.9583,4.8865,4.8207,4.7997,4.8147,4.8356,4.8566,4.903,4.9164,4.8925,4.8716,4.8327,4.7668,4.7429,4.7309,4.7309,4.686,4.6621,4.6621,4.6621,4.6082,4.4945,4.5831,4.5723,4.4616,4.4616,4.4496,4.4287,4.3798,4.3499,4.329,4.329,4.329,4.329,4.329,4.3693,4.4243,4.3536,4.4867,4.7082,4.7248,4.8155,4.9448,5.0749,5.0879,5.0541,5.1048,5.1185,5.0991,4.9906,5.0152,5.0527,4.9538,4.9549,5.0126,5.1257,5.1663,5.2135,5.3247,5.3518,5.3518,5.3518,5.2875,5.2164,5.1657,5.1386,5.1048,5.0541,5.0033,4.977,4.9953,4.9809,4.9871,5.0255,5.1055,5.1493,5.143,5.143,5.0717,4.9069,4.8656,4.791,4.6676,4.707,4.7309,4.7309,4.7309,4.7309,4.7309,4.7309,4.7309,4.7309,4.7309,4.7309,4.7309,4.7309,4.7309,4.7309,4.7309,4.7309,4.7309,4.7309,4.7698,4.8297,4.8506,4.9254,5.0226,5.0435,5.084,5.1229,4.9299,4.9299,4.9299,4.9299,4.9299,4.909,4.8386,4.8297,4.8027,4.7399,4.7878,4.8536,4.9239,4.9329,4.9523,5.0136,4.9643,4.903,4.8327,4.7668,4.7309,4.7309,4.7309,4.7309,4.7309,4.7309,4.698,4.6279,4.6322,4.5963,4.5304,4.5304,4.4945,4.4317,4.4317,4.3958,4.3319,4.329,4.329,4.329,4.329,4.329,4.329,4.329,4.44,4.6033,4.6971,4.8391,4.9953,5.0891,5.1185,5.1185,5.1219,5.1219,5.0959,4.9746,4.9527,4.9536,4.8574,4.8792,4.9789,5.1799,5.1562,5.1278,5.3112,5.3518,5.3518,5.3518,5.2875,5.23,5.23,5.1725,5.1185,5.1185,5.1185,5.0858,4.9849,5.056,5.1094,5.0841,5.1731,5.2202,5.1927,5.1921,5.1451,5.0435,4.9376,4.8335,4.7352,4.7309,4.7309,4.7309,4.7309,4.7309,4.7309,4.7309,4.7309,4.7309,4.7309,4.7309,4.7309,4.7309,4.7309,4.7309,4.7309,4.7309,4.7309,4.7309,4.7698,4.8356,4.906,4.9673,5.0255,5.0913,5.1229,5.1229,4.7908,4.8267,4.876,4.9239,4.894,4.87,4.897,4.8177,4.7519,4.7339,4.8267,4.909,4.9299,5.0092,5.0541,5.0226,5.0016,4.9464,4.8356,4.7668,4.7309,4.7309,4.7309,4.7309,4.7309,4.7309,4.698,4.6279,4.68,4.6681,4.6022,4.6022,4.5861,4.5693,4.5214,4.4885,4.4676,4.4227,4.4018,4.4018,4.4018,4.4018,4.4077,4.4526,4.5901,4.7659,4.8472,4.9662,5.0993,5.2336,5.2435,5.2063,5.2638,5.2807,5.2438,5.0617,5.0631,5.0867,4.9102,4.8786,4.9487,5.1764,5.1928,5.1907,5.3213,5.3518,5.3518,5.3518,5.3315,5.2976,5.2401,5.257,5.2469,5.1386,5.1657,5.1597,5.061,5.1363,5.19,5.16,5.25,5.2807,5.196,5.1921,5.1192,4.9416,4.8335,4.7624,4.7309,4.7309,4.7309,4.7309,4.7309,4.7309,4.7309,4.7309,4.7309,4.7309,4.7309,4.7309,4.7309,4.7309,4.7549,4.7967,4.7489,4.7818,4.87,4.8177,4.8386,4.909,4.9703,5.0016,5.0255,5.0913,5.1229,5.1229,4.7309,4.7638,4.8027,4.8416,4.8147,4.8027,4.8446,4.7818,4.7309,4.7309,4.8446,4.9299,4.9299,5.0451,5.105,5.0614,5.0152,4.9523,4.876,4.7818,4.7309,4.7309,4.7309,4.7309,4.7309,4.7309,4.71,4.6711,4.71,4.71,4.6711,4.6711,4.6561,4.6249,4.5903,4.5544,4.5274,4.4855,4.4706,4.4706,4.4706,4.4706,4.4736,4.5155,4.6744,4.877,4.9224,5.0594,5.2266,5.3179,5.3179,5.2875,5.3348,5.3213,5.2522,5.0887,5.055,5.0403,4.9135,4.8512,4.8717,5.0968,5.1124,5.108,5.2522,5.287,5.2973,5.3416,5.3518,5.3348,5.2875,5.3179,5.3213,5.2266,5.2135,5.1788,5.0761,5.1191,5.1322,5.0752,5.1631,5.1849,5.0747,5.0671,4.9977,4.8335,4.7636,4.7309,4.7309,4.7309,4.7309,4.7309,4.7309,4.7309,4.7309,4.7309,4.7309,4.7309,4.7309,4.7309,4.7309,4.7578,4.7908,4.8267,4.8147,4.8536,4.9269,4.888,4.9045,4.9673,5.0046,5.0345,5.0614,5.1079,5.1229,5.1229,4.7309,4.7369,4.7399,4.7399,4.7399,4.7399,4.7399,4.7339,4.7339,4.7399,4.8476,4.9329,4.9389,5.0481,5.1229,5.1229,5.0062,4.9389,4.9299,4.8087,4.7369,4.7309,4.7309,4.7309,4.7309,4.7309,4.7309,4.7309,4.7309,4.7309,4.7309,4.7309,4.698,4.6369,4.6369,4.6052,4.5454,4.5394,4.5394,4.5394,4.5394,4.5394,4.5394,4.5454,4.7154,4.948,4.948,5.1218,5.3518,5.3518,5.3518,5.3518,5.3518,5.2835,5.1813,5.0703,4.9694,4.8891,4.8718,4.7988,4.7722,4.9655,4.9376,4.9215,5.1303,5.1849,5.2205,5.3144,5.3416,5.3518,5.3518,5.3518,5.345,5.3382,5.2557,5.1488,5.0397,5.032,5.0009,4.8932,4.9734,4.997,4.8891,4.8718,4.8293,4.7396,4.7309,4.7309,4.7309,4.7309,4.7309,4.7309,4.7309,4.7309,4.7309,4.7309,4.7309,4.7309,4.7309,4.7339,4.7429,4.8027,4.8356,4.8506,4.909,4.9389,4.9479,4.9419,4.9733,5.0285,5.0285,5.0644,5.1229,5.1229,5.1229,5.1229,4.7309,4.7728,4.8087,4.8087,4.8087,4.8087,4.8087,4.7638,4.7489,4.7997,4.882,4.9464,4.9972,5.075,5.1229,5.1229,5.0481,4.9793,4.9329,4.8506,4.7848,4.7339,4.7309,4.7309,4.7309,4.7309,4.7309,4.7309,4.7309,4.7309,4.7309,4.7309,4.7219,4.71,4.71,4.701,4.683,4.6322,4.6082,4.6082,4.6082,4.6082,4.6142,4.6681,4.8255,5.0173,5.0173,5.1609,5.3518,5.3518,5.3518,5.3518,5.3518,5.3348,5.28,5.093,5.0242,4.9694,4.8072,4.7452,4.7439,4.7849,4.7807,4.8157,5.0242,5.134,5.1957,5.2205,5.2904,5.3518,5.3518,5.3518,5.3213,5.2383,5.2029,5.1266,4.9416,4.9852,5.0009,4.8932,4.9734,4.997,4.8891,4.8115,4.7538,4.7309,4.7309,4.7309,4.7309,4.7309,4.7309,4.7309,4.7309,4.7309,4.7309,4.7309,4.7309,4.7309,4.7309,4.7578,4.8087,4.8207,4.8835,4.9747,4.9434,4.9853,5.075,5.0242,5.0375,5.0973,5.0973,5.1079,5.1229,5.1229,5.1229,5.1229,4.7309,4.7578,4.7818,4.7818,4.7818,4.7818,4.7818,4.7519,4.7429,4.7788,4.87,4.9449,4.9733,5.0631,5.1229,5.1229,5.0584,4.9942,4.9359,4.8656,4.7997,4.7339,4.7309,4.7309,4.7309,4.7309,4.7309,4.7309,4.7309,4.7309,4.7309,4.7309,4.7309,4.7309,4.7309,4.7309,4.7279,4.695,4.68,4.68,4.68,4.68,4.683,4.7189,4.8282,4.9655,4.9655,5.0968,5.2835,5.3348,5.3518,5.3416,5.2904,5.2416,5.1704,5.0126,4.9327,4.8666,4.7624,4.7309,4.7309,4.7309,4.7309,4.7722,4.9256,5.0016,5.0557,5.108,5.2026,5.2765,5.2765,5.3144,5.3314,5.2765,5.1813,5.0817,4.9734,4.9206,4.8708,4.8157,4.8584,4.8708,4.8157,4.7624,4.7309,4.7309,4.7309,4.7309,4.7309,4.7309,4.7309,4.7309,4.7309,4.7309,4.7309,4.7309,4.7459,4.7758,4.7459,4.7638,4.8297,4.864,4.9134,4.9793,5.0062,5.0571,5.1199,5.0794,5.0853,5.1229,5.1229,5.1229,5.1229,5.1229,5.1229,5.1229,4.7309,4.7309,4.7309,4.7309,4.7309,4.7309,4.7309,4.7309,4.7339,4.7459,4.8416,4.9239,4.9449,5.0296,5.087,5.087,5.0364,4.9832,4.9314,4.879,4.8117,4.7339,4.7309,4.7309,4.7309,4.7309,4.7309,4.7309,4.7309,4.7309,4.7309,4.7309,4.7309,4.7309,4.7309,4.7309,4.7309,4.7309,4.7309,4.7309,4.7309,4.7309,4.7309,4.7309,4.7904,4.88,4.88,5.0016,5.1776,5.2662,5.2972,5.28,5.1921,5.108,5.0204,4.9094,4.821,4.7538,4.7352,4.7309,4.7309,4.7309,4.7309,4.7538,4.8377,4.8677,4.9054,4.9931,5.093,5.1704,5.1885,5.2487,5.2972,5.2972,5.1373,5.0048,4.9891,4.8407,4.7309,4.7309,4.7309,4.7309,4.7309,4.7309,4.7309,4.7309,4.7309,4.7309,4.7309,4.7309,4.7309,4.7309,4.7309,4.7309,4.7309,4.7429,4.7818,4.8446,4.7908,4.7997,4.8626,4.9194,4.9539,4.9689,5.075,5.1139,5.105,5.105,5.105,5.105,5.105,5.1109,5.1229,5.1229,5.1229,5.1229,4.7309,4.7309,4.7309,4.7309,4.7309,4.7309,4.7309,4.7309,4.7519,4.8087,4.8297,4.8835,4.9927,4.9703,4.9455,4.9455,4.9397,4.9355,4.9299,4.9239,4.8596,4.7369,4.7309,4.7309,4.7309,4.7309,4.7309,4.7309,4.7309,4.7309,4.7309,4.7309,4.7309,4.7309,4.7309,4.7309,4.7309,4.7309,4.7309,4.7309,4.7309,4.7309,4.7309,4.7309,4.7904,4.88,4.88,4.9575,5.0627,5.0779,5.0817,5.0779,5.0627,5.0512,5.0204,4.9094,4.8718,4.8418,4.7538,4.7309,4.7309,4.7309,4.7309,4.7352,4.7452,4.8198,4.881,4.8973,4.9852,5.0855,5.174,5.1303,5.0817,5.0817,4.9813,4.8718,4.7849,4.7452,4.7309,4.7309,4.7309,4.7309,4.7309,4.7309,4.7309,4.7309,4.7309,4.7309,4.7309,4.7309,4.7309,4.7309,4.7309,4.7309,4.7309,4.7878,4.8476,4.9179,4.909,4.9344,4.9927,5.0016,5.0375,5.096,5.1139,5.0853,5.0315,5.0315,5.0315,5.0315,5.0315,5.0674,5.1229,5.1229,5.1229,5.1229,4.7309,4.7309,4.7309,4.7309,4.7309,4.7309,4.7309,4.7309,4.7399,4.7698,4.8057,4.8358,4.8483,4.8215,4.8038,4.8038,4.8424,4.8509,4.8126,4.8535,4.8297,4.7339,4.7309,4.7309,4.7309,4.7309,4.7309,4.7309,4.7309,4.7309,4.7309,4.7309,4.7309,4.7309,4.7309,4.7309,4.7309,4.7309,4.7309,4.7309,4.7309,4.7309,4.7309,4.7309,4.7581,4.803,4.8594,4.9094,4.9615,5.0204,5.0397,5.0281,4.9694,4.9496,4.9296,4.8252,4.7946,4.7892,4.7409,4.7309,4.7309,4.7309,4.7309,4.7309,4.7309,4.7636,4.7946,4.7946,4.88,4.9655,5.0094,5.0747,5.1043,5.0474,5.0009,4.9336,4.8293,4.7636,4.7309,4.7309,4.7309,4.7309,4.7309,4.7309,4.7309,4.7309,4.7309,4.7309,4.7309,4.7309,4.7309,4.7309,4.7668,4.7848,4.7848,4.8506,4.9164,4.9793,4.9793,4.9942,5.0196,5.0196,5.0345,5.0644,5.105,5.1003,5.0734,5.0734,5.0734,5.0734,5.0734,5.096,5.1229,5.1229,5.1229,5.1229]}]]